[[{"header":{"parameterUnit":"m.s-1","parameterCategory":1,"la1":31.0,"la2":29.5877,"lo1":-88.7671,"lo2":-86.6584,"dy":0.0162,"dx":0.0185,"nx":115,"ny":88,"refTime":"2023-03-02T06:00:00:Z","depth":0,"parameterNumber":2,"parameterNumberName":"U-component_of_WINDS"},"data":[0.0,0.0,0.0,0.0,0.0,0.0,0.0,0.0,0.0,0.0,0.0,0.0,0.0,0.0,0.0,0.0,0.0,0.0,0.0,0.0,0.0,0.0,0.0,0.0,0.0,0.0,0.0,0.0,0.0,0.0,0.0,0.0,0.0,0.0,0.0,0.0,0.0,0.0,0.0,0.0,0.0,0.0,0.0,0.0,0.0,0.0,0.0,0.0,0.0,0.0,0.0,0.0,0.0,0.0,0.0,0.0,0.0,0.0,0.0,0.0,0.0,0.0,0.0,0.0,0.0,0.0,0.0,0.0,0.0,0.0,0.0,0.0,0.0,0.0,0.0,0.0,0.0,0.0,0.0,0.0,0.0,0.0,0.0,0.0,0.0,0.0,0.0,0.0,0.0,0.0,0.0,0.0,0.0,0.0,0.0,0.0,0.0,0.0,0.0,0.0,0.0,0.0,0.0,0.0,0.0,0.0,0.0,0.0,0.0,0.0,0.0,0.0,0.0,0.0,0.0,0.0,0.0,0.0,0.0,0.0,0.0,0.0,0.0,0.0,0.0,0.0,0.0,0.0,0.0,0.0,0.0,0.0,0.0,0.0,0.0,0.0,0.0,0.0,0.0,0.0,0.0,0.0,0.0,0.0,0.0,0.0,0.0,0.0,0.0,0.0,0.0,0.0,0.0,0.0,0.0,0.0,0.0,0.0,0.0,0.0,0.0,0.0,0.0,0.0,0.0,0.0,0.0,0.0,0.0,0.0,0.0,0.0,0.0,0.0,0.0,0.0,0.0,0.0,0.0,0.0,0.0,0.0,0.0,0.0,0.0,0.0,0.0,0.0,0.0,0.0,0.0,0.0,0.0,0.0,0.0,0.0,0.0,0.0,0.0,0.0,0.0,0.0,0.0,0.0,0.0,0.0,0.0,0.0,0.0,0.0,0.0,0.0,0.0,0.0,0.0,0.0,0.0,0.0,0.0,0.0,0.0,0.0,0.0,0.0,0.0,0.0,0.0,0.0,0.0,0.0,0.0,0.0,0.0,0.0,0.0,0.0,0.0,0.0,0.0,0.0,0.0,0.0,0.0,0.0,0.0,0.0,0.0,0.0,0.0,0.0,0.0,0.0,0.0,0.0,0.0,0.0,0.0,0.0,0.0,0.0,0.0,0.0,0.0,0.0,0.0,0.0,0.0,0.0,0.0,0.0,0.0,0.0,0.0,0.0,0.0,0.0,0.0,0.0,0.0,0.0,0.0,0.0,0.0,0.0,0.0,0.0,0.0,0.0,0.0,0.0,0.0,0.0,0.0,0.0,0.0,0.0,0.0,0.0,0.0,0.0,0.0,0.0,0.0,0.0,0.0,0.0,0.0,0.0,0.0,0.0,0.0,0.0,0.0,0.0,0.0,0.0,0.0,0.0,0.0,0.0,0.0,0.0,0.0,0.0,0.0,0.0,0.0,0.0,0.0,0.0,0.0,0.0,0.0,0.0,0.0,0.0,0.0,0.0,0.0,0.0,0.0,0.0,0.0,0.0,0.0,0.0,0.0,0.0,0.0,0.0,0.0,0.0,0.0,0.0,0.0,0.0,0.0,0.0,0.0,0.0,0.0,0.0,0.0,0.0,0.0,0.0,0.0,0.0,0.0,0.0,0.0,0.0,0.0,0.0,0.0,0.0,0.0,0.0,0.0,0.0,0.0,0.0,0.0,0.0,0.0,0.0,0.0,0.0,0.0,0.0,0.0,0.0,0.0,0.0,0.0,0.0,0.0,0.0,0.0,0.0,0.0,0.0,0.0,0.0,0.0,0.0,0.0,0.0,0.0,0.0,0.0,0.0,0.0,0.0,0.0,0.0,0.0,0.0,0.0,0.0,0.0,0.0,0.0,0.0,0.0,0.0,0.0,0.0,0.0,0.0,0.0,0.0,0.0,0.0,0.0,0.0,0.0,0.0,0.0,0.0,0.0,0.0,0.0,0.0,0.0,0.0,0.0,0.0,0.0,0.0,0.0,0.0,0.0,0.0,0.0,0.0,0.0,0.0,0.0,0.0,0.0,0.0,0.0,0.0,0.0,0.0,0.0,0.0,0.0,0.0,0.0,0.0,0.0,0.0,0.0,0.0,0.0,0.0,0.0,0.0,0.0,0.0,0.0,0.0,0.0,0.0,0.0,0.0,0.0,0.0,0.0,0.0,0.0,0.0,0.0,0.0,0.0,0.0,0.0,0.0,0.0,0.0,0.0,0.0,0.0,0.0,0.0,0.0,0.0,0.0,0.0,0.0,0.0,0.0,0.0,0.0,0.0,0.0,0.0,0.0,0.0,0.0,0.0,0.0,0.0,0.0,0.0,0.0,0.0,0.0,0.0,0.0,0.0,0.0,0.0,0.0,0.0,0.0,0.0,0.0,0.0,0.0,0.0,0.0,0.0,0.0,0.0,0.0,0.0,0.0,0.0,0.0,0.0,0.0,0.0,0.0,0.0,0.0,0.0,0.0,0.0,0.0,0.0,0.0,0.0,0.0,0.0,0.0,0.0,0.0,0.0,0.0,0.0,0.0,0.0,0.0,0.0,0.0,0.0,0.0,0.0,0.0,0.0,0.0,0.0,0.0,0.0,0.0,0.0,0.0,0.0,0.0,0.0,0.0,0.0,0.0,0.0,0.0,0.0,0.0,0.0,0.0,0.0,0.0,0.0,0.0,0.0,0.0,0.0,0.0,0.0,0.0,0.0,0.0,0.0,0.0,0.0,0.0,0.0,0.0,0.0,0.0,0.0,0.0,0.0,0.0,0.0,0.0,0.0,0.0,0.0,0.0,0.0,0.0,0.0,0.0,0.0,0.0,0.0,0.0,0.0,0.0,0.0,0.0,0.0,0.0,0.0,0.0,0.0,0.0,0.0,0.0,0.0,0.0,0.0,0.0,0.0,0.0,0.0,0.0,0.0,0.0,0.0,0.0,0.0,0.0,0.0,0.0,0.0,0.0,0.0,0.0,0.0,0.0,0.0,0.0,0.0,0.0,0.0,0.0,0.0,0.0,0.0,0.0,0.0,0.0,0.0,0.0,0.0,0.0,0.0,0.0,0.0,0.0,0.0,0.0,0.0,0.0,0.0,0.0,0.0,0.0,0.0,0.0,0.0,0.0,0.0,0.0,0.0,0.0,0.0,0.0,0.0,0.0,0.0,0.0,0.0,0.0,0.0,0.0,0.0,0.0,0.0,0.0,0.0,0.0,0.0,0.0,0.0,0.0,0.0,0.0,0.0,0.0,0.0,0.0,0.0,0.0,0.0,0.0,0.0,0.0,0.0,0.0,0.0,0.0,0.0,0.0,0.0,0.0,0.0,0.0,0.0,0.0,0.0,0.0,0.0,0.0,0.0,0.0,0.0,0.0,0.0,0.0,0.0,0.0,0.0,0.0,0.0,0.0,0.0,0.0,0.0,0.0,0.0,0.0,0.0,0.0,0.0,0.0,0.0,0.0,0.0,0.0,0.0,0.0,0.0,0.0,0.0,0.0,0.0,0.0,0.0,0.0,0.0,0.0,0.0,0.0,0.0,0.0,0.0,0.0,0.0,0.0,0.0,0.0,0.0,0.0,0.0,0.0,0.0,0.0,0.0,0.0,0.0,0.0,0.0,0.0,0.0,0.0,0.0,0.0,0.0,0.0,0.0,0.0,0.0,0.0,0.0,0.0,0.0,0.0,0.0,0.0,0.0,0.0,0.0,0.0,0.0,0.0,0.0,0.0,0.0,0.0,0.0,0.0,0.0,0.0,0.0,0.0,0.0,0.0,0.0,0.0,0.0,0.0,0.0,0.0,0.0,0.0,0.0,0.0,0.0,0.0,0.0,0.0,0.0,0.0,0.0,0.0,0.0,0.0,0.0,0.0,0.0,0.0,0.0,0.0,0.0,0.0,0.0,0.0,0.0,0.0,0.0,0.0,0.0,0.0,0.0,0.0,0.0,0.0,0.0,0.0,0.0,0.0,0.0,0.0,0.0,0.0,0.0,0.0,0.0,0.0,0.0,0.0,0.0,0.0,0.0,0.0,0.0,0.0,0.0,0.0,0.0,0.0,0.0,0.0,0.0,0.0,0.0,0.0,0.0,0.0,0.0,0.0,0.0,0.0,0.0,0.0,0.0,0.0,0.0,0.0,0.0,0.0,0.0,0.0,0.0,0.0,0.0,0.0,0.0,0.0,0.0,0.0,0.0,0.0,0.0,0.0,0.0,0.0,0.0,0.0,0.0,0.0,0.0,0.0,0.0,0.0,0.0,0.0,0.0,0.0,0.0,0.0,-2.5497,0.0,0.0,0.0,0.0,0.0,0.0,0.0,0.0,0.0,0.0,0.0,0.0,0.0,0.0,0.0,0.0,0.0,0.0,0.0,0.0,0.0,0.0,0.0,0.0,0.0,0.0,0.0,0.0,0.0,0.0,0.0,0.0,0.0,0.0,0.0,0.0,0.0,0.0,0.0,0.0,0.0,0.0,0.0,0.0,0.0,0.0,0.0,0.0,0.0,0.0,0.0,0.0,0.0,0.0,0.0,0.0,0.0,0.0,0.0,0.0,0.0,0.0,0.0,0.0,0.0,0.0,0.0,0.0,0.0,0.0,0.0,0.0,0.0,0.0,0.0,0.0,0.0,0.0,0.0,0.0,0.0,0.0,0.0,0.0,0.0,0.0,0.0,0.0,0.0,0.0,0.0,0.0,0.0,0.0,0.0,0.0,0.0,0.0,0.0,0.0,0.0,0.0,0.0,0.0,0.0,0.0,0.0,0.0,0.0,0.0,-2.5081,-2.553,-2.4707,-2.4682,-2.5575,0.0,0.0,0.0,0.0,0.0,0.0,0.0,0.0,0.0,0.0,0.0,0.0,0.0,0.0,0.0,0.0,0.0,0.0,0.0,0.0,0.0,0.0,0.0,0.0,0.0,0.0,0.0,0.0,0.0,0.0,0.0,0.0,0.0,0.0,0.0,0.0,0.0,0.0,0.0,0.0,0.0,0.0,0.0,0.0,0.0,0.0,0.0,0.0,0.0,0.0,0.0,0.0,0.0,0.0,0.0,0.0,0.0,0.0,0.0,0.0,0.0,0.0,0.0,0.0,0.0,0.0,0.0,0.0,0.0,0.0,0.0,0.0,0.0,0.0,0.0,0.0,0.0,0.0,0.0,0.0,0.0,0.0,0.0,0.0,0.0,0.0,0.0,0.0,0.0,0.0,0.0,0.0,0.0,0.0,0.0,0.0,0.0,0.0,0.0,0.0,0.0,0.0,0.0,0.0,0.0,0.0,0.0,0.0,0.0,0.0,0.0,0.0,-2.4336,-2.4262,-2.5529,0.0,0.0,0.0,0.0,0.0,0.0,0.0,0.0,0.0,0.0,0.0,0.0,0.0,0.0,0.0,0.0,0.0,0.0,0.0,0.0,0.0,0.0,0.0,0.0,0.0,0.0,0.0,0.0,0.0,0.0,0.0,0.0,0.0,0.0,0.0,0.0,0.0,0.0,0.0,0.0,0.0,0.0,0.0,0.0,0.0,0.0,0.0,0.0,0.0,0.0,0.0,0.0,0.0,0.0,0.0,0.0,0.0,0.0,0.0,0.0,0.0,0.0,0.0,0.0,0.0,0.0,0.0,0.0,0.0,0.0,0.0,0.0,0.0,0.0,0.0,0.0,0.0,0.0,0.0,0.0,0.0,0.0,0.0,0.0,0.0,0.0,0.0,0.0,0.0,0.0,0.0,0.0,0.0,0.0,0.0,0.0,0.0,0.0,0.0,0.0,0.0,0.0,0.0,0.0,0.0,0.0,0.0,0.0,0.0,0.0,-2.5485,-2.5532,-2.5408,0.0,-2.5585,0.0,0.0,0.0,0.0,0.0,0.0,0.0,0.0,0.0,0.0,0.0,0.0,0.0,0.0,0.0,0.0,0.0,0.0,0.0,0.0,0.0,0.0,0.0,0.0,0.0,0.0,0.0,0.0,0.0,0.0,0.0,0.0,0.0,0.0,0.0,0.0,0.0,0.0,0.0,0.0,0.0,0.0,0.0,0.0,0.0,0.0,0.0,0.0,0.0,0.0,0.0,0.0,0.0,0.0,0.0,0.0,0.0,0.0,0.0,0.0,0.0,0.0,0.0,0.0,0.0,0.0,0.0,0.0,0.0,0.0,0.0,0.0,0.0,0.0,0.0,0.0,0.0,0.0,0.0,0.0,0.0,0.0,0.0,0.0,0.0,0.0,0.0,0.0,0.0,0.0,0.0,0.0,0.0,0.0,0.0,0.0,0.0,0.0,0.0,0.0,0.0,0.0,0.0,0.0,0.0,0.0,0.0,0.0,0.0,0.0,-2.5582,-2.5541,-2.5556,-2.5318,0.0,0.0,0.0,0.0,0.0,0.0,0.0,0.0,0.0,0.0,0.0,0.0,0.0,0.0,0.0,0.0,0.0,0.0,0.0,0.0,0.0,0.0,0.0,0.0,0.0,0.0,0.0,0.0,0.0,0.0,0.0,0.0,0.0,0.0,0.0,0.0,0.0,0.0,0.0,0.0,0.0,0.0,0.0,0.0,0.0,0.0,0.0,0.0,0.0,0.0,0.0,0.0,0.0,0.0,0.0,0.0,0.0,0.0,0.0,0.0,0.0,0.0,0.0,0.0,0.0,0.0,0.0,0.0,0.0,0.0,0.0,0.0,0.0,0.0,0.0,0.0,0.0,0.0,0.0,0.0,0.0,0.0,0.0,0.0,0.0,0.0,0.0,0.0,0.0,0.0,0.0,0.0,0.0,0.0,0.0,0.0,0.0,0.0,0.0,0.0,0.0,0.0,0.0,0.0,0.0,0.0,0.0,0.0,0.0,0.0,-2.5359,-2.5232,-2.5191,-2.5191,-2.4899,-2.433,0.0,0.0,0.0,0.0,0.0,0.0,0.0,0.0,0.0,0.0,0.0,0.0,0.0,0.0,0.0,0.0,0.0,0.0,0.0,0.0,0.0,0.0,0.0,0.0,0.0,0.0,0.0,0.0,0.0,0.0,0.0,0.0,0.0,0.0,0.0,0.0,0.0,0.0,0.0,0.0,0.0,0.0,0.0,0.0,0.0,0.0,0.0,0.0,0.0,0.0,0.0,0.0,0.0,0.0,0.0,0.0,0.0,0.0,0.0,0.0,0.0,0.0,0.0,0.0,0.0,0.0,0.0,0.0,0.0,0.0,0.0,0.0,0.0,0.0,0.0,0.0,0.0,0.0,0.0,0.0,0.0,0.0,0.0,0.0,0.0,0.0,0.0,0.0,0.0,0.0,0.0,0.0,0.0,0.0,0.0,0.0,0.0,0.0,0.0,0.0,0.0,0.0,0.0,0.0,0.0,0.0,0.0,0.0,-2.5331,-2.4697,-2.4341,-2.4277,-2.4325,-2.4332,0.0,0.0,0.0,0.0,0.0,0.0,0.0,0.0,0.0,0.0,0.0,0.0,0.0,0.0,0.0,0.0,0.0,0.0,0.0,0.0,0.0,0.0,0.0,0.0,0.0,0.0,0.0,0.0,0.0,0.0,0.0,0.0,0.0,0.0,0.0,0.0,0.0,0.0,0.0,0.0,0.0,0.0,0.0,0.0,0.0,0.0,0.0,0.0,0.0,0.0,0.0,0.0,0.0,0.0,0.0,0.0,0.0,0.0,0.0,0.0,0.0,0.0,0.0,0.0,0.0,0.0,0.0,0.0,0.0,0.0,0.0,0.0,0.0,0.0,0.0,0.0,0.0,0.0,0.0,0.0,0.0,0.0,0.0,0.0,0.0,0.0,0.0,0.0,0.0,0.0,0.0,0.0,0.0,0.0,0.0,0.0,0.0,0.0,0.0,0.0,0.0,0.0,0.0,0.0,0.0,0.0,0.0,0.0,0.0,-2.4578,-2.3872,-2.3442,-2.3396,-2.3951,-2.3776,0.0,0.0,0.0,0.0,0.0,0.0,0.0,0.0,0.0,0.0,0.0,0.0,0.0,0.0,0.0,0.0,0.0,0.0,0.0,0.0,0.0,0.0,0.0,0.0,0.0,0.0,0.0,0.0,0.0,0.0,0.0,0.0,0.0,0.0,0.0,0.0,0.0,0.0,0.0,0.0,0.0,0.0,0.0,0.0,0.0,0.0,0.0,0.0,0.0,0.0,0.0,0.0,0.0,0.0,0.0,0.0,0.0,0.0,0.0,0.0,0.0,0.0,0.0,0.0,0.0,0.0,0.0,0.0,0.0,0.0,0.0,0.0,0.0,0.0,0.0,0.0,0.0,0.0,0.0,0.0,0.0,0.0,0.0,0.0,0.0,0.0,0.0,0.0,0.0,0.0,0.0,0.0,0.0,0.0,0.0,0.0,0.0,0.0,0.0,0.0,0.0,0.0,0.0,0.0,0.0,0.0,0.0,0.0,0.0,-2.336,0.0,-2.2517,-2.2527,-2.3124,-2.3024,0.0,0.0,0.0,0.0,0.0,0.0,0.0,0.0,0.0,0.0,0.0,0.0,0.0,0.0,0.0,0.0,0.0,0.0,0.0,0.0,0.0,0.0,0.0,0.0,0.0,0.0,0.0,0.0,0.0,0.0,0.0,0.0,0.0,0.0,0.0,0.0,0.0,0.0,0.0,0.0,0.0,0.0,0.0,0.0,0.0,0.0,0.0,0.0,0.0,0.0,0.0,0.0,0.0,0.0,0.0,0.0,0.0,0.0,0.0,0.0,0.0,0.0,0.0,0.0,0.0,0.0,0.0,0.0,0.0,0.0,0.0,0.0,0.0,0.0,0.0,0.0,0.0,0.0,0.0,0.0,0.0,0.0,0.0,0.0,0.0,0.0,0.0,0.0,0.0,0.0,0.0,0.0,0.0,0.0,0.0,0.0,0.0,0.0,0.0,0.0,0.0,0.0,0.0,0.0,0.0,0.0,0.0,0.0,-2.2439,-2.1697,-2.1628,-2.167,-2.1678,-2.1762,-2.2114,0.0,0.0,0.0,0.0,0.0,0.0,0.0,0.0,0.0,0.0,0.0,0.0,0.0,0.0,0.0,0.0,0.0,0.0,0.0,0.0,0.0,0.0,0.0,0.0,0.0,0.0,0.0,0.0,0.0,0.0,0.0,0.0,0.0,0.0,0.0,0.0,0.0,0.0,0.0,0.0,0.0,0.0,0.0,0.0,0.0,0.0,0.0,0.0,0.0,0.0,0.0,0.0,0.0,0.0,0.0,0.0,0.0,0.0,0.0,0.0,0.0,0.0,0.0,0.0,0.0,0.0,0.0,0.0,0.0,0.0,0.0,0.0,0.0,0.0,0.0,0.0,0.0,0.0,0.0,0.0,0.0,0.0,0.0,0.0,0.0,0.0,0.0,0.0,0.0,0.0,0.0,0.0,0.0,0.0,0.0,0.0,0.0,0.0,0.0,0.0,0.0,0.0,0.0,0.0,0.0,0.0,0.0,0.0,0.0,-2.2187,-2.1687,-2.1449,-2.1559,-2.1665,-2.1488,0.0,0.0,0.0,0.0,0.0,0.0,0.0,0.0,0.0,0.0,0.0,0.0,0.0,0.0,0.0,0.0,0.0,0.0,0.0,0.0,0.0,0.0,0.0,0.0,0.0,0.0,0.0,0.0,0.0,0.0,0.0,0.0,0.0,0.0,0.0,0.0,0.0,0.0,0.0,0.0,0.0,0.0,0.0,0.0,0.0,0.0,0.0,0.0,0.0,0.0,0.0,0.0,0.0,0.0,0.0,0.0,0.0,0.0,0.0,0.0,0.0,0.0,0.0,0.0,0.0,0.0,0.0,0.0,0.0,0.0,0.0,0.0,0.0,0.0,0.0,0.0,0.0,0.0,0.0,0.0,0.0,0.0,0.0,0.0,0.0,0.0,0.0,0.0,0.0,0.0,0.0,0.0,0.0,0.0,0.0,0.0,0.0,0.0,0.0,0.0,0.0,0.0,0.0,0.0,0.0,0.0,0.0,0.0,0.0,-2.4176,-2.3509,-2.294,-2.2538,-2.2896,-2.2326,-2.0823,0.0,0.0,0.0,0.0,0.0,0.0,0.0,0.0,0.0,0.0,0.0,0.0,0.0,0.0,0.0,0.0,0.0,0.0,0.0,0.0,0.0,0.0,0.0,0.0,0.0,0.0,0.0,0.0,0.0,0.0,0.0,0.0,0.0,0.0,0.0,0.0,0.0,0.0,0.0,0.0,0.0,0.0,0.0,0.0,0.0,0.0,0.0,0.0,0.0,0.0,0.0,0.0,0.0,0.0,0.0,0.0,0.0,0.0,0.0,0.0,0.0,0.0,0.0,0.0,0.0,0.0,0.0,0.0,0.0,0.0,0.0,0.0,0.0,0.0,0.0,0.0,0.0,0.0,0.0,0.0,0.0,0.0,0.0,0.0,0.0,0.0,0.0,0.0,0.0,0.0,0.0,0.0,0.0,0.0,0.0,0.0,0.0,0.0,0.0,0.0,0.0,0.0,0.0,0.0,0.0,0.0,0.0,0.0,-2.7293,-2.6972,-2.6107,-2.4655,-2.5093,-2.4273,0.0,0.0,0.0,0.0,0.0,0.0,0.0,0.0,0.0,0.0,0.0,0.0,0.0,0.0,0.0,0.0,0.0,0.0,0.0,0.0,0.0,0.0,0.0,0.0,0.0,0.0,0.0,0.0,0.0,0.0,0.0,0.0,0.0,0.0,0.0,0.0,0.0,0.0,0.0,0.0,0.0,0.0,0.0,0.0,0.0,0.0,0.0,0.0,0.0,0.0,0.0,0.0,0.0,0.0,0.0,0.0,0.0,0.0,0.0,0.0,0.0,0.0,0.0,0.0,0.0,0.0,0.0,0.0,0.0,0.0,0.0,0.0,0.0,0.0,0.0,0.0,0.0,0.0,0.0,0.0,0.0,0.0,0.0,0.0,0.0,0.0,0.0,0.0,0.0,0.0,0.0,0.0,0.0,0.0,0.0,0.0,0.0,0.0,0.0,0.0,0.0,0.0,0.0,0.0,0.0,0.0,0.0,0.0,0.0,-2.9905,-3.1859,-3.1584,-2.8941,-2.6674,-2.512,0.0,0.0,0.0,0.0,0.0,0.0,0.0,0.0,0.0,0.0,0.0,0.0,0.0,0.0,0.0,0.0,0.0,0.0,0.0,0.0,0.0,0.0,0.0,0.0,0.0,0.0,0.0,0.0,0.0,0.0,0.0,0.0,0.0,0.0,0.0,0.0,0.0,0.0,0.0,0.0,0.0,0.0,0.0,0.0,0.0,0.0,0.0,0.0,0.0,0.0,0.0,0.0,0.0,0.0,0.0,0.0,0.0,0.0,0.0,0.0,0.0,0.0,0.0,0.0,0.0,0.0,0.0,0.0,0.0,0.0,0.0,0.0,0.0,0.0,0.0,0.0,0.0,0.0,0.0,0.0,0.0,0.0,0.0,0.0,0.0,0.0,0.0,0.0,0.0,0.0,0.0,0.0,0.0,0.0,0.0,0.0,0.0,0.0,0.0,0.0,0.0,0.0,0.0,0.0,0.0,0.0,0.0,0.0,-2.9053,-3.0978,-3.4947,-3.6138,-3.4306,-2.9965,-2.7039,0.0,0.0,0.0,0.0,0.0,0.0,0.0,0.0,0.0,0.0,0.0,0.0,0.0,0.0,0.0,0.0,0.0,0.0,0.0,0.0,0.0,0.0,0.0,0.0,0.0,0.0,0.0,0.0,0.0,0.0,0.0,0.0,0.0,0.0,0.0,0.0,0.0,0.0,0.0,0.0,0.0,0.0,0.0,0.0,0.0,0.0,0.0,0.0,0.0,0.0,0.0,0.0,0.0,0.0,0.0,0.0,0.0,0.0,0.0,0.0,0.0,0.0,0.0,0.0,0.0,0.0,0.0,0.0,0.0,0.0,0.0,0.0,0.0,0.0,0.0,0.0,0.0,0.0,0.0,0.0,0.0,0.0,0.0,0.0,0.0,0.0,0.0,0.0,0.0,0.0,0.0,0.0,0.0,0.0,0.0,0.0,0.0,0.0,0.0,0.0,0.0,0.0,0.0,0.0,0.0,0.0,0.0,0.0,-3.134,-3.1491,-3.6716,-3.9551,-3.9464,-3.3692,-2.9434,0.0,0.0,0.0,0.0,0.0,0.0,0.0,0.0,0.0,0.0,0.0,0.0,0.0,0.0,0.0,0.0,0.0,0.0,0.0,0.0,0.0,0.0,0.0,0.0,0.0,0.0,0.0,0.0,0.0,0.0,0.0,0.0,0.0,0.0,0.0,0.0,0.0,0.0,0.0,0.0,0.0,0.0,0.0,0.0,0.0,0.0,0.0,0.0,0.0,0.0,0.0,0.0,0.0,0.0,0.0,0.0,0.0,0.0,0.0,0.0,0.0,0.0,0.0,0.0,0.0,0.0,0.0,0.0,0.0,0.0,0.0,0.0,0.0,0.0,0.0,0.0,0.0,0.0,0.0,0.0,0.0,0.0,0.0,0.0,0.0,0.0,0.0,0.0,0.0,0.0,0.0,0.0,0.0,0.0,0.0,0.0,0.0,0.0,0.0,0.0,0.0,0.0,0.0,0.0,0.0,0.0,0.0,0.0,-3.2179,-3.432,-3.7694,-3.9822,-4.0465,-3.4066,-3.0284,0.0,0.0,0.0,0.0,0.0,0.0,0.0,0.0,0.0,0.0,0.0,0.0,0.0,0.0,0.0,0.0,0.0,0.0,0.0,0.0,0.0,0.0,0.0,0.0,0.0,0.0,0.0,0.0,0.0,0.0,0.0,0.0,0.0,0.0,0.0,0.0,0.0,0.0,0.0,0.0,0.0,0.0,0.0,0.0,0.0,0.0,0.0,0.0,-2.2771,0.0,0.0,0.0,0.0,0.0,0.0,0.0,0.0,0.0,0.0,0.0,0.0,0.0,0.0,0.0,0.0,0.0,0.0,0.0,0.0,0.0,0.0,0.0,0.0,0.0,0.0,0.0,0.0,0.0,0.0,0.0,0.0,0.0,0.0,0.0,0.0,0.0,0.0,0.0,0.0,0.0,0.0,0.0,0.0,0.0,0.0,0.0,0.0,0.0,0.0,0.0,0.0,0.0,0.0,0.0,0.0,0.0,0.0,0.0,-3.2882,-3.522,-3.8446,-4.0316,-4.0581,-3.5713,-3.2387,0.0,0.0,0.0,0.0,0.0,0.0,0.0,0.0,0.0,0.0,0.0,0.0,0.0,0.0,0.0,0.0,0.0,0.0,0.0,0.0,0.0,0.0,0.0,0.0,0.0,0.0,0.0,0.0,0.0,0.0,0.0,0.0,0.0,0.0,0.0,0.0,0.0,0.0,0.0,0.0,0.0,0.0,0.0,0.0,0.0,0.0,0.0,0.0,0.0,0.0,0.0,0.0,0.0,0.0,0.0,0.0,0.0,0.0,0.0,0.0,0.0,0.0,0.0,0.0,0.0,0.0,0.0,0.0,0.0,0.0,0.0,0.0,0.0,0.0,0.0,0.0,0.0,0.0,0.0,0.0,0.0,0.0,0.0,0.0,0.0,0.0,0.0,0.0,0.0,0.0,0.0,0.0,0.0,0.0,0.0,0.0,0.0,0.0,0.0,0.0,0.0,0.0,0.0,0.0,0.0,0.0,0.0,-3.0856,-3.3624,-3.5944,-3.9114,-4.0809,-4.0736,-3.7616,-3.4549,-3.1752,0.0,0.0,0.0,0.0,0.0,0.0,0.0,0.0,0.0,0.0,0.0,0.0,0.0,0.0,0.0,0.0,0.0,0.0,0.0,0.0,0.0,0.0,0.0,0.0,0.0,0.0,0.0,0.0,0.0,0.0,0.0,0.0,0.0,0.0,0.0,0.0,0.0,0.0,-2.4766,-2.5231,0.0,0.0,0.0,0.0,0.0,0.0,0.0,0.0,-2.4121,0.0,0.0,0.0,0.0,0.0,0.0,0.0,0.0,0.0,0.0,0.0,0.0,0.0,0.0,0.0,0.0,0.0,0.0,0.0,0.0,0.0,0.0,0.0,0.0,0.0,0.0,0.0,0.0,0.0,0.0,0.0,0.0,0.0,0.0,0.0,0.0,0.0,0.0,0.0,0.0,0.0,0.0,0.0,0.0,0.0,0.0,0.0,0.0,0.0,0.0,0.0,0.0,0.0,0.0,0.0,0.0,-3.0296,-3.1779,-3.4519,-3.8601,-4.0087,-4.082,-4.0736,-3.8131,-3.514,-3.1752,0.0,0.0,0.0,0.0,0.0,0.0,0.0,0.0,0.0,0.0,0.0,0.0,0.0,0.0,0.0,0.0,0.0,0.0,0.0,0.0,0.0,0.0,0.0,0.0,0.0,0.0,0.0,0.0,0.0,0.0,0.0,0.0,0.0,0.0,0.0,0.0,0.0,0.0,0.0,-2.5976,-2.5974,0.0,0.0,0.0,0.0,0.0,0.0,0.0,0.0,-2.564,0.0,0.0,0.0,0.0,0.0,0.0,0.0,0.0,0.0,0.0,0.0,0.0,0.0,0.0,0.0,0.0,0.0,0.0,0.0,0.0,0.0,0.0,0.0,0.0,0.0,0.0,0.0,0.0,0.0,0.0,0.0,0.0,0.0,0.0,0.0,0.0,0.0,0.0,0.0,0.0,0.0,0.0,0.0,0.0,0.0,0.0,0.0,0.0,0.0,0.0,0.0,0.0,0.0,0.0,0.0,-3.0897,-3.3257,-3.6082,-3.9277,-4.0268,-4.0763,-4.0736,-3.8263,-3.5266,0.0,0.0,0.0,0.0,0.0,0.0,0.0,0.0,0.0,0.0,0.0,0.0,0.0,0.0,0.0,0.0,0.0,0.0,0.0,0.0,0.0,0.0,0.0,0.0,0.0,0.0,0.0,0.0,0.0,0.0,0.0,0.0,0.0,0.0,0.0,0.0,0.0,0.0,0.0,0.0,-2.6474,-2.6601,-2.7402,0.0,0.0,0.0,0.0,0.0,0.0,-2.6782,-2.6542,0.0,0.0,0.0,0.0,0.0,0.0,0.0,0.0,0.0,0.0,0.0,0.0,0.0,0.0,0.0,0.0,0.0,0.0,0.0,0.0,0.0,0.0,0.0,0.0,0.0,0.0,0.0,0.0,0.0,0.0,0.0,0.0,0.0,0.0,0.0,0.0,0.0,0.0,0.0,0.0,0.0,0.0,0.0,0.0,0.0,0.0,0.0,0.0,0.0,0.0,0.0,0.0,0.0,0.0,0.0,-3.1276,-3.4586,-3.7394,-3.9528,-4.0314,-4.0739,-4.0724,-3.7775,-3.4818,0.0,0.0,0.0,0.0,0.0,0.0,0.0,0.0,0.0,0.0,0.0,0.0,0.0,0.0,0.0,0.0,0.0,0.0,0.0,0.0,0.0,0.0,0.0,0.0,0.0,0.0,0.0,0.0,0.0,0.0,0.0,0.0,0.0,0.0,0.0,0.0,0.0,0.0,0.0,0.0,0.0,-2.7382,-2.8243,-2.7678,0.0,0.0,0.0,0.0,-2.7729,-2.7912,0.0,0.0,0.0,0.0,0.0,0.0,0.0,0.0,0.0,0.0,0.0,0.0,0.0,0.0,0.0,0.0,0.0,0.0,0.0,0.0,0.0,0.0,0.0,0.0,0.0,0.0,0.0,0.0,0.0,0.0,0.0,0.0,0.0,0.0,0.0,0.0,0.0,0.0,0.0,0.0,0.0,0.0,0.0,0.0,0.0,0.0,0.0,0.0,0.0,0.0,0.0,0.0,0.0,0.0,0.0,0.0,-3.208,-3.4937,-3.7731,-4.0299,-4.0615,-4.0739,-4.0739,-3.6012,-3.3257,0.0,0.0,0.0,0.0,0.0,0.0,0.0,0.0,0.0,0.0,0.0,0.0,0.0,0.0,0.0,0.0,0.0,0.0,0.0,0.0,0.0,0.0,0.0,0.0,0.0,0.0,0.0,0.0,0.0,0.0,0.0,0.0,0.0,0.0,0.0,0.0,0.0,0.0,0.0,0.0,0.0,-2.8194,-2.9126,-2.8515,-2.8002,0.0,0.0,0.0,-3.0195,-3.1405,0.0,0.0,0.0,0.0,0.0,0.0,0.0,0.0,0.0,0.0,0.0,0.0,0.0,0.0,0.0,0.0,0.0,0.0,0.0,0.0,0.0,0.0,0.0,0.0,0.0,0.0,0.0,0.0,0.0,0.0,0.0,0.0,0.0,0.0,0.0,0.0,0.0,0.0,0.0,0.0,0.0,0.0,0.0,0.0,0.0,0.0,0.0,0.0,0.0,0.0,0.0,0.0,0.0,0.0,0.0,-3.1156,-3.2241,-3.6467,-3.929,-4.05,-4.0591,-4.0686,-4.0739,-3.5682,-3.2973,0.0,0.0,0.0,0.0,0.0,0.0,0.0,0.0,0.0,0.0,0.0,0.0,0.0,0.0,0.0,0.0,0.0,0.0,0.0,0.0,0.0,0.0,0.0,0.0,0.0,0.0,0.0,0.0,0.0,0.0,0.0,0.0,0.0,0.0,0.0,0.0,0.0,0.0,0.0,0.0,0.0,0.0,-2.9287,-2.902,0.0,0.0,0.0,-3.0365,-2.9408,0.0,0.0,0.0,0.0,0.0,0.0,0.0,0.0,0.0,0.0,0.0,0.0,0.0,0.0,0.0,0.0,0.0,0.0,0.0,0.0,0.0,0.0,0.0,0.0,0.0,0.0,0.0,0.0,0.0,0.0,0.0,0.0,0.0,0.0,0.0,0.0,0.0,0.0,0.0,0.0,0.0,0.0,0.0,0.0,0.0,0.0,0.0,0.0,0.0,0.0,0.0,0.0,0.0,0.0,0.0,0.0,0.0,-3.2204,-3.7544,-4.0402,-4.0454,-4.0531,-4.0629,-4.0584,-3.6267,0.0,0.0,0.0,0.0,0.0,0.0,0.0,0.0,0.0,0.0,0.0,0.0,0.0,0.0,0.0,0.0,0.0,0.0,0.0,0.0,0.0,0.0,0.0,0.0,0.0,0.0,0.0,-2.2576,0.0,0.0,0.0,0.0,0.0,0.0,0.0,0.0,0.0,0.0,0.0,0.0,0.0,0.0,-2.9548,-2.9626,-2.961,-2.9825,0.0,0.0,-3.0792,-3.0189,-3.2516,-3.3257,0.0,0.0,0.0,0.0,0.0,0.0,0.0,0.0,0.0,0.0,0.0,0.0,0.0,0.0,0.0,0.0,0.0,0.0,0.0,0.0,0.0,0.0,0.0,0.0,0.0,0.0,0.0,0.0,0.0,0.0,0.0,0.0,0.0,0.0,0.0,0.0,0.0,0.0,0.0,0.0,0.0,0.0,0.0,0.0,0.0,0.0,0.0,0.0,0.0,0.0,0.0,0.0,0.0,0.0,0.0,-3.2288,-3.7508,-4.0351,-4.0406,-4.0454,-4.0515,-4.0556,-3.7964,-3.5766,0.0,0.0,0.0,0.0,0.0,0.0,0.0,0.0,0.0,0.0,0.0,0.0,0.0,0.0,0.0,0.0,0.0,0.0,0.0,0.0,0.0,0.0,0.0,0.0,0.0,0.0,0.0,0.0,0.0,0.0,0.0,0.0,0.0,0.0,0.0,0.0,0.0,0.0,0.0,0.0,0.0,-3.0374,-3.0479,-3.0466,-3.1299,0.0,0.0,-3.2593,-3.4807,-3.6626,-3.6438,-3.2311,0.0,0.0,0.0,0.0,0.0,0.0,0.0,0.0,0.0,0.0,0.0,0.0,0.0,0.0,0.0,0.0,0.0,0.0,0.0,0.0,0.0,0.0,0.0,0.0,0.0,0.0,0.0,0.0,0.0,0.0,0.0,0.0,0.0,0.0,0.0,0.0,0.0,0.0,0.0,0.0,0.0,0.0,0.0,0.0,0.0,0.0,0.0,0.0,0.0,0.0,0.0,0.0,0.0,-3.2496,-3.2899,-3.829,-4.1129,-4.1165,-4.1733,-4.203,-4.2056,-3.9129,-3.6727,0.0,0.0,0.0,0.0,0.0,0.0,0.0,0.0,0.0,0.0,0.0,0.0,0.0,0.0,0.0,0.0,0.0,0.0,0.0,0.0,0.0,0.0,0.0,0.0,0.0,0.0,0.0,0.0,-2.6538,-2.6689,-2.6386,0.0,0.0,0.0,0.0,0.0,0.0,0.0,0.0,0.0,0.0,-3.1455,-3.1956,-3.2469,0.0,0.0,-3.396,-3.3843,-3.2761,-3.4947,-3.5106,-3.0386,-3.0102,0.0,0.0,0.0,0.0,0.0,0.0,0.0,0.0,0.0,0.0,0.0,0.0,0.0,0.0,0.0,0.0,0.0,0.0,0.0,0.0,0.0,0.0,0.0,0.0,0.0,0.0,0.0,0.0,0.0,0.0,0.0,0.0,0.0,0.0,0.0,0.0,0.0,0.0,0.0,0.0,0.0,0.0,0.0,0.0,0.0,0.0,0.0,0.0,0.0,0.0,0.0,0.0,-3.3034,-3.3777,-3.8899,-4.1705,-4.1944,-4.2592,-4.2953,-4.2919,-4.0723,-3.8692,0.0,0.0,0.0,0.0,0.0,0.0,0.0,0.0,0.0,0.0,0.0,0.0,0.0,0.0,0.0,0.0,0.0,0.0,0.0,0.0,0.0,0.0,0.0,0.0,0.0,0.0,0.0,0.0,-2.6483,-2.659,-2.6852,0.0,0.0,0.0,0.0,0.0,0.0,0.0,0.0,0.0,0.0,-3.2216,-3.2524,-3.3158,-3.3545,-3.35,-3.4144,-3.4025,-3.2449,-3.4252,-3.4485,-3.0712,0.0,0.0,0.0,0.0,0.0,0.0,0.0,0.0,0.0,0.0,0.0,0.0,0.0,0.0,0.0,0.0,0.0,0.0,0.0,0.0,0.0,0.0,0.0,0.0,0.0,0.0,0.0,0.0,0.0,0.0,0.0,0.0,0.0,0.0,0.0,0.0,0.0,0.0,0.0,0.0,0.0,0.0,0.0,0.0,0.0,0.0,0.0,0.0,0.0,0.0,0.0,0.0,0.0,-3.3961,-3.4812,-3.9252,-4.1944,-4.2757,-4.2795,-4.29,-4.2946,-4.2881,-4.2044,-4.0241,0.0,0.0,0.0,0.0,0.0,0.0,0.0,0.0,0.0,0.0,0.0,0.0,0.0,0.0,0.0,0.0,0.0,0.0,0.0,0.0,0.0,0.0,0.0,0.0,0.0,0.0,-2.367,-2.4703,-2.603,0.0,0.0,0.0,0.0,0.0,0.0,0.0,0.0,0.0,0.0,-3.1344,-3.2617,-3.196,-3.1869,-3.2604,-3.4227,-3.316,-3.295,-3.5209,-3.5659,-3.546,0.0,0.0,0.0,0.0,0.0,0.0,0.0,0.0,0.0,0.0,0.0,0.0,0.0,0.0,0.0,0.0,0.0,0.0,0.0,0.0,0.0,0.0,0.0,0.0,0.0,0.0,0.0,0.0,-2.5443,0.0,0.0,0.0,0.0,0.0,0.0,0.0,0.0,0.0,0.0,0.0,-3.1469,-3.2248,0.0,0.0,0.0,0.0,0.0,0.0,0.0,0.0,0.0,0.0,0.0,0.0,-3.4273,-3.5806,-4.008,-4.2766,-4.3578,-4.423,-4.4527,-4.4547,-4.4067,-4.2705,-4.0389,0.0,0.0,0.0,0.0,0.0,0.0,0.0,0.0,0.0,0.0,0.0,0.0,0.0,0.0,0.0,0.0,0.0,0.0,0.0,0.0,0.0,0.0,0.0,0.0,0.0,-2.7394,0.0,0.0,0.0,0.0,0.0,0.0,0.0,0.0,0.0,0.0,0.0,-3.0681,-3.0893,-3.1656,-3.2333,-3.2547,-3.3127,-3.3945,0.0,0.0,0.0,0.0,0.0,0.0,0.0,0.0,0.0,0.0,0.0,0.0,0.0,0.0,-3.1134,-2.8619,-2.9494,-3.0619,-3.0575,0.0,0.0,0.0,0.0,0.0,0.0,0.0,0.0,0.0,0.0,0.0,0.0,0.0,0.0,0.0,0.0,-2.8559,0.0,0.0,0.0,0.0,0.0,0.0,0.0,0.0,-3.3402,-3.4653,-3.4912,-3.567,-3.5766,0.0,-3.5133,-3.359,0.0,0.0,0.0,0.0,0.0,0.0,0.0,0.0,-3.5324,-3.7086,-4.1081,-4.3624,-4.4437,-4.5051,-4.5378,-4.5339,-4.4892,-4.3685,-4.1722,-3.8972,-3.6995,0.0,0.0,0.0,0.0,0.0,0.0,0.0,0.0,0.0,0.0,0.0,0.0,0.0,0.0,0.0,0.0,0.0,0.0,0.0,0.0,0.0,0.0,0.0,-2.8848,0.0,0.0,0.0,0.0,0.0,0.0,0.0,0.0,0.0,-2.9016,-3.0604,-3.1903,-3.2144,-3.2483,-3.2691,-3.2604,0.0,0.0,0.0,0.0,0.0,0.0,0.0,-3.2694,-3.1073,-3.1738,-3.2664,-3.3214,-3.4148,-3.4522,-3.3671,0.0,0.0,-3.1293,-3.1999,-3.3064,-3.301,-3.3003,-3.3026,-3.2942,-3.2943,-3.2921,0.0,0.0,0.0,0.0,0.0,0.0,0.0,0.0,-3.2914,-3.21,0.0,-3.232,0.0,0.0,0.0,0.0,0.0,0.0,0.0,0.0,-3.9786,-4.1322,-3.9156,-3.9795,-4.0195,-4.008,-3.8507,-3.7707,-3.7442,-3.4375,0.0,0.0,0.0,0.0,0.0,0.0,-3.7002,-3.876,-4.2169,-4.4399,-4.525,-4.5277,-4.5288,-4.5288,-4.5339,-4.5007,-4.4202,-4.2572,-4.0995,-3.9315,-3.6147,0.0,0.0,0.0,0.0,0.0,0.0,0.0,0.0,0.0,0.0,0.0,0.0,0.0,0.0,0.0,0.0,0.0,0.0,0.0,0.0,-2.8985,0.0,0.0,0.0,0.0,0.0,0.0,0.0,0.0,0.0,0.0,-3.065,-3.1259,-3.2023,-3.2816,0.0,0.0,0.0,0.0,-3.2598,-3.1304,-3.1016,-3.1059,-3.1136,-3.2372,-3.3824,-3.5348,0.0,0.0,-3.8174,-3.6859,-3.565,-3.4771,-3.6665,-3.7147,-3.4071,-3.3637,-3.358,-3.3534,-3.3706,-3.3441,-3.3395,-3.4002,-3.381,-3.1553,0.0,0.0,0.0,0.0,-3.0582,-3.2149,-3.4686,-3.4686,-3.4762,-3.4871,-3.5336,0.0,0.0,0.0,0.0,0.0,0.0,-3.6052,-3.758,-3.9881,-4.1179,-4.1705,-4.2497,-4.2601,-4.2028,-4.2085,-4.1846,-4.1235,-4.0291,-3.7681,-3.3488,0.0,0.0,0.0,0.0,-3.7963,-3.9774,-4.2543,-4.4427,-4.5277,-4.5277,-4.5277,-4.5277,-4.5337,-4.5253,-4.5045,-4.4001,-4.2659,-4.105,-3.953,0.0,0.0,0.0,0.0,0.0,0.0,0.0,0.0,0.0,0.0,0.0,0.0,0.0,0.0,0.0,0.0,0.0,0.0,0.0,-3.0687,-3.1503,-3.1488,0.0,0.0,0.0,0.0,0.0,0.0,0.0,0.0,0.0,-3.3153,-3.2362,-3.1937,0.0,0.0,-3.1584,-3.1128,-3.2272,-3.3421,-3.4154,0.0,0.0,0.0,-3.5469,-3.5111,-3.5548,-3.6972,-3.8218,-3.881,-3.9499,-4.0046,-4.0292,-4.1014,-4.1144,-4.03,-3.9092,-3.8522,-3.8969,-3.9162,-3.9361,-3.9843,-4.0002,-3.9908,-3.3769,-3.2727,-3.167,-3.172,-3.2575,-3.2555,-3.4186,-3.6849,-3.6849,-3.6965,-3.7149,-3.7808,-3.655,-3.3917,-3.389,0.0,0.0,0.0,-3.8544,-4.0931,-4.1809,-4.2774,-4.3787,-4.4284,-4.4284,-4.3825,-4.4284,-4.4246,-4.3787,-4.3079,-4.1167,-3.7963,0.0,0.0,-3.4756,-3.7272,-3.9271,-4.0672,-4.3242,-4.4801,-4.5288,-4.5277,-4.5277,-4.5277,-4.5277,-4.5337,-4.5378,-4.4872,-4.4001,-4.2743,-4.1635,-3.9954,0.0,0.0,0.0,0.0,0.0,0.0,0.0,0.0,0.0,0.0,0.0,-2.8541,0.0,0.0,0.0,0.0,-3.0723,-3.1163,-3.2217,-3.2445,0.0,0.0,0.0,0.0,0.0,0.0,0.0,-3.2769,-3.3852,-3.4723,-3.4711,-3.3915,-3.3434,-3.3749,-3.3403,-3.2994,-3.2641,0.0,-3.4894,-3.5581,-3.5674,-3.6028,-3.6975,-3.6875,-3.6803,-3.743,-3.8267,-3.9085,-3.9607,-4.0556,-4.1271,-4.1722,-4.1857,-4.1886,-4.1886,-4.1273,-4.1082,-4.1876,-4.2068,-4.2279,-4.2727,-4.2794,-4.2794,-3.5894,-3.5668,-3.3382,-3.3684,-3.5676,-3.5617,-3.6937,-3.909,-3.912,-3.8722,-3.8247,-3.9704,-3.8716,-3.5926,-3.5968,0.0,0.0,-4.0266,-4.1858,-4.4141,-4.4944,-4.5288,-4.5326,-4.5288,-4.5277,-4.5277,-4.5277,-4.5277,-4.5201,-4.3708,-4.2751,-4.2443,-4.0253,-3.826,-3.6719,-3.904,-4.0664,-4.1398,-4.3894,-4.5214,-4.5288,-4.5288,-4.5326,-4.5326,-4.5298,-4.5298,-4.5337,-4.5351,-4.5055,-4.4298,-4.2881,-4.1654,-4.0669,0.0,0.0,0.0,0.0,0.0,0.0,0.0,0.0,0.0,0.0,0.0,0.0,0.0,0.0,0.0,-3.3088,0.0,-3.3378,-3.2772,0.0,0.0,0.0,-3.4061,-3.5543,-3.5751,-3.5751,-3.5602,0.0,0.0,0.0,0.0,-3.5982,-3.6796,-3.6726,-3.6329,-3.5598,-3.6228,-3.6645,-3.5974,-3.5963,-3.6007,-3.6522,-3.7405,-3.8599,-3.9835,-4.0398,-4.0321,-4.0475,-4.0487,-4.046,-4.0719,-4.0529,-4.0616,-4.054,-4.1237,-4.1896,-4.2738,-4.29,-4.2929,-4.3109,-4.3138,-4.3138,-3.5858,-3.5843,-3.5806,-3.6115,-3.6582,-3.6511,-3.7557,-3.9215,-3.9254,-3.9492,-3.9915,-4.0292,-4.0053,-3.9354,-3.9967,-4.0901,-4.2073,-4.2899,-4.3924,-4.5055,-4.5283,-4.5388,-4.5378,-4.5298,-4.5277,-4.5277,-4.5277,-4.5277,-4.5277,-4.4885,-4.3711,-4.1896,-4.1255,-4.0023,-3.8309,-3.949,-4.0597,-4.1485,-4.2698,-4.3996,-4.525,-4.5367,-4.5388,-4.5388,-4.539,-4.5371,-4.5371,-4.539,-4.5343,-4.5188,-4.4832,-4.3974,-4.2547,-3.9076,0.0,0.0,0.0,0.0,0.0,0.0,0.0,0.0,0.0,-3.0958,-2.8493,0.0,-3.1574,0.0,-3.4784,-3.6895,-3.7586,-3.7469,0.0,0.0,-3.6984,-3.7023,-3.7442,-3.7924,-3.7805,-3.664,-3.699,-3.7309,-3.7309,-3.734,-3.787,-3.9179,-3.7309,-3.5701,-3.5541,-3.6793,-3.762,-3.7504,-3.8361,-3.9246,-3.9169,-3.9498,-3.9862,-4.0248,-4.0327,-4.0529,-4.115,-4.1218,-4.1437,-4.2049,-4.2192,-4.2183,-4.2106,-4.2374,-4.2756,-4.3492,-4.3721,-4.3912,-4.4551,-4.4666,-4.4666,-3.642,-3.6441,-3.7201,-3.7705,-3.7995,-3.754,-3.8096,-3.9284,-3.9323,-3.9746,-4.0516,-4.0516,-4.0731,-4.1083,-4.1558,-4.2386,-4.3519,-4.4018,-4.4652,-4.54,-4.5428,-4.5408,-4.5398,-4.5347,-4.5277,-4.5277,-4.5277,-4.5277,-4.5277,-4.5277,-4.461,-4.3254,-4.3283,-4.2383,-4.0626,-4.0023,-3.9936,-4.0451,-4.1953,-4.3576,-4.5211,-4.5378,-4.5053,-4.4258,-4.425,-4.3934,-4.3148,-4.3203,-4.3256,-4.3291,-4.3308,-4.2948,-4.204,-3.9143,-3.7056,0.0,0.0,0.0,0.0,0.0,0.0,0.0,0.0,0.0,0.0,0.0,-3.405,0.0,-3.7156,0.0,-3.8624,-3.8593,-3.8731,-3.9097,-3.9083,-3.9369,-4.0115,-4.0526,-4.0415,-3.9591,-3.9495,-3.9491,-3.9491,-3.9184,-3.9265,-4.0196,-3.875,-3.764,-3.7702,-3.8462,-3.8999,-3.9013,-3.9747,-4.0372,-4.0345,-4.0327,-4.0309,-4.0309,-4.0329,-4.0454,-4.0883,-4.096,-4.1113,-4.1571,-4.1686,-4.1686,-4.1686,-4.203,-4.2374,-4.2756,-4.3214,-4.3902,-4.501,-4.5277,-4.5277,-3.7269,-3.7299,-3.8058,-3.8754,-3.9348,-3.8625,-3.8768,-3.9477,-3.9438,-3.9861,-4.0516,-4.0516,-4.0969,-4.1808,-4.1923,-4.2829,-4.4294,-4.4409,-4.4813,-4.5419,-4.5409,-4.5456,-4.5561,-4.55,-4.5507,-4.5621,-4.5621,-4.5621,-4.5621,-4.5621,-4.5517,-4.5298,-4.5265,-4.4375,-4.2622,-4.0432,-3.9298,-3.9278,-4.1686,-4.3673,-4.5086,-4.511,-4.4355,-4.29,-4.2747,-4.2017,-4.0572,-4.0491,-4.0523,-4.0515,-4.0569,-4.0714,-4.0917,-3.8548,-3.7255,0.0,-3.5078,0.0,0.0,0.0,0.0,0.0,0.0,0.0,0.0,-3.6765,-3.7156,-3.8131,-3.9478,-3.9879,-3.8846,-3.8777,-3.9369,-4.0837,-4.102,-4.1598,-4.2918,-4.3023,-4.2947,-4.2947,-4.2106,-4.1504,-4.139,-4.0807,-4.0301,-4.0301,-4.0196,-3.9985,-4.0234,-4.0165,-4.0192,-4.0298,-4.0336,-4.0318,-4.032,-4.031,-4.031,-4.0301,-4.0301,-4.0301,-4.0339,-4.0339,-4.0339,-4.0377,-4.0416,-4.0377,-4.0301,-4.0922,-4.138,-4.1571,-4.2183,-4.31,-4.4437,-4.4819,-4.4972,-3.8101,-3.8086,-3.8831,-3.9226,-3.935,-3.9815,-4.0131,-4.0285,-4.0285,-4.0362,-4.0516,-4.0516,-4.0977,-4.1846,-4.2547,-4.3385,-4.4346,-4.5038,-4.5414,-4.5568,-4.5429,-4.5774,-4.6416,-4.6352,-4.6653,-4.7292,-4.7341,-4.7341,-4.733,-4.733,-4.6626,-4.5329,-4.4661,-4.3494,0.0,0.0,0.0,0.0,-4.2468,-4.393,-4.4208,-4.3608,-4.3159,-4.288,-4.2244,0.0,-4.1508,-4.0924,-4.0607,-4.0598,-4.0605,0.0,0.0,0.0,0.0,0.0,0.0,0.0,0.0,0.0,0.0,0.0,-3.9555,-3.8421,-3.7717,-3.764,-3.8268,-3.9703,-4.0107,-4.1016,-4.268,-4.2881,-4.3254,-4.421,-4.4363,-4.4506,-4.4781,-4.4208,-4.3777,-4.3739,-4.245,-4.1504,-4.1533,-4.0807,-4.0339,-4.0416,-4.0339,-4.0301,-4.0377,-4.0358,-4.032,-4.032,-4.032,-4.032,-4.0301,-4.0301,-4.0301,-4.0301,-4.0301,-4.0301,-4.0301,-4.0301,-4.0301,-4.0301,-4.0301,-4.0301,-4.0301,-4.0416,-4.0769,-4.138,-4.1609,-4.2068,-4.3023,-4.3291,-4.3291,-3.8877,0.0,-3.9657,-3.9988,0.0,-4.0339,-4.0516,-4.0516,-4.0516,-4.0739,-4.1123,-4.1162,-4.1854,-4.3047,-4.3508,-4.4162,-4.497,-4.5402,-4.5594,-4.5586,-4.5448,-4.586,-4.6694,-4.6553,-4.6959,-4.7788,-4.7788,-4.7788,-4.7788,-4.7788,-4.739,-4.6532,-4.6171,-4.5541,-4.4729,-4.4288,-4.3216,-4.1504,-4.2736,-4.3825,-4.459,-4.4288,-4.3675,-4.288,0.0,0.0,0.0,0.0,0.0,0.0,0.0,0.0,0.0,0.0,0.0,-4.2906,-4.134,-4.1058,-4.2689,-4.2431,-4.2872,-4.4526,-4.4258,-4.3168,-4.1147,-4.1665,-4.2479,-4.3244,-4.3015,-4.3272,-4.4475,-4.4628,-4.4819,-4.5239,-4.5277,-4.5277,-4.5239,-4.4934,-4.4628,-4.4551,-4.352,-4.2756,-4.2756,-4.203,-4.1571,-4.1533,-4.1533,-4.1495,-4.1447,-4.0798,-4.0301,-4.0301,-4.0301,-4.0301,-4.0301,-4.0301,-4.0301,-4.0301,-4.0301,-4.0301,-4.0301,-4.0301,-4.0301,-4.0301,-4.0301,-4.0301,-4.0301,-4.0301,-4.0425,-4.0807,-4.0922,-4.1036,-4.1533,-4.2221,-4.2794,-3.9771,-3.9953,-4.0566,-4.0908,-4.1054,-4.0985,-4.0939,-4.0939,0.0,0.0,0.0,-4.2038,-4.2854,-4.4278,-4.4316,-4.4778,-4.5594,-4.5594,-4.5594,-4.5586,-4.5601,-4.609,-4.6924,-4.6936,-4.7417,-4.8208,-4.8246,-4.8246,-4.8208,-4.8246,-4.8246,-4.8258,-4.8149,-4.8056,-4.7903,-4.7903,-4.6505,-4.3825,-4.3558,-4.4131,-4.5441,-4.5408,-4.472,-4.3302,-4.3269,-4.2629,-4.1275,-4.107,-4.1038,-4.106,-4.1686,-4.2187,-4.2541,-4.3102,-4.3667,-4.4107,-4.3912,-4.4499,-4.6107,-4.6077,-4.6609,-4.8143,-4.8258,-4.7275,-4.4937,-4.5976,-4.6729,-4.6729,-4.6118,-4.5736,-4.5736,-4.5736,-4.567,-4.5545,-4.5507,-4.5468,-4.5316,-4.5277,-4.5239,-4.5201,-4.4475,-4.4006,-4.3892,-4.3214,-4.2794,-4.2794,-4.2641,-4.2794,-4.2641,-4.1648,-4.0798,-4.0654,-4.0616,-4.054,-4.0339,-4.0301,-4.0301,-4.0301,-4.0301,-4.0301,-4.0301,-4.0301,-4.0301,-4.0301,-4.0301,-4.0301,-4.0301,-4.0301,-4.0301,-4.0301,-4.0301,-4.0301,-4.0416,-4.1371,-4.2259,-4.0913,-4.1593,-4.1693,-4.2125,-4.2747,-4.2739,-4.2739,-4.2662,-4.1931,-4.2124,-4.2931,-4.2931,-4.3431,-4.4316,-4.4316,-4.4778,-4.5594,-4.5594,-4.5594,0.0,-4.6215,-4.6962,-4.7834,-4.8428,-4.9175,-4.9901,-4.9939,-4.9939,-4.9939,-4.9939,-4.9977,-4.9862,-4.9263,-4.8575,-4.7876,-4.7799,-4.757,-4.7101,-4.6347,-4.608,-4.6309,-4.5681,-4.5235,-4.5045,-4.4413,-4.4016,-4.3849,-4.3165,-4.2749,-4.2741,-4.2856,-4.3555,-4.4908,-4.5045,-4.6032,-4.7994,-4.7548,-4.7859,-4.9427,-4.8957,-4.8957,-4.9824,-4.9939,-4.9175,-4.7494,-4.7494,-4.7597,-4.7597,-4.7444,-4.7444,-4.7444,-4.7368,-4.7073,-4.6424,-4.6347,-4.608,-4.543,-4.5277,-4.5277,-4.5277,-4.4551,-4.4045,-4.4006,-4.3405,-4.2947,-4.287,-4.3061,-4.287,-4.2908,-4.2641,-4.2144,-4.1533,-4.1304,-4.1036,-4.0587,-4.0301,-4.0348,-4.0301,-4.031,-4.0301,-4.0301,-4.0301,-4.0301,-4.0301,-4.0301,-4.0301,-4.0301,-4.0301,-4.0301,-4.0301,-4.0301,-4.0301,-4.0301,-4.0645,-4.0769,-4.2239,-4.2533,-4.2548,-4.2755,-4.3085,-4.3085,-4.3355,-4.3701,-4.3355,-4.3355,-4.3739,-4.3739,-4.4201,-4.497,-4.5009,-4.521,-4.5594,-4.5594,-4.5594,-4.5663,-4.6397,-4.7184,-4.8025,-4.8766,-4.9553,-5.0245,-5.0283,-5.0283,-5.0283,-5.0283,-5.0283,-5.0283,-4.9935,-4.9625,-4.9275,-4.9275,-4.9275,-4.9237,-4.7909,-4.7215,-4.7188,-4.6876,-4.6727,-4.673,-4.6416,-4.6302,-4.633,-4.5946,-4.5744,-4.5744,-4.6167,-4.6762,-4.7452,-4.79,-4.8624,-4.9723,-4.9389,-4.948,-5.0245,-4.9939,-4.9901,-5.0283,-5.0283,-4.9977,-4.9213,-4.8754,-4.8487,-4.8487,-4.8105,-4.7788,-4.7788,-4.7788,-4.7635,-4.7253,-4.6806,-4.6347,-4.6003,-4.5545,-4.5277,-4.5239,-4.4972,-4.4704,-4.4704,-4.4399,-4.4169,-4.4169,-4.4169,-4.4131,-4.4131,-4.4162,-4.3723,-4.2537,-4.2221,-4.1924,-4.1187,-4.1016,-4.0815,-4.0424,-4.032,-4.031,-4.0301,-4.0301,-4.0301,-4.0301,-4.0301,-4.0301,-4.0301,-4.0301,-4.0301,-4.0301,-4.0301,-4.0301,-4.0301,-4.0301,-4.0301,-4.3227,-4.3365,-4.3371,-4.347,-4.3662,-4.3662,-4.4008,-4.4547,-4.4594,-4.4586,-4.4586,-4.4586,-4.4979,-4.5556,-4.5594,-4.5594,-4.5594,-4.5594,-4.5594,-4.5701,-4.6608,-4.7395,-4.8074,-4.8941,-4.9728,-5.0245,-5.0283,-5.0283,-5.0283,-5.0333,-5.0344,-5.0367,-5.0401,-5.0457,-5.05,-5.05,-5.05,-5.0423,-4.9111,-4.8406,-4.8384,-4.8417,-4.8439,-4.8449,-4.8492,-4.8562,-4.8572,-4.8572,-4.8572,-4.8552,-4.9126,-4.9471,-4.9461,-5.003,-5.039,-5.0379,-5.0344,-5.0283,-5.0283,-5.0283,-5.0283,-5.0283,-5.0283,-5.0283,-5.0245,-4.9748,-4.9366,-4.9301,-4.8793,-4.8411,-4.8437,-4.8399,-4.8285,-4.8105,-4.7494,-4.6959,-4.6538,-4.5927,-4.5468,-4.5354,-4.5277,-4.5277,-4.5277,-4.5277,-4.5201,-4.5201,-4.5277,-4.5277,-4.5288,-4.5378,-4.4767,-4.3858,-4.3311,-4.2754,-4.1949,-4.1607,-4.1196,-4.046,-4.03,-4.031,-4.0301,-4.0301,-4.0301,-4.0301,-4.0301,-4.0301,-4.0301,-4.0301,-4.0301,-4.0301,-4.0301,-4.0301,-4.0301,-4.0301,-4.0301,-4.355,-4.4132,-4.4209,-4.4671,-4.5287,-4.5325,-4.5364,-4.5441,-4.5479,-4.5479,-4.5441,-4.5479,-4.5479,-4.5594,-4.5594,-4.5594,-4.5594,-4.5594,-4.5594,-4.5778,-4.7184,-4.7943,-4.8151,-4.9543,-5.0302,-5.0321,-5.0359,-5.0397,-5.0371,-5.0367,-5.0424,-5.0478,-5.0489,-5.05,-5.0511,-5.0511,-5.0511,-5.05,-5.0336,-5.0227,-5.0172,-5.0126,-5.0088,-5.0172,-5.0133,-5.0216,-5.0144,-5.027,-5.021,-5.0183,-5.0221,-5.0237,-5.0191,-5.0256,-5.0283,-5.0333,-5.0283,-5.0283,-5.0283,-5.0283,-5.0283,-5.0283,-5.0283,-5.0283,-5.0283,-5.0206,-5.0168,-5.0092,-5.0092,-4.9939,-5.0054,-4.9977,-4.9633,-4.9022,-4.8804,-4.8258,-4.692,-4.6424,-4.6118,-4.5354,-4.5468,-4.5316,-4.5468,-4.543,-4.5364,-4.5441,-4.5316,-4.5277,-4.5288,-4.536,-4.539,-4.5007,-4.4557,-4.3445,-4.2226,-4.1645,-4.1282,-4.0575,-4.03,-4.031,-4.0301,-4.0301,-4.0301,-4.0301,-4.0301,-4.0301,-4.0301,-4.0301,-4.0301,-4.0301,-4.0301,-4.0301,-4.0301,-4.0301,-4.0301,-4.4757,-4.5056,-4.5094,-4.5248,-4.5594,-4.5594,-4.5594,-4.5594,-4.5594,-4.5594,-4.5594,-4.5594,-4.5594,-4.5594,-4.5594,-4.5594,-4.5594,-4.5594,-4.5594,-4.574,-4.7299,-4.8049,-4.8151,-4.9701,-5.0642,-5.1047,-5.1085,-5.1059,-5.1029,-5.0703,-5.0472,-5.0556,-5.0566,-5.0596,-5.0654,-5.0654,-5.0664,-5.0693,-5.0625,-5.0586,-5.0525,-5.0396,-5.0379,-5.039,-5.0379,-5.0367,-5.0352,-5.0363,-5.0379,-5.0356,-5.0356,-5.0344,-5.0283,-5.0283,-5.0283,-5.0283,-5.0283,-5.0283,-5.0283,-5.0283,-5.0283,-5.0283,-5.0283,-5.0283,-5.0283,-5.0283,-5.0283,-5.0283,-5.0283,-5.0283,-5.0283,-5.0283,-5.0168,-4.9824,-4.9404,-4.8793,-4.8181,-4.757,-4.7111,-4.6806,-4.6768,-4.6768,-4.6691,-4.6309,-4.6042,-4.5927,-4.566,-4.5354,-4.5326,-4.535,-4.54,-4.5362,-4.5122,-4.4305,-4.2902,-4.2436,-4.1778,-4.0793,-4.0318,-4.031,-4.0301,-4.0301,-4.0301,-4.0301,-4.0301,-4.0301,-4.0301,-4.0301,-4.0301,-4.0301,-4.0301,-4.0301,-4.0301,-4.0301,-4.0301,-4.5594,-4.5594,-4.5594,-4.5594,-4.5594,-4.5594,-4.5594,-4.5594,-4.5594,-4.5594,-4.5594,-4.5594,-4.5594,-4.5594,-4.5594,-4.5594,-4.5594,-4.5594,-4.5594,-4.5787,-4.7317,-4.8058,-4.8199,-4.9695,-5.0894,-5.1517,-5.1582,-5.1732,-5.194,-5.1278,-5.0901,-5.0943,-5.0789,-5.0729,-5.0829,-5.0846,-5.0808,-5.0791,-5.0756,-5.072,-5.0654,-5.0525,-5.0457,-5.0412,-5.0367,-5.0294,-5.0283,-5.0283,-5.0283,-5.0283,-5.0283,-5.0283,-5.0283,-5.0283,-5.0283,-5.0283,-5.0283,-5.0283,-5.0283,-5.0283,-5.0283,-5.0283,-5.0283,-5.0283,-5.0283,-5.0283,-5.0283,-5.0283,-5.0283,-5.0283,-5.0283,-5.0283,-5.0283,-5.0245,-4.971,-4.9377,-4.9071,-4.8487,-4.8067,-4.7865,-4.7635,-4.7788,-4.7712,-4.7226,-4.6844,-4.6806,-4.6156,-4.5621,-4.5594,-4.5521,-4.5418,-4.5419,-4.5429,-4.4899,-4.3705,-4.3038,-4.2226,-4.1262,-4.0624,-4.0301,-4.0301,-4.0301,-4.0301,-4.0301,-4.0301,-4.0301,-4.0301,-4.0301,-4.0301,-4.0301,-4.0301,-4.0301,-4.0301,-4.0301,-4.0301,-4.5594,-4.5594,-4.5594,-4.5594,-4.5594,-4.5594,-4.5594,-4.5594,-4.5594,-4.5594,-4.5594,-4.5594,-4.5594,-4.5594,-4.5594,-4.5594,-4.5594,-4.5594,-4.5594,-4.5748,-4.7317,-4.8068,-4.8112,-4.9695,-5.0894,-5.167,-5.1735,-5.2138,-5.2839,-5.2218,-5.1876,-5.1895,-5.1284,-5.091,-5.0966,-5.0921,-5.0913,-5.0927,-5.088,-5.0855,-5.0764,-5.0635,-5.0545,-5.0435,-5.0401,-5.0379,-5.0333,-5.0283,-5.0283,-5.0283,-5.0283,-5.0283,-5.0283,-5.0283,-5.0283,-5.0283,-5.0283,-5.0283,-5.0283,-5.0283,-5.0283,-5.0283,-5.0283,-5.0283,-5.0283,-5.0283,-5.0283,-5.0283,-5.0283,-5.0283,-5.0283,-5.0283,-5.0283,-5.0283,-5.0245,-4.9862,-4.9224,-4.9148,-4.864,-4.8143,-4.8017,-4.8094,-4.7941,-4.7788,-4.7761,-4.7559,-4.6997,-4.6385,-4.6243,-4.5827,-4.5475,-4.5418,-4.5381,-4.5122,-4.4344,-4.3434,-4.2544,-4.1579,-4.0768,-4.0339,-4.0301,-4.0301,-4.0339,-4.0339,-4.0301,-4.0301,-4.0301,-4.0301,-4.0301,-4.0301,-4.0301,-4.0301,-4.0301,-4.0301,-4.0301,-4.5594,-4.5594,-4.5594,-4.5594,-4.5594,-4.5594,-4.5594,-4.5594,-4.5594,-4.5594,-4.5594,-4.5594,-4.5594,-4.5594,-4.5594,-4.5594,-4.5594,-4.5594,-4.5594,-4.5787,-4.7317,-4.8087,-4.8173,-4.9716,-5.1223,-5.2291,-5.2408,-5.2889,-5.37,-5.3126,-5.2858,-5.2794,-5.2142,-5.1765,-5.1695,-5.1283,-5.1012,-5.1036,-5.1036,-5.0968,-5.0866,-5.0825,-5.0729,-5.0545,-5.0429,-5.0401,-5.0379,-5.0333,-5.0283,-5.0283,-5.0283,-5.0283,-5.0283,-5.0283,-5.0283,-5.0283,-5.0283,-5.0283,-5.0283,-5.0283,-5.0283,-5.0283,-5.0283,-5.0283,-5.0283,-5.0283,-5.0283,-5.0283,-5.0283,-5.0283,-5.0283,-5.0283,-5.0283,-5.0283,-5.0283,-5.0168,-4.9939,-4.9862,-4.9748,-4.948,-4.9404,-4.9404,-4.9175,-4.8945,-4.864,-4.8487,-4.7417,-4.6691,-4.6385,-4.5833,-4.5406,-4.5398,-4.5418,-4.5323,-4.5103,-4.3723,-4.2546,-4.1714,-4.0988,-4.054,-4.0377,-4.0492,-4.053,-4.0645,-4.0568,-4.0607,-4.0683,-4.054,-4.0492,-4.0416,-4.0416,-4.0301,-4.0301,-4.0301,-4.0301,-4.5594,-4.5594,-4.5594,-4.5594,-4.5594,-4.5594,-4.5594,-4.5594,-4.5594,-4.5594,-4.5594,-4.5594,-4.5594,-4.5594,-4.5594,-4.5787,-4.597,-4.5748,-4.5594,-4.5748,-4.7317,-4.8058,-4.8279,-4.9716,-5.1349,-5.2786,-5.3489,-5.4058,-5.4617,-5.4051,-5.3801,-5.3837,-5.3057,-5.2685,-5.2627,-5.2175,-5.1832,-5.1586,-5.1502,-5.1358,-5.1022,-5.0914,-5.085,-5.0681,-5.0556,-5.0418,-5.0401,-5.0367,-5.0333,-5.0283,-5.0283,-5.0283,-5.0283,-5.0283,-5.0283,-5.0283,-5.0283,-5.0283,-5.0283,-5.0283,-5.0283,-5.0283,-5.0283,-5.0283,-5.0283,-5.0283,-5.0283,-5.0283,-5.0283,-5.0283,-5.0283,-5.0283,-5.0283,-5.0283,-5.0283,-5.0283,-5.0283,-5.0283,-5.0283,-5.0206,-5.0168,-5.0245,-5.0245,-4.9786,-4.9557,-4.9492,-4.822,-4.7341,-4.6882,-4.6233,-4.5555,-4.5406,-4.5378,-4.5339,-4.512,-4.4115,-4.3417,-4.2632,-4.1791,-4.1189,-4.0912,-4.095,-4.095,-4.1036,-4.1074,-4.1065,-4.0998,-4.0845,-4.0731,-4.0654,-4.0454,-4.0301,-4.0301,-4.0301,-4.0301,-4.5594,-4.5594,-4.5594,-4.5594,-4.5594,-4.5594,-4.5594,-4.5594,-4.5594,-4.5594,-4.5594,-4.5594,-4.5633,-4.5671,-4.5787,-4.6124,-4.6663,-4.6201,-4.5864,-4.6009,-4.7471,-4.8174,-4.8251,-4.9841,-5.1491,-5.308,-5.4644,-5.5431,-5.5434,-5.489,-5.4639,-5.4581,-5.4003,-5.3628,-5.3715,-5.3514,-5.3126,-5.2596,-5.2434,-5.2026,-5.121,-5.1068,-5.0983,-5.0874,-5.069,-5.0556,-5.0385,-5.0412,-5.0367,-5.0294,-5.0283,-5.0283,-5.0283,-5.0283,-5.0283,-5.0283,-5.0283,-5.0283,-5.0283,-5.0283,-5.0283,-5.0283,-5.0283,-5.0283,-5.0283,-5.0283,-5.0283,-5.0283,-5.0283,-5.0283,-5.0283,-5.0283,-5.0283,-5.0283,-5.0283,-5.0283,-5.0283,-5.0283,-5.0283,-5.0283,-5.0283,-5.0283,-5.0283,-5.0206,-5.013,-4.9977,-4.9366,-4.8449,-4.7685,-4.6833,-4.6156,-4.5517,-4.5298,-4.5298,-4.502,-4.4628,-4.4284,-4.3825,-4.2985,-4.2297,-4.2144,-4.2106,-4.203,-4.2068,-4.203,-4.203,-4.1953,-4.1762,-4.1418,-4.1266,-4.0845,-4.0416,-4.0301,-4.0301,-4.0301,-4.5594,-4.5594,-4.5594,-4.5594,-4.5594,-4.5594,-4.5594,-4.5594,-4.5594,-4.5594,-4.5594,-4.5594,-4.5941,-4.6432,-4.6509,-4.6971,-4.7663,-4.7432,-4.7317,-4.7509,-4.8471,-4.8962,-4.924,-5.0581,-5.2169,-5.3668,-5.4939,-5.5543,-5.5605,-5.5527,-5.5555,-5.5536,-5.4885,-5.4541,-5.4563,-5.4038,-5.3527,-5.3327,-5.3288,-5.288,-5.2072,-5.1967,-5.1608,-5.0983,-5.085,-5.0708,-5.0566,-5.044,-5.0401,-5.0379,-5.0344,-5.0283,-5.0283,-5.0283,-5.0283,-5.0283,-5.0283,-5.0283,-5.0283,-5.0321,-5.0359,-5.0321,-5.0321,-5.0283,-5.0283,-5.0321,-5.0321,-5.0283,-5.0283,-5.0283,-5.0283,-5.0283,-5.0321,-5.0283,-5.0283,-5.0283,-5.0283,-5.0283,-5.0283,-5.0283,-5.0283,-5.0283,-5.0283,-5.0283,-5.0283,-5.0245,-4.9633,-4.8831,-4.7952,-4.7226,-4.6194,-4.5468,-4.5392,-4.5507,-4.5468,-4.5354,-4.5048,-4.4628,-4.3902,-4.3329,-4.3214,-4.3176,-4.31,-4.3061,-4.3023,-4.2985,-4.2908,-4.2641,-4.2297,-4.1762,-4.1342,-4.0922,-4.0454,-4.0377,-4.0492,-4.5594,-4.5594,-4.5594,-4.5594,-4.5594,-4.5594,-4.5594,-4.5594,-4.5594,-4.5787,-4.6009,-4.6086,-4.6547,-4.7201,-4.7355,-4.7817,-4.8509,-4.8586,-4.8779,-4.9009,-4.9163,-4.9394,-4.9692,-5.138,-5.2855,-5.4099,-5.509,-5.5626,-5.5735,-5.5827,-5.5998,-5.6033,-5.5629,-5.5402,-5.543,-5.4938,-5.4549,-5.4232,-5.4155,-5.3598,-5.2647,-5.2402,-5.1928,-5.1114,-5.0914,-5.0833,-5.0653,-5.0545,-5.044,-5.0412,-5.0344,-5.0283,-5.0283,-5.0283,-5.0283,-5.0283,-5.0321,-5.0436,-5.0703,-5.0818,-5.0971,-5.1123,-5.0971,-5.0768,-5.0741,-5.0588,-5.0321,-5.0283,-5.0283,-5.0283,-5.0321,-5.0665,-5.0627,-5.0321,-5.0283,-5.0283,-5.0283,-5.0283,-5.0283,-5.0283,-5.0283,-5.0283,-5.0283,-5.0283,-5.0283,-5.0206,-4.9862,-4.9251,-4.8449,-4.7876,-4.7073,-4.65,-4.6462,-4.6462,-4.6309,-4.608,-4.5812,-4.5316,-4.4743,-4.436,-4.4093,-4.4131,-4.4093,-4.4131,-4.4131,-4.4169,-4.4093,-4.3558,-4.3138,-4.2526,-4.1953,-4.1342,-4.0922,-4.0883,-4.096,-4.5594,-4.5594,-4.5594,-4.5594,-4.5594,-4.5594,-4.5671,-4.571,-4.5748,-4.6201,-4.6808,-4.6971,-4.7432,-4.8048,-4.8163,-4.8663,-4.9356,-4.9471,-4.9827,-5.0125,-4.9971,-4.9702,-5.0298,-5.2054,-5.3448,-5.4461,-5.5362,-5.5797,-5.6018,-5.6088,-5.6084,-5.6319,-5.6226,-5.6223,-5.613,-5.6214,-5.5747,-5.512,-5.5042,-5.4265,-5.2777,-5.2518,-5.2136,-5.128,-5.1022,-5.0866,-5.0773,-5.0645,-5.0525,-5.0424,-5.0344,-5.0283,-5.0283,-5.0283,-5.0283,-5.0321,-5.0321,-5.0818,-5.1391,-5.162,-5.1888,-5.2422,-5.2002,-5.1608,-5.1417,-5.1047,-5.0703,-5.0562,-5.0638,-5.06,-5.0803,-5.1223,-5.1262,-5.0562,-5.0409,-5.0321,-5.0283,-5.0283,-5.0283,-5.0283,-5.0283,-5.0283,-5.0283,-5.0283,-5.0283,-5.0283,-5.0206,-4.9748,-4.9175,-4.864,-4.8525,-4.8067,-4.7368,-4.7215,-4.6997,-4.6882,-4.6615,-4.6347,-4.5698,-4.5125,-4.4819,-4.4781,-4.4819,-4.4895,-4.4934,-4.5086,-4.501,-4.4399,-4.393,-4.3472,-4.2756,-4.1915,-4.1581,-4.1571,-4.1609,-4.5594,-4.5594,-4.5594,-4.5594,-4.5594,-4.5594,-4.597,-4.6509,-4.6547,-4.7009,-4.7654,-4.7808,-4.8279,-4.9009,-4.9048,-4.9548,-5.0125,-5.0317,-5.0404,-5.0635,-5.0519,-5.1095,-5.1949,-5.2735,-5.3854,-5.5174,-5.611,-5.6648,-5.676,-5.6879,-5.6949,-5.7064,-5.6512,-5.6245,-5.6285,-5.6291,-5.6162,-5.5909,-5.5863,-5.5345,-5.4308,-5.3564,-5.2877,-5.2027,-5.1346,-5.0967,-5.0821,-5.0606,-5.0511,-5.0412,-5.0356,-5.0283,-5.0283,-5.0283,-5.0321,-5.0436,-5.0894,-5.1353,-5.1658,-5.2193,-5.2614,-5.2766,-5.269,-5.2231,-5.1646,-5.1964,-5.1797,-5.1603,-5.1806,-5.2173,-5.2284,-5.2361,-5.2142,-5.148,-5.0773,-5.0294,-5.0283,-5.0283,-5.0283,-5.0283,-5.0283,-5.0283,-5.0283,-5.0283,-5.0283,-5.0283,-5.0245,-5.0092,-4.948,-4.9213,-4.9022,-4.8258,-4.7674,-4.7712,-4.7674,-4.7559,-4.7444,-4.7292,-4.6653,-4.5774,-4.5392,-4.5125,-4.5163,-4.5201,-4.5125,-4.5201,-4.5239,-4.4972,-4.4628,-4.4236,-4.3663,-4.2908,-4.2565,-4.245,-4.245,-4.5594,-4.5594,-4.5594,-4.5825,-4.6124,-4.6163,-4.6624,-4.7317,-4.7423,-4.7855,-4.8509,-4.8663,-4.9125,-4.9894,-4.9971,-5.0202,-5.0664,-5.0702,-5.0673,-5.075,-5.1048,-5.1913,-5.2931,-5.3479,-5.4556,-5.6082,-5.6774,-5.7271,-5.7641,-5.7766,-5.7693,-5.7334,-5.6947,-5.6597,-5.6238,-5.6245,-5.6238,-5.6216,-5.6178,-5.5775,-5.4931,-5.4428,-5.3468,-5.2508,-5.1718,-5.1307,-5.0806,-5.0594,-5.0468,-5.0412,-5.0317,-5.0283,-5.0283,-5.0283,-5.0474,-5.0768,-5.1341,-5.1849,-5.2614,-5.311,-5.3492,-5.3722,-5.3607,-5.3148,-5.2766,-5.2829,-5.2571,-5.2365,-5.2694,-5.2728,-5.2494,-5.2187,-5.1941,-5.1672,-5.0955,-5.039,-5.0317,-5.0333,-5.0283,-5.0283,-5.0283,-5.0283,-5.0283,-5.0283,-5.0283,-5.0283,-5.0283,-5.0054,-4.9748,-4.9595,-4.9442,-4.8869,-4.8629,-4.882,-4.8716,-4.8563,-4.8258,-4.8105,-4.7215,-4.6385,-4.5785,-4.5403,-4.5277,-4.5277,-4.5277,-4.5277,-4.5277,-4.5277,-4.5086,-4.4704,-4.4322,-4.393,-4.351,-4.3482,-4.3482,-4.5594,-4.5594,-4.5671,-4.6163,-4.6808,-4.7009,-4.7471,-4.8163,-4.824,-4.874,-4.9394,-4.9548,-4.9942,-5.0664,-5.051,-5.0664,-5.0702,-5.0702,-5.0779,-5.1087,-5.1664,-5.2577,-5.3454,-5.4062,-5.5314,-5.6799,-5.7206,-5.7863,-5.8443,-5.8664,-5.8324,-5.789,-5.7597,-5.7032,-5.6521,-5.6296,-5.6172,-5.6149,-5.6141,-5.5823,-5.5188,-5.4793,-5.3917,-5.2638,-5.1879,-5.1387,-5.0818,-5.0563,-5.0478,-5.0412,-5.0356,-5.0397,-5.0397,-5.0474,-5.0894,-5.1608,-5.199,-5.269,-5.376,-5.4065,-5.4524,-5.4944,-5.4562,-5.4193,-5.3899,-5.3566,-5.3345,-5.3123,-5.3184,-5.3152,-5.2494,-5.1474,-5.1303,-5.1565,-5.1052,-5.0528,-5.0435,-5.0329,-5.0294,-5.0294,-5.0283,-5.0283,-5.0283,-5.0283,-5.0283,-5.0283,-5.0283,-5.0206,-5.0054,-5.0015,-5.0015,-4.9939,-4.9939,-5.0092,-4.9901,-4.9633,-4.9213,-4.8842,-4.7646,-4.6691,-4.5986,-4.5566,-4.5364,-4.5277,-4.5277,-4.5277,-4.5277,-4.5277,-4.5288,-4.5125,-4.4743,-4.4437,-4.4159,-4.4503,-4.4618,-4.5594,-4.5671,-4.6355,-4.674,-4.7,-4.7586,-4.8317,-4.9125,-4.9125,-4.9586,-5.024,-5.0394,-5.0519,-5.0702,-5.0702,-5.0702,-5.0712,-5.0789,-5.101,-5.1741,-5.2549,-5.3377,-5.4072,-5.4477,-5.5509,-5.6975,-5.7921,-5.8684,-5.9321,-5.9532,-5.9499,-5.9207,-5.8101,-5.7303,-5.7094,-5.6466,-5.6093,-5.6003,-5.5986,-5.5891,-5.5564,-5.5014,-5.4194,-5.3008,-5.1776,-5.0989,-5.0673,-5.0525,-5.0478,-5.0412,-5.0432,-5.0665,-5.1123,-5.1264,-5.1735,-5.2461,-5.3187,-5.3683,-5.4142,-5.4715,-5.5174,-5.5275,-5.5174,-5.4881,-5.4254,-5.4623,-5.4515,-5.4414,-5.4709,-5.4549,-5.3686,-5.255,-5.1847,-5.1626,-5.1115,-5.0566,-5.0542,-5.0446,-5.039,-5.0379,-5.0344,-5.0283,-5.0283,-5.0283,-5.0283,-5.0283,-5.0283,-5.0283,-5.0283,-5.0283,-5.0283,-5.0283,-5.0283,-5.0283,-5.0206,-4.9977,-4.9759,-4.935,-4.828,-4.7488,-4.6745,-4.598,-4.5865,-4.5576,-4.5277,-4.5288,-4.5319,-4.5441,-4.5489,-4.5288,-4.5239,-4.5277,-4.5354,-4.5611,-4.584,-4.6236,-4.6305,-4.7095,-4.7702,-4.8086,-4.8548,-4.9202,-4.9894,-5.001,-5.024,-5.0635,-5.0702,-5.0702,-5.0702,-5.0702,-5.0702,-5.0818,-5.1125,-5.1702,-5.2549,-5.3395,-5.4062,-5.4545,-5.5094,-5.6088,-5.7641,-5.8278,-5.9186,-6.0094,-6.0392,-6.0208,-5.9889,-5.8901,-5.8101,-5.7416,-5.6866,-5.6375,-5.5991,-5.5895,-5.5924,-5.5789,-5.5471,-5.4497,-5.3244,-5.1693,-5.0683,-5.0586,-5.0573,-5.073,-5.0921,-5.0991,-5.1109,-5.1582,-5.1964,-5.2575,-5.3339,-5.376,-5.4371,-5.4753,-5.5097,-5.5352,-5.5403,-5.5403,-5.5173,-5.4929,-5.5246,-5.5339,-5.5259,-5.5371,-5.5316,-5.411,-5.2471,-5.1652,-5.142,-5.1009,-5.0654,-5.0606,-5.0511,-5.0401,-5.039,-5.0356,-5.0333,-5.0283,-5.0283,-5.0283,-5.0283,-5.0283,-5.0283,-5.0283,-5.0283,-5.0283,-5.0283,-5.0283,-5.0283,-5.0283,-5.0206,-5.0115,-4.9706,-4.9078,-4.8537,-4.8081,-4.7228,-4.6403,-4.6038,-4.5684,-4.536,-4.538,-4.5531,-4.592,-4.6046,-4.615,-4.632,-4.6538,-4.6757,-4.691,-4.7088,-4.7187,-4.796,-4.875,-4.9356,-4.9548,-4.9981,-5.0596,-5.0702,-5.0625,-5.0702,-5.0702,-5.0702,-5.0702,-5.0894,-5.0933,-5.1318,-5.1779,-5.2577,-5.3433,-5.4049,-5.4562,-5.494,-5.5625,-5.6647,-5.8327,-5.8538,-5.9455,-6.0606,-6.107,-6.0655,-6.0075,-5.9785,-5.8983,-5.7842,-5.733,-5.6925,-5.6249,-5.6133,-5.5979,-5.5864,-5.571,-5.4919,-5.3599,-5.1914,-5.1172,-5.1142,-5.1073,-5.1146,-5.1813,-5.1993,-5.2035,-5.2179,-5.2575,-5.339,-5.4193,-5.4396,-5.4715,-5.5148,-5.5365,-5.5403,-5.539,-5.539,-5.544,-5.5449,-5.5504,-5.5594,-5.5545,-5.5471,-5.4812,-5.3486,-5.2009,-5.1104,-5.0894,-5.0803,-5.072,-5.0664,-5.0525,-5.0457,-5.0412,-5.0367,-5.0283,-5.0283,-5.0283,-5.0283,-5.0283,-5.0283,-5.0283,-5.0283,-5.0321,-5.0359,-5.0321,-5.0283,-5.0283,-5.0283,-5.0283,-5.023,-4.9996,-4.9559,-4.9269,-4.8928,-4.8056,-4.7126,-4.6502,-4.6109,-4.5966,-4.6071,-4.649,-4.6814,-4.6919,-4.7002,-4.7084,-4.7406,-4.7865,-4.7941,-4.8042,-4.8052,-4.892,-4.9316,-4.9519,-5.0164,-5.0519,-5.0673,-5.0702,-5.0702,-5.0702,-5.0702,-5.0702,-5.0856,-5.1471,-5.2038,-5.2549,-5.2972,-5.3433,-5.4164,-5.4598,-5.487,-5.5499,-5.5721,-5.6831,-5.8018,-5.8587,-5.9484,-6.0712,-6.1003,-6.0866,-6.0583,-6.0029,-5.9309,-5.8846,-5.835,-5.7493,-5.6675,-5.6548,-5.628,-5.5753,-5.5484,-5.5149,-5.4017,-5.2469,-5.2036,-5.2295,-5.2005,-5.1973,-5.2713,-5.3395,-5.3666,-5.3692,-5.3835,-5.4294,-5.4854,-5.5058,-5.5197,-5.5413,-5.5476,-5.5488,-5.5488,-5.5488,-5.5547,-5.5626,-5.5682,-5.5776,-5.5537,-5.4813,-5.3871,-5.3584,-5.1966,-5.1091,-5.0897,-5.0838,-5.0747,-5.0692,-5.0634,-5.0532,-5.05,-5.0374,-5.0283,-5.0283,-5.0283,-5.0283,-5.0283,-5.0283,-5.0283,-5.0283,-5.0359,-5.0474,-5.0397,-5.0283,-5.0283,-5.0283,-5.0283,-5.0268,-5.0172,-4.986,-4.9569,-4.9151,-4.8528,-4.7837,-4.7674,-4.7395,-4.727,-4.7432,-4.7555,-4.765,-4.7754,-4.7816,-4.7876,-4.8246,-4.8678,-4.8831,-4.8987,-4.9007,-4.9795,-5.0096,-5.0173,-5.0481,-5.0702,-5.0702,-5.0702,-5.0702,-5.0702,-5.0702,-5.0702,-5.0894,-5.1548,-5.2587,-5.3587,-5.3895,-5.4357,-5.4972,-5.5175,-5.5312,-5.5787,-5.5817,-5.6916,-5.7988,-5.8539,-5.9379,-6.0876,-6.098,-6.0927,-6.0795,-6.0342,-5.9926,-5.942,-5.8896,-5.8014,-5.7196,-5.6824,-5.6464,-5.5642,-5.527,-5.4754,-5.4199,-5.3346,-5.2905,-5.2982,-5.2935,-5.2982,-5.364,-5.4095,-5.4472,-5.4721,-5.4851,-5.4968,-5.5324,-5.5425,-5.5449,-5.5473,-5.5523,-5.5511,-5.5523,-5.5547,-5.5615,-5.5703,-5.5766,-5.5885,-5.5625,-5.4599,-5.3584,-5.353,-5.1997,-5.1107,-5.0874,-5.0816,-5.0782,-5.0785,-5.0673,-5.0614,-5.0535,-5.0429,-5.034,-5.0283,-5.0283,-5.0283,-5.0283,-5.0321,-5.0359,-5.0397,-5.0703,-5.0971,-5.0971,-5.0971,-5.0818,-5.0741,-5.055,-5.0547,-5.0412,-5.0189,-4.9897,-4.9872,-4.949,-4.9471,-4.9423,-4.9134,-4.873,-4.8269,-4.825,-4.8401,-4.8694,-4.8985,-4.9247,-4.9263,-4.9442,-4.9519,-4.9939,-4.9906,-5.0486,-5.0721,-5.0673,-5.0702,-5.0702,-5.0702,-5.0702,-5.0702,-5.0702,-5.0712,-5.0789,-5.1202,-5.2087,-5.3318,-5.4703,-5.4741,-5.5088,-5.5472,-5.5588,-5.5735,-5.5766,-5.5941,-5.6578,-5.7734,-5.8343,-5.9279,-6.0678,-6.0933,-6.0827,-6.0769,-6.0697,-6.0354,-5.9677,-5.9601,-5.8565,-5.7834,-5.7167,-5.6702,-5.5737,-5.5066,-5.4731,-5.4675,-5.3995,-5.3629,-5.3986,-5.3706,-5.4005,-5.4485,-5.479,-5.4979,-5.5439,-5.5581,-5.5558,-5.5485,-5.5535,-5.5531,-5.5604,-5.5604,-5.5626,-5.5638,-5.5649,-5.5703,-5.5776,-5.5885,-5.5995,-5.5807,-5.487,-5.3785,-5.3468,-5.2183,-5.1262,-5.0882,-5.0841,-5.0799,-5.0829,-5.0767,-5.0673,-5.0576,-5.0483,-5.0446,-5.0417,-5.0344,-5.0356,-5.0512,-5.055,-5.0856,-5.0971,-5.1544,-5.1811,-5.1849,-5.1773,-5.1544,-5.1314,-5.0971,-5.0952,-5.0955,-5.0681,-5.0378,-5.0632,-5.0808,-5.0846,-5.0913,-5.0682,-5.024,-4.9596,-4.9336,-4.9956,-5.0391,-5.05,-5.034,-4.9989,-4.9901,-4.9977,-5.0865,-5.0764,-5.0752,-5.0758,-5.0712,-5.0702,-5.0702,-5.0702,-5.0702,-5.0702,-5.0702,-5.0741,-5.1087,-5.1972,-5.3318,-5.4549,-5.528,-5.5472,-5.5511,-5.5703,-5.5703,-5.5714,-5.5724,-5.5776,-5.6344,-5.7373,-5.8011,-5.9325,-6.047,-6.075,-6.0769,-6.0697,-6.0597,-6.043,-6.0238,-6.0188,-5.9881,-5.9025,-5.8232,-5.7131,-5.585,-5.5473,-5.544,-5.5291,-5.489,-5.467,-5.5094,-5.4843,-5.4872,-5.5499,-5.5614,-5.5661,-5.5766,-5.5766,-5.5766,-5.5745,-5.5724,-5.5724,-5.5825,-5.5845,-5.5845,-5.5807,-5.5827,-5.5905,-5.5971,-5.6059,-5.6157,-5.6132,-5.5246,-5.4456,-5.3768,-5.2763,-5.1834,-5.1409,-5.1244,-5.1189,-5.1095,-5.1515,-5.1356,-5.0924,-5.0932,-5.0713,-5.055,-5.0478,-5.0417,-5.0612,-5.0856,-5.12,-5.162,-5.227,-5.2652,-5.269,-5.2614,-5.2422,-5.1964,-5.162,-5.1576,-5.1552,-5.1354,-5.108,-5.146,-5.1856,-5.2154,-5.2154,-5.1962,-5.1864,-5.1498,-5.1495,-5.1902,-5.182,-5.1545,-5.0991,-5.0359,-5.0359,-5.0512,-5.1023,-5.0913,-5.0846,-5.0758,-5.0673,-5.0702,-5.0702,-5.0702,-5.0702,-5.0702,-5.0702,-5.0702,-5.1395,-5.2587,-5.351,-5.4472,-5.5434,-5.5703,-5.5703,-5.5703,-5.5703,-5.5703,-5.5714,-5.5773,-5.6186,-5.6956,-5.7879,-5.8792,-5.9908,-6.0503,-6.0699,-6.0623,-6.0546,-6.0493,-6.052,-6.0572,-6.0098,-5.9249,-5.8192,-5.6956,-5.6032,-5.5745,-5.5766,-5.5835,-5.5451,-5.5614,-5.5709,-5.5745,-5.559,-5.595,-5.5904,-5.5895,-5.5885,-5.5856,-5.5847,-5.5923,-5.5932,-5.5923,-5.5904,-5.5932,-5.5941,-5.595,-5.5968,-5.6051,-5.6101,-5.6164,-5.6216,-5.6192,-5.5402,-5.4767,-5.428,-5.353,-5.2949,-5.2445,-5.2073,-5.215,-5.2172,-5.2275,-5.2298,-5.1837,-5.1405,-5.1296,-5.1103,-5.0856,-5.0926,-5.125,-5.1544,-5.1849,-5.2422,-5.3072,-5.3378,-5.3531,-5.3454,-5.3301,-5.2805,-5.2346,-5.2379,-5.2411,-5.2368,-5.2231,-5.2431,-5.2779,-5.3018,-5.3266,-5.3217,-5.3168,-5.3185,-5.3009,-5.2823,-5.2625,-5.2426,-5.1909,-5.1403,-5.1123,-5.1123,-5.0984,-5.0921,-5.0846,-5.0767,-5.0673,-5.0702,-5.0702,-5.0702,-5.0702,-5.0702,-5.0779,-5.0971,-5.1856,-5.301,-5.3549,-5.4472,-5.5665,-5.5703,-5.5703,-5.5703,-5.5703,-5.5703,-5.5714,-5.5752,-5.6022,-5.6714,-5.7445,-5.8346,-5.9146,-5.9816,-6.0316,-6.0572,-6.052,-6.0533,-6.0585,-6.0622,-6.0323,-5.9551,-5.8305,-5.7226,-5.6435,-5.6068,-5.5991,-5.5989,-5.5995,-5.6046,-5.6046,-5.607,-5.607,-5.6046,-5.6059,-5.6025,-5.6007,-5.5986,-5.6012,-5.6037,-5.6062,-5.607,-5.6046,-5.6037,-5.6037,-5.6054,-5.607,-5.6133,-5.6187,-5.6223,-5.6245,-5.6251,-5.5758,-5.5271,-5.4815,-5.4181,-5.3685,-5.342,-5.3241,-5.3404,-5.3481,-5.3331,-5.3086,-5.2607,-5.2281,-5.2192,-5.1945,-5.1475,-5.1511,-5.1861,-5.2193,-5.2614,-5.3263,-5.4027,-5.4218,-5.4409,-5.4333,-5.4218,-5.3913,-5.3479,-5.3425,-5.3192,-5.3188,-5.3272,-5.3388,-5.3524,-5.3695,-5.3953,-5.421,-5.4353,-5.433,-5.3947,-5.359,-5.3418,-5.3207,-5.2968,-5.2626,-5.2231,-5.1849,-5.0959,-5.088,-5.0799,-5.0758,-5.0702,-5.0702,-5.0702,-5.0702,-5.0702,-5.0702,-5.0779,-5.1395,-5.2125,-5.3087,-5.3818,-5.4626,-5.5626,-5.5703,-5.5703,-5.5703,-5.5703,-5.5703,-5.5703,-5.5703,-5.5752,-5.6022,-5.6857,-5.7703,-5.8412,-5.9302,-5.9945,-6.0508,-6.0559,-6.0635,-6.071,-6.0754,-6.0443,-5.9765,-5.8848,-5.8065,-5.7241,-5.6687,-5.6325,-5.6256,-5.6219,-5.6211,-5.6211,-5.6203,-5.6172,-5.6157,-5.6149,-5.6141,-5.6117,-5.6133,-5.6149,-5.6164,-5.6202,-5.6248,-5.6311,-5.6257,-5.6172,-5.6172,-5.618,-5.6194,-5.6231,-5.6238,-5.6251,-5.6272,-5.5973,-5.5673,-5.5179,-5.4715,-5.4444,-5.4265,-5.418,-5.4172,-5.4133,-5.397,-5.3726,-5.3347,-5.3157,-5.3059,-5.2993,-5.2587,-5.2391,-5.274,-5.376,-5.418,-5.4562,-5.5174,-5.5212,-5.5288,-5.5212,-5.5135,-5.5097,-5.474,-5.423,-5.3922,-5.3843,-5.3993,-5.4154,-5.4269,-5.4418,-5.4691,-5.4948,-5.5216,-5.532,-5.481,-5.4403,-5.4214,-5.4013,-5.3785,-5.339,-5.2919,-5.2702,-5.0952,-5.091,-5.0803,-5.073,-5.0702,-5.0702,-5.0702,-5.0702,-5.0702,-5.0702,-5.0712,-5.1048,-5.1625,-5.2472,-5.3318,-5.4164,-5.4972,-5.5511,-5.5626,-5.5703,-5.5703,-5.5703,-5.5703,-5.5703,-5.5703,-5.5906,-5.6588,-5.7412,-5.825,-5.898,-5.9876,-6.0455,-6.0673,-6.071,-6.0793,-6.0888,-6.0558,-6.0062,-5.9594,-5.8992,-5.8294,-5.7962,-5.7691,-5.7675,-5.7056,-5.6994,-5.687,-5.6412,-5.6272,-5.6241,-5.6272,-5.6265,-5.6233,-5.6202,-5.6255,-5.6301,-5.6329,-5.6576,-5.6854,-5.6647,-5.629,-5.6251,-5.6251,-5.6297,-5.6388,-5.6311,-5.6278,-5.6278,-5.6304,-5.6044,-5.5828,-5.5683,-5.5529,-5.525,-5.5157,-5.5141,-5.5125,-5.5117,-5.4865,-5.4737,-5.4275,-5.3954,-5.3876,-5.3752,-5.3654,-5.3734,-5.4804,-5.5708,-5.5976,-5.6091,-5.6052,-5.5861,-5.5747,-5.5479,-5.5365,-5.511,-5.4855,-5.4689,-5.4496,-5.4635,-5.4748,-5.5025,-5.5151,-5.5423,-5.5463,-5.5375,-5.5363,-5.5389,-5.5185,-5.484,-5.4689,-5.4575,-5.4142,-5.3658,-5.3491,-5.0906,-5.0838,-5.0749,-5.0702,-5.0712,-5.0702,-5.0702,-5.0702,-5.0702,-5.0702,-5.0702,-5.0712,-5.1164,-5.1962,-5.2856,-5.3703,-5.4587,-5.528,-5.5588,-5.5703,-5.5703,-5.5703,-5.5703,-5.5703,-5.5703,-5.5868,-5.628,-5.7027,-5.8224,-5.8812,-5.9731,-6.0458,-6.085,-6.0872,-6.0916,-6.0963,-6.0842,-6.0483,-6.0042,-5.9809,-5.9142,-5.8793,-5.8622,-5.8551,-5.8025,-5.7839,-5.773,-5.7428,-5.6992,-5.6805,-5.665,-5.6495,-5.6347,-5.6238,-5.6368,-5.6537,-5.6744,-5.7114,-5.7496,-5.7496,-5.7068,-5.7256,-5.7217,-5.7023,-5.6758,-5.6686,-5.6719,-5.633,-5.6427,-5.6601,-5.6633,-5.6798,-5.704,-5.6909,-5.6901,-5.6885,-5.6853,-5.6828,-5.6471,-5.6155,-5.5845,-5.5742,-5.5658,-5.5643,-5.5275,-5.5186,-5.5492,-5.6358,-5.6893,-5.6931,-5.6778,-5.6473,-5.6129,-5.5785,-5.5441,-5.525,-5.511,-5.511,-5.4995,-5.5122,-5.5312,-5.5463,-5.5463,-5.5415,-5.5428,-5.5377,-5.539,-5.5376,-5.5389,-5.535,-5.5211,-5.5045,-5.4955,-5.4508,-5.4367,-5.0838,-5.0701,-5.0693,-5.0712,-5.0702,-5.0702,-5.0702,-5.0702,-5.0702,-5.0702,-5.0702,-5.0712,-5.1087,-5.1885,-5.2702,-5.3587,-5.4357,-5.5241,-5.5703,-5.5703,-5.5703,-5.5703,-5.5703,-5.5703,-5.5703,-5.5703,-5.6011,-5.678,-5.8269,-5.8429,-5.9386,-6.0481,-6.0959,-6.0982,-6.1012,-6.1137,-6.1195,-6.1151,-6.046,-6.022,-5.9941,-5.9429,-5.9204,-5.9063,-5.8784,-5.8668,-5.8551,-5.8366,-5.7923,-5.7589,-5.7508,-5.7281,-5.6783,-5.6667,-5.6945,-5.7496,-5.7535,-5.7962,-5.8661,-5.87,-5.87,-5.8428,-5.8156,-5.8078,-5.769,-5.7502,-5.734,-5.6991,-5.7178,-5.7476,-5.7772,-5.8062,-5.8273,-5.8304,-5.8219,-5.8157,-5.8078,-5.7981,-5.7514,-5.7168,-5.7643,-5.8004,-5.7874,-5.7647,-5.7162,-5.6855,-5.6639,-5.6969,-5.7657,-5.7772,-5.7581,-5.7008,-5.6587,-5.5938,-5.5594,-5.5441,-5.5365,-5.5403,-5.5377,-5.5403,-5.5403,-5.5415,-5.5403,-5.5377,-5.539,-5.5377,-5.5402,-5.5389,-5.5425,-5.5473,-5.5499,-5.5373,-5.5384,-5.532,-5.504,-5.0829,-5.0692,-5.0693,-5.0702,-5.0702,-5.0702,-5.0702,-5.0702,-5.0702,-5.0702,-5.0702,-5.0702,-5.0779,-5.1433,-5.2549,-5.3433,-5.3857,-5.5203,-5.5703,-5.5703,-5.5703,-5.5703,-5.5703,-5.5703,-5.5703,-5.5703,-5.5818,-5.6665,-5.828,-5.8385,-5.9402,-6.0562,-6.1118,-6.1127,-6.1164,-6.1208,-6.1234,-6.126,-6.1027,-6.0895,-6.0848,-6.0514,-6.024,-6.0157,-5.9693,-5.9461,-5.9422,-5.9141,-5.8723,-5.8404,-5.8401,-5.8188,-5.7845,-5.7806,-5.8001,-5.835,-5.8428,-5.8778,-5.9593,-5.9982,-5.9859,-5.9399,-5.8933,-5.8855,-5.8428,-5.8389,-5.8195,-5.8001,-5.8117,-5.8382,-5.8492,-5.8563,-5.8672,-5.8665,-5.8612,-5.8575,-5.8529,-5.8493,-5.8249,-5.7986,-5.8215,-5.8256,-5.8234,-5.8501,-5.8257,-5.8268,-5.8077,-5.8116,-5.8651,-5.8612,-5.8459,-5.7619,-5.6969,-5.6243,-5.5747,-5.5517,-5.539,-5.5403,-5.5403,-5.5403,-5.5403,-5.539,-5.5403,-5.5403,-5.5403,-5.539,-5.5439,-5.5461,-5.5531,-5.5604,-5.5581,-5.5558,-5.5508,-5.547,-5.542,-5.0803,-5.0673,-5.0683,-5.0702,-5.0702,-5.0702,-5.0702,-5.0702,-5.0702,-5.0702,-5.0702,-5.0712,-5.0933,-5.1471,-5.2472,-5.351,-5.3741,-5.5011,-5.5703,-5.5703,-5.5703,-5.5703,-5.5703,-5.5703,-5.5703,-5.5742,-5.6165,-5.6973,-5.828,-5.8638,-5.9637,-6.0789,-6.1389,-6.163,-6.1646,-6.15,-6.1225,-6.1267,-6.1181,-6.1148,-6.1122,-6.1048,-6.1031,-6.0848,-6.0519,-6.022,-6.0094,-5.9809,-5.942,-5.9312,-5.9233,-5.9114,-5.8965,-5.8855,-5.8972,-5.9127,-5.9982,-6.0487,-6.1497,-6.1924,-6.1614,-6.0604,-5.9982,-5.9555,-5.936,-5.9244,-5.8972,-5.8894,-5.9127,-5.9244,-5.9322,-5.9322,-5.9625,-5.9657,-5.959,-5.9592,-5.952,-5.9511,-5.9399,-5.91,-5.8904,-5.8796,-5.8704,-5.8945,-5.9147,-5.9338,-5.9491,-5.9529,-5.9491,-5.9376,-5.9033,-5.8154,-5.739,-5.6664,-5.5976,-5.5479,-5.539,-5.539,-5.5504,-5.5632,-5.539,-5.539,-5.539,-5.5403,-5.5415,-5.5427,-5.5499,-5.557,-5.5626,-5.561,-5.5599,-5.5615,-5.5593,-5.5593,-5.5593,-5.0729,-5.0721,-5.0712,-5.0702,-5.0702,-5.0702,-5.0702,-5.0702,-5.0702,-5.0702,-5.0702,-5.0702,-5.0971,-5.1818,-5.2769,-5.3549,-5.4318,-5.5203,-5.5588,-5.5703,-5.5703,-5.5703,-5.5703,-5.5703,-5.5818,-5.6099,-5.656,-5.733,-5.8369,-5.9314,-6.0267,-6.1148,-6.1901,-6.2191,-6.2162,-6.1988,-6.1715,-6.1819,-6.1763,-6.164,-6.1495,-6.1244,-6.1155,-6.0969,-6.0794,-6.0738,-6.075,-6.0703,-6.0437,-6.0265,-6.0088,-5.9622,-5.9262,-5.8926,-5.9431,-6.0332,-6.1762,-6.2694,-6.3323,-6.3517,-6.3323,-6.2274,-6.1808,-6.1109,-6.0448,-6.0137,-5.9904,-5.9827,-6.0021,-6.0176,-6.0293,-6.0791,-6.1218,-6.1158,-6.1019,-6.0957,-6.0881,-6.078,-6.065,-6.0431,-6.0238,-6.0085,-5.9876,-6.0002,-5.9835,-5.9873,-5.9988,-6.0026,-5.9988,-6.0064,-5.9529,-5.8421,-5.7695,-5.7084,-5.6434,-5.5861,-5.5747,-5.5861,-5.6014,-5.6091,-5.5785,-5.5556,-5.5556,-5.5568,-5.5466,-5.5463,-5.557,-5.5638,-5.5682,-5.5692,-5.5682,-5.5632,-5.5649,-5.566,-5.5671,-5.0224,-5.0673,-5.0683,-5.0702,-5.0702,-5.0702,-5.0702,-5.0702,-5.0702,-5.0702,-5.0702,-5.0702,-5.0933,-5.1164,-5.2549,-5.3241,-5.4087,-5.4857,-5.5511,-5.5703,-5.5703,-5.5703,-5.5742,-5.5818,-5.606,-5.6522,-5.7088,-5.7857,-5.9072,-6.0096,-6.1029,-6.1939,-6.2258,-6.2663,-6.2952,-6.2941,-6.2905,-6.281,-6.2741,-6.2334,-6.1983,-6.1803,-6.1477,-6.1224,-6.1097,-6.1119,-6.1125,-6.1147,-6.0954,-6.097,-6.0932,-6.0701,-6.067,-6.06,-6.095,-6.1842,-6.2897,-6.3674,-6.3937,-6.4022,-6.3906,-6.375,-6.3323,-6.2391,-6.1575,-6.107,-6.0953,-6.107,-6.1264,-6.1575,-6.1691,-6.2041,-6.2298,-6.2199,-6.1927,-6.1505,-6.1339,-6.1108,-6.0933,-6.0734,-6.0572,-6.0633,-6.0499,-6.0485,-6.0332,-6.0384,-6.0422,-6.0499,-6.046,-6.046,-5.9911,-5.8803,-5.8192,-5.7581,-5.6969,-5.6396,-5.632,-5.632,-5.6549,-5.6664,-5.6473,-5.6243,-5.5976,-5.5862,-5.5886,-5.5765,-5.5621,-5.5818,-5.6242,-5.5818,-5.5769,-5.5742,-5.5703,-5.578,-5.5742,-4.9564,-5.02,-5.0211,-5.0375,-5.0673,-5.0702,-5.0702,-5.0702,-5.0702,-5.0702,-5.0702,-5.0702,-5.1058,-5.1856,-5.2818,-5.3626,-5.4434,-5.5164,-5.5703,-5.5703,-5.5742,-5.6011,-5.6049,-5.628,-5.678,-5.728,-5.7896,-5.8627,-5.9611,-6.0487,-6.1373,-6.2159,-6.2478,-6.3196,-6.3758,-6.4197,-6.4405,-6.4108,-6.375,-6.3172,-6.2791,-6.25,-6.2105,-6.1785,-6.167,-6.1644,-6.1666,-6.1681,-6.1639,-6.1911,-6.2043,-6.1961,-6.2095,-6.2305,-6.2718,-6.3526,-6.4047,-6.4691,-6.5025,-6.511,-6.4838,-6.4566,-6.445,-6.3711,-6.3051,-6.2546,-6.2507,-6.2546,-6.2896,-6.3168,-6.3206,-6.3199,-6.3177,-6.3115,-6.2469,-6.1772,-6.1476,-6.1162,-6.0893,-6.0674,-6.0634,-6.0693,-6.0714,-6.079,-6.1019,-6.1363,-6.1325,-6.1019,-6.0828,-6.0599,-6.0026,-5.9071,-5.8612,-5.8192,-5.7581,-5.7122,-5.7122,-5.7122,-5.7275,-5.7313,-5.716,-5.6982,-5.6766,-5.6588,-5.6472,-5.6387,-5.6374,-5.6731,-5.7011,-5.6626,-5.6511,-5.678,-5.6588,-5.6049,-5.5972,-4.8717,-4.9448,-4.9468,-5.0018,-5.0635,-5.0702,-5.0702,-5.0702,-5.0702,-5.0702,-5.0702,-5.0702,-5.152,-5.2433,-5.3087,-5.401,-5.478,-5.5472,-5.5703,-5.5742,-5.5972,-5.628,-5.6714,-5.7099,-5.7627,-5.8357,-5.8973,-5.9292,-5.9765,-6.0553,-6.1406,-6.2249,-6.2993,-6.3746,-6.4653,-6.5179,-6.5282,-6.5037,-6.4347,-6.3681,-6.3412,-6.3232,-6.314,-6.2987,-6.2937,-6.2963,-6.2912,-6.2817,-6.2579,-6.299,-6.3168,-6.2935,-6.3261,-6.3753,-6.433,-6.4752,-6.507,-6.5538,-6.5911,-6.6042,-6.5809,-6.5537,-6.5265,-6.4877,-6.4411,-6.3595,-6.3401,-6.3478,-6.3711,-6.3983,-6.4061,-6.4046,-6.4016,-6.3773,-6.321,-6.2694,-6.2354,-6.1819,-6.1209,-6.1019,-6.0925,-6.1072,-6.1593,-6.1745,-6.1822,-6.2319,-6.228,-6.1822,-6.1325,-6.0943,-6.0255,-5.9453,-5.8994,-5.8651,-5.8345,-5.7963,-5.7963,-5.8039,-5.8154,-5.8116,-5.8001,-5.7837,-5.7634,-5.7392,-5.7148,-5.7282,-5.7351,-5.7566,-5.7742,-5.7742,-5.7742,-5.805,-5.7703,-5.6934,-5.6665,-4.7956,-4.8725,-4.9281,-4.998,-5.0635,-5.0702,-5.0702,-5.0702,-5.0702,-5.0702,-5.0702,-5.0789,-5.1279,-5.2356,-5.3087,-5.401,-5.478,-5.5511,-5.5665,-5.6011,-5.628,-5.683,-5.7214,-5.778,-5.8434,-5.9011,-5.9511,-5.9919,-6.0365,-6.09,-6.1643,-6.2898,-6.3426,-6.3984,-6.5167,-6.5666,-6.5663,-6.5461,-6.5092,-6.4471,-6.4112,-6.3918,-6.38,-6.3378,-6.3124,-6.3267,-6.3245,-6.3194,-6.3164,-6.3356,-6.3415,-6.3487,-6.3661,-6.4367,-6.4802,-6.5174,-6.5743,-6.6134,-6.633,-6.6508,-6.6314,-6.6275,-6.6081,-6.6042,-6.5576,-6.4605,-6.4139,-6.4294,-6.445,-6.476,-6.4908,-6.4924,-6.4854,-6.4446,-6.3979,-6.3603,-6.318,-6.2421,-6.1633,-6.1464,-6.1367,-6.176,-6.2357,-6.2624,-6.2701,-6.2739,-6.2777,-6.2433,-6.1822,-6.1363,-6.0842,-6.0078,-5.9376,-5.9033,-5.8842,-5.8842,-5.8842,-5.9046,-5.9237,-5.9084,-5.888,-5.8615,-5.84,-5.8081,-5.7874,-5.8112,-5.8197,-5.8115,-5.828,-5.8588,-5.8704,-5.8858,-5.8704,-5.805,-5.7896,-4.7146,-4.7935,-4.9029,-4.9749,-5.0135,-5.0519,-5.0702,-5.0702,-5.0702,-5.0702,-5.0779,-5.1087,-5.1702,-5.251,-5.3395,-5.4164,-5.4972,-5.5472,-5.5983,-5.6406,-5.6791,-5.7522,-5.8011,-5.8588,-5.9319,-5.9896,-6.005,-6.0419,-6.08,-6.0943,-6.1559,-6.2752,-6.3164,-6.3937,-6.5139,-6.5444,-6.5618,-6.545,-6.545,-6.5212,-6.4834,-6.4714,-6.4609,-6.4111,-6.4035,-6.4078,-6.4033,-6.4064,-6.4078,-6.4354,-6.4674,-6.4809,-6.4986,-6.5306,-6.5548,-6.5768,-6.6123,-6.642,-6.6477,-6.6508,-6.6501,-6.6501,-6.6508,-6.6314,-6.6275,-6.546,-6.5382,-6.5498,-6.5537,-6.577,-6.5755,-6.5778,-6.5738,-6.5493,-6.4706,-6.4061,-6.3469,-6.2759,-6.2358,-6.2275,-6.2333,-6.26,-6.3121,-6.3465,-6.3618,-6.4038,-6.3923,-6.3083,-6.2471,-6.1774,-6.1291,-6.0641,-5.9901,-5.9658,-5.9682,-5.9696,-5.9696,-5.9939,-6.0119,-5.9993,-5.9714,-5.9408,-5.9128,-5.891,-5.8856,-5.911,-5.9119,-5.905,-5.9319,-5.9742,-5.9665,-5.9588,-5.9358,-5.9204,-5.9204,-4.6513,-4.7298,-4.869,-4.9373,-4.9567,-5.0327,-5.0702,-5.0702,-5.0702,-5.0779,-5.1048,-5.1769,-5.25,-5.3241,-5.4087,-5.4934,-5.5472,-5.5626,-5.6175,-5.6753,-5.7137,-5.8011,-5.8858,-5.9627,-6.0127,-6.0435,-6.0627,-6.0666,-6.0793,-6.0908,-6.1254,-6.2077,-6.2835,-6.3604,-6.4381,-6.5039,-6.5479,-6.542,-6.539,-6.5429,-6.539,-6.5413,-6.5276,-6.5314,-6.5429,-6.542,-6.5241,-6.5134,-6.5114,-6.5396,-6.5704,-6.5803,-6.5856,-6.5915,-6.6051,-6.6224,-6.6242,-6.6403,-6.6461,-6.6485,-6.6493,-6.6454,-6.6501,-6.6508,-6.6547,-6.647,-6.6431,-6.6392,-6.6431,-6.6423,-6.6408,-6.6384,-6.6342,-6.6224,-6.5332,-6.4552,-6.3886,-6.3291,-6.3207,-6.3097,-6.3274,-6.3503,-6.39,-6.4244,-6.455,-6.5046,-6.4779,-6.3938,-6.3126,-6.2404,-6.1729,-6.1092,-6.0313,-6.0248,-6.0335,-6.0349,-6.03,-6.0315,-6.0431,-6.052,-6.0508,-6.015,-5.9906,-5.9852,-5.985,-5.995,-6.0089,-6.0073,-6.0419,-6.0562,-6.0396,-6.0165,-6.0204,-6.0165,-6.0435,-4.648,-4.7185,-4.8128,-4.8878,-4.9527,-5.0375,-5.0702,-5.0702,-5.0702,-5.1048,-5.1702,-5.251,-5.3126,-5.328,-5.4126,-5.4934,-5.5626,-5.578,-5.6291,-5.6907,-5.7742,-5.8627,-5.9435,-6.0127,-6.0589,-6.0742,-6.0781,-6.0781,-6.0781,-6.0858,-6.1204,-6.2012,-6.2835,-6.3565,-6.4342,-6.5001,-6.5465,-6.5405,-6.5413,-6.5413,-6.5413,-6.5413,-6.5413,-6.5413,-6.5413,-6.5465,-6.5475,-6.5441,-6.5615,-6.5844,-6.6151,-6.6278,-6.6485,-6.6544,-6.6622,-6.6738,-6.6718,-6.6755,-6.6838,-6.6841,-6.6888,-6.6858,-6.6866,-6.678,-6.6742,-6.6664,-6.6586,-6.647,-6.6462,-6.6446,-6.6431,-6.6389,-6.6376,-6.6312,-6.5765,-6.5177,-6.4588,-6.4326,-6.4149,-6.4044,-6.4015,-6.4412,-6.4832,-6.5038,-6.5053,-6.5374,-6.5403,-6.4523,-6.3479,-6.2818,-6.2218,-6.1465,-6.075,-6.0584,-6.0546,-6.0699,-6.0674,-6.0687,-6.08,-6.1092,-6.1115,-6.0784,-6.0589,-6.0404,-6.0492,-6.058,-6.0745,-6.0657,-6.0712,-6.0739,-6.0754,-6.0704,-6.0781,-6.0781,-6.0781]},{"header":{"parameterUnit":"m.s-1","parameterCategory":1,"la1":31.0,"la2":29.5877,"lo1":-88.7671,"lo2":-86.6584,"dy":0.0162,"dx":0.0185,"nx":115,"ny":88,"refTime":"2023-03-02T06:00:00:Z","depth":0,"parameterNumber":3,"parameterNumberName":"V-component_of_WINDS"},"data":[0.0,0.0,0.0,0.0,0.0,0.0,0.0,0.0,0.0,0.0,0.0,0.0,0.0,0.0,0.0,0.0,0.0,0.0,0.0,0.0,0.0,0.0,0.0,0.0,0.0,0.0,0.0,0.0,0.0,0.0,0.0,0.0,0.0,0.0,0.0,0.0,0.0,0.0,0.0,0.0,0.0,0.0,0.0,0.0,0.0,0.0,0.0,0.0,0.0,0.0,0.0,0.0,0.0,0.0,0.0,0.0,0.0,0.0,0.0,0.0,0.0,0.0,0.0,0.0,0.0,0.0,0.0,0.0,0.0,0.0,0.0,0.0,0.0,0.0,0.0,0.0,0.0,0.0,0.0,0.0,0.0,0.0,0.0,0.0,0.0,0.0,0.0,0.0,0.0,0.0,0.0,0.0,0.0,0.0,0.0,0.0,0.0,0.0,0.0,0.0,0.0,0.0,0.0,0.0,0.0,0.0,0.0,0.0,0.0,0.0,0.0,0.0,0.0,0.0,0.0,0.0,0.0,0.0,0.0,0.0,0.0,0.0,0.0,0.0,0.0,0.0,0.0,0.0,0.0,0.0,0.0,0.0,0.0,0.0,0.0,0.0,0.0,0.0,0.0,0.0,0.0,0.0,0.0,0.0,0.0,0.0,0.0,0.0,0.0,0.0,0.0,0.0,0.0,0.0,0.0,0.0,0.0,0.0,0.0,0.0,0.0,0.0,0.0,0.0,0.0,0.0,0.0,0.0,0.0,0.0,0.0,0.0,0.0,0.0,0.0,0.0,0.0,0.0,0.0,0.0,0.0,0.0,0.0,0.0,0.0,0.0,0.0,0.0,0.0,0.0,0.0,0.0,0.0,0.0,0.0,0.0,0.0,0.0,0.0,0.0,0.0,0.0,0.0,0.0,0.0,0.0,0.0,0.0,0.0,0.0,0.0,0.0,0.0,0.0,0.0,0.0,0.0,0.0,0.0,0.0,0.0,0.0,0.0,0.0,0.0,0.0,0.0,0.0,0.0,0.0,0.0,0.0,0.0,0.0,0.0,0.0,0.0,0.0,0.0,0.0,0.0,0.0,0.0,0.0,0.0,0.0,0.0,0.0,0.0,0.0,0.0,0.0,0.0,0.0,0.0,0.0,0.0,0.0,0.0,0.0,0.0,0.0,0.0,0.0,0.0,0.0,0.0,0.0,0.0,0.0,0.0,0.0,0.0,0.0,0.0,0.0,0.0,0.0,0.0,0.0,0.0,0.0,0.0,0.0,0.0,0.0,0.0,0.0,0.0,0.0,0.0,0.0,0.0,0.0,0.0,0.0,0.0,0.0,0.0,0.0,0.0,0.0,0.0,0.0,0.0,0.0,0.0,0.0,0.0,0.0,0.0,0.0,0.0,0.0,0.0,0.0,0.0,0.0,0.0,0.0,0.0,0.0,0.0,0.0,0.0,0.0,0.0,0.0,0.0,0.0,0.0,0.0,0.0,0.0,0.0,0.0,0.0,0.0,0.0,0.0,0.0,0.0,0.0,0.0,0.0,0.0,0.0,0.0,0.0,0.0,0.0,0.0,0.0,0.0,0.0,0.0,0.0,0.0,0.0,0.0,0.0,0.0,0.0,0.0,0.0,0.0,0.0,0.0,0.0,0.0,0.0,0.0,0.0,0.0,0.0,0.0,0.0,0.0,0.0,0.0,0.0,0.0,0.0,0.0,0.0,0.0,0.0,0.0,0.0,0.0,0.0,0.0,0.0,0.0,0.0,0.0,0.0,0.0,0.0,0.0,0.0,0.0,0.0,0.0,0.0,0.0,0.0,0.0,0.0,0.0,0.0,0.0,0.0,0.0,0.0,0.0,0.0,0.0,0.0,0.0,0.0,0.0,0.0,0.0,0.0,0.0,0.0,0.0,0.0,0.0,0.0,0.0,0.0,0.0,0.0,0.0,0.0,0.0,0.0,0.0,0.0,0.0,0.0,0.0,0.0,0.0,0.0,0.0,0.0,0.0,0.0,0.0,0.0,0.0,0.0,0.0,0.0,0.0,0.0,0.0,0.0,0.0,0.0,0.0,0.0,0.0,0.0,0.0,0.0,0.0,0.0,0.0,0.0,0.0,0.0,0.0,0.0,0.0,0.0,0.0,0.0,0.0,0.0,0.0,0.0,0.0,0.0,0.0,0.0,0.0,0.0,0.0,0.0,0.0,0.0,0.0,0.0,0.0,0.0,0.0,0.0,0.0,0.0,0.0,0.0,0.0,0.0,0.0,0.0,0.0,0.0,0.0,0.0,0.0,0.0,0.0,0.0,0.0,0.0,0.0,0.0,0.0,0.0,0.0,0.0,0.0,0.0,0.0,0.0,0.0,0.0,0.0,0.0,0.0,0.0,0.0,0.0,0.0,0.0,0.0,0.0,0.0,0.0,0.0,0.0,0.0,0.0,0.0,0.0,0.0,0.0,0.0,0.0,0.0,0.0,0.0,0.0,0.0,0.0,0.0,0.0,0.0,0.0,0.0,0.0,0.0,0.0,0.0,0.0,0.0,0.0,0.0,0.0,0.0,0.0,0.0,0.0,0.0,0.0,0.0,0.0,0.0,0.0,0.0,0.0,0.0,0.0,0.0,0.0,0.0,0.0,0.0,0.0,0.0,0.0,0.0,0.0,0.0,0.0,0.0,0.0,0.0,0.0,0.0,0.0,0.0,0.0,0.0,0.0,0.0,0.0,0.0,0.0,0.0,0.0,0.0,0.0,0.0,0.0,0.0,0.0,0.0,0.0,0.0,0.0,0.0,0.0,0.0,0.0,0.0,0.0,0.0,0.0,0.0,0.0,0.0,0.0,0.0,0.0,0.0,0.0,0.0,0.0,0.0,0.0,0.0,0.0,0.0,0.0,0.0,0.0,0.0,0.0,0.0,0.0,0.0,0.0,0.0,0.0,0.0,0.0,0.0,0.0,0.0,0.0,0.0,0.0,0.0,0.0,0.0,0.0,0.0,0.0,0.0,0.0,0.0,0.0,0.0,0.0,0.0,0.0,0.0,0.0,0.0,0.0,0.0,0.0,0.0,0.0,0.0,0.0,0.0,0.0,0.0,0.0,0.0,0.0,0.0,0.0,0.0,0.0,0.0,0.0,0.0,0.0,0.0,0.0,0.0,0.0,0.0,0.0,0.0,0.0,0.0,0.0,0.0,0.0,0.0,0.0,0.0,0.0,0.0,0.0,0.0,0.0,0.0,0.0,0.0,0.0,0.0,0.0,0.0,0.0,0.0,0.0,0.0,0.0,0.0,0.0,0.0,0.0,0.0,0.0,0.0,0.0,0.0,0.0,0.0,0.0,0.0,0.0,0.0,0.0,0.0,0.0,0.0,0.0,0.0,0.0,0.0,0.0,0.0,0.0,0.0,0.0,0.0,0.0,0.0,0.0,0.0,0.0,0.0,0.0,0.0,0.0,0.0,0.0,0.0,0.0,0.0,0.0,0.0,0.0,0.0,0.0,0.0,0.0,0.0,0.0,0.0,0.0,0.0,0.0,0.0,0.0,0.0,0.0,0.0,0.0,0.0,0.0,0.0,0.0,0.0,0.0,0.0,0.0,0.0,0.0,0.0,0.0,0.0,0.0,0.0,0.0,0.0,0.0,0.0,0.0,0.0,0.0,0.0,0.0,0.0,0.0,0.0,0.0,0.0,0.0,0.0,0.0,0.0,0.0,0.0,0.0,0.0,0.0,0.0,0.0,0.0,0.0,0.0,0.0,0.0,0.0,0.0,0.0,0.0,0.0,0.0,0.0,0.0,0.0,0.0,0.0,0.0,0.0,0.0,0.0,0.0,0.0,0.0,0.0,0.0,0.0,0.0,0.0,0.0,0.0,0.0,0.0,0.0,0.0,0.0,0.0,0.0,0.0,0.0,0.0,0.0,0.0,0.0,0.0,0.0,0.0,0.0,0.0,0.0,0.0,0.0,0.0,0.0,0.0,0.0,0.0,0.0,0.0,0.0,0.0,0.0,0.0,0.0,0.0,0.0,0.0,0.0,0.0,0.0,0.0,0.0,0.0,0.0,0.0,0.0,0.0,0.0,0.0,0.0,0.0,0.0,0.0,0.0,0.0,0.0,0.0,0.0,0.0,0.0,0.0,0.0,0.0,0.0,0.0,0.0,0.0,0.0,0.0,0.0,0.0,0.0,0.0,0.0,0.0,0.0,0.0,0.0,0.0,0.0,0.0,0.0,0.0,0.0,0.0,0.0,0.0,0.0,0.0,0.0,0.0,0.0,0.0,0.0,0.0,0.0,0.0,0.0,-0.1587,0.0,0.0,0.0,0.0,0.0,0.0,0.0,0.0,0.0,0.0,0.0,0.0,0.0,0.0,0.0,0.0,0.0,0.0,0.0,0.0,0.0,0.0,0.0,0.0,0.0,0.0,0.0,0.0,0.0,0.0,0.0,0.0,0.0,0.0,0.0,0.0,0.0,0.0,0.0,0.0,0.0,0.0,0.0,0.0,0.0,0.0,0.0,0.0,0.0,0.0,0.0,0.0,0.0,0.0,0.0,0.0,0.0,0.0,0.0,0.0,0.0,0.0,0.0,0.0,0.0,0.0,0.0,0.0,0.0,0.0,0.0,0.0,0.0,0.0,0.0,0.0,0.0,0.0,0.0,0.0,0.0,0.0,0.0,0.0,0.0,0.0,0.0,0.0,0.0,0.0,0.0,0.0,0.0,0.0,0.0,0.0,0.0,0.0,0.0,0.0,0.0,0.0,0.0,0.0,0.0,0.0,0.0,0.0,0.0,0.0,-0.2775,-0.2206,-0.1701,-0.1483,-0.1592,0.0,0.0,0.0,0.0,0.0,0.0,0.0,0.0,0.0,0.0,0.0,0.0,0.0,0.0,0.0,0.0,0.0,0.0,0.0,0.0,0.0,0.0,0.0,0.0,0.0,0.0,0.0,0.0,0.0,0.0,0.0,0.0,0.0,0.0,0.0,0.0,0.0,0.0,0.0,0.0,0.0,0.0,0.0,0.0,0.0,0.0,0.0,0.0,0.0,0.0,0.0,0.0,0.0,0.0,0.0,0.0,0.0,0.0,0.0,0.0,0.0,0.0,0.0,0.0,0.0,0.0,0.0,0.0,0.0,0.0,0.0,0.0,0.0,0.0,0.0,0.0,0.0,0.0,0.0,0.0,0.0,0.0,0.0,0.0,0.0,0.0,0.0,0.0,0.0,0.0,0.0,0.0,0.0,0.0,0.0,0.0,0.0,0.0,0.0,0.0,0.0,0.0,0.0,0.0,0.0,0.0,0.0,0.0,0.0,0.0,0.0,0.0,-0.1382,-0.1298,-0.1701,0.0,0.0,0.0,0.0,0.0,0.0,0.0,0.0,0.0,0.0,0.0,0.0,0.0,0.0,0.0,0.0,0.0,0.0,0.0,0.0,0.0,0.0,0.0,0.0,0.0,0.0,0.0,0.0,0.0,0.0,0.0,0.0,0.0,0.0,0.0,0.0,0.0,0.0,0.0,0.0,0.0,0.0,0.0,0.0,0.0,0.0,0.0,0.0,0.0,0.0,0.0,0.0,0.0,0.0,0.0,0.0,0.0,0.0,0.0,0.0,0.0,0.0,0.0,0.0,0.0,0.0,0.0,0.0,0.0,0.0,0.0,0.0,0.0,0.0,0.0,0.0,0.0,0.0,0.0,0.0,0.0,0.0,0.0,0.0,0.0,0.0,0.0,0.0,0.0,0.0,0.0,0.0,0.0,0.0,0.0,0.0,0.0,0.0,0.0,0.0,0.0,0.0,0.0,0.0,0.0,0.0,0.0,0.0,0.0,0.0,-0.2679,-0.2599,-0.2251,0.0,-0.2014,0.0,0.0,0.0,0.0,0.0,0.0,0.0,0.0,0.0,0.0,0.0,0.0,0.0,0.0,0.0,0.0,0.0,0.0,0.0,0.0,0.0,0.0,0.0,0.0,0.0,0.0,0.0,0.0,0.0,0.0,0.0,0.0,0.0,0.0,0.0,0.0,0.0,0.0,0.0,0.0,0.0,0.0,0.0,0.0,0.0,0.0,0.0,0.0,0.0,0.0,0.0,0.0,0.0,0.0,0.0,0.0,0.0,0.0,0.0,0.0,0.0,0.0,0.0,0.0,0.0,0.0,0.0,0.0,0.0,0.0,0.0,0.0,0.0,0.0,0.0,0.0,0.0,0.0,0.0,0.0,0.0,0.0,0.0,0.0,0.0,0.0,0.0,0.0,0.0,0.0,0.0,0.0,0.0,0.0,0.0,0.0,0.0,0.0,0.0,0.0,0.0,0.0,0.0,0.0,0.0,0.0,0.0,0.0,0.0,0.0,-0.2491,-0.2066,-0.2348,-0.2382,0.0,0.0,0.0,0.0,0.0,0.0,0.0,0.0,0.0,0.0,0.0,0.0,0.0,0.0,0.0,0.0,0.0,0.0,0.0,0.0,0.0,0.0,0.0,0.0,0.0,0.0,0.0,0.0,0.0,0.0,0.0,0.0,0.0,0.0,0.0,0.0,0.0,0.0,0.0,0.0,0.0,0.0,0.0,0.0,0.0,0.0,0.0,0.0,0.0,0.0,0.0,0.0,0.0,0.0,0.0,0.0,0.0,0.0,0.0,0.0,0.0,0.0,0.0,0.0,0.0,0.0,0.0,0.0,0.0,0.0,0.0,0.0,0.0,0.0,0.0,0.0,0.0,0.0,0.0,0.0,0.0,0.0,0.0,0.0,0.0,0.0,0.0,0.0,0.0,0.0,0.0,0.0,0.0,0.0,0.0,0.0,0.0,0.0,0.0,0.0,0.0,0.0,0.0,0.0,0.0,0.0,0.0,0.0,0.0,0.0,-0.2749,-0.2457,-0.2038,-0.2481,-0.2644,-0.245,0.0,0.0,0.0,0.0,0.0,0.0,0.0,0.0,0.0,0.0,0.0,0.0,0.0,0.0,0.0,0.0,0.0,0.0,0.0,0.0,0.0,0.0,0.0,0.0,0.0,0.0,0.0,0.0,0.0,0.0,0.0,0.0,0.0,0.0,0.0,0.0,0.0,0.0,0.0,0.0,0.0,0.0,0.0,0.0,0.0,0.0,0.0,0.0,0.0,0.0,0.0,0.0,0.0,0.0,0.0,0.0,0.0,0.0,0.0,0.0,0.0,0.0,0.0,0.0,0.0,0.0,0.0,0.0,0.0,0.0,0.0,0.0,0.0,0.0,0.0,0.0,0.0,0.0,0.0,0.0,0.0,0.0,0.0,0.0,0.0,0.0,0.0,0.0,0.0,0.0,0.0,0.0,0.0,0.0,0.0,0.0,0.0,0.0,0.0,0.0,0.0,0.0,0.0,0.0,0.0,0.0,0.0,0.0,-0.3871,-0.3032,-0.2719,-0.2927,-0.2852,-0.2799,0.0,0.0,0.0,0.0,0.0,0.0,0.0,0.0,0.0,0.0,0.0,0.0,0.0,0.0,0.0,0.0,0.0,0.0,0.0,0.0,0.0,0.0,0.0,0.0,0.0,0.0,0.0,0.0,0.0,0.0,0.0,0.0,0.0,0.0,0.0,0.0,0.0,0.0,0.0,0.0,0.0,0.0,0.0,0.0,0.0,0.0,0.0,0.0,0.0,0.0,0.0,0.0,0.0,0.0,0.0,0.0,0.0,0.0,0.0,0.0,0.0,0.0,0.0,0.0,0.0,0.0,0.0,0.0,0.0,0.0,0.0,0.0,0.0,0.0,0.0,0.0,0.0,0.0,0.0,0.0,0.0,0.0,0.0,0.0,0.0,0.0,0.0,0.0,0.0,0.0,0.0,0.0,0.0,0.0,0.0,0.0,0.0,0.0,0.0,0.0,0.0,0.0,0.0,0.0,0.0,0.0,0.0,0.0,0.0,-0.3345,-0.2693,-0.2671,-0.334,-0.302,-0.284,0.0,0.0,0.0,0.0,0.0,0.0,0.0,0.0,0.0,0.0,0.0,0.0,0.0,0.0,0.0,0.0,0.0,0.0,0.0,0.0,0.0,0.0,0.0,0.0,0.0,0.0,0.0,0.0,0.0,0.0,0.0,0.0,0.0,0.0,0.0,0.0,0.0,0.0,0.0,0.0,0.0,0.0,0.0,0.0,0.0,0.0,0.0,0.0,0.0,0.0,0.0,0.0,0.0,0.0,0.0,0.0,0.0,0.0,0.0,0.0,0.0,0.0,0.0,0.0,0.0,0.0,0.0,0.0,0.0,0.0,0.0,0.0,0.0,0.0,0.0,0.0,0.0,0.0,0.0,0.0,0.0,0.0,0.0,0.0,0.0,0.0,0.0,0.0,0.0,0.0,0.0,0.0,0.0,0.0,0.0,0.0,0.0,0.0,0.0,0.0,0.0,0.0,0.0,0.0,0.0,0.0,0.0,0.0,0.0,-0.3024,0.0,-0.284,-0.3342,-0.3019,-0.2878,0.0,0.0,0.0,0.0,0.0,0.0,0.0,0.0,0.0,0.0,0.0,0.0,0.0,0.0,0.0,0.0,0.0,0.0,0.0,0.0,0.0,0.0,0.0,0.0,0.0,0.0,0.0,0.0,0.0,0.0,0.0,0.0,0.0,0.0,0.0,0.0,0.0,0.0,0.0,0.0,0.0,0.0,0.0,0.0,0.0,0.0,0.0,0.0,0.0,0.0,0.0,0.0,0.0,0.0,0.0,0.0,0.0,0.0,0.0,0.0,0.0,0.0,0.0,0.0,0.0,0.0,0.0,0.0,0.0,0.0,0.0,0.0,0.0,0.0,0.0,0.0,0.0,0.0,0.0,0.0,0.0,0.0,0.0,0.0,0.0,0.0,0.0,0.0,0.0,0.0,0.0,0.0,0.0,0.0,0.0,0.0,0.0,0.0,0.0,0.0,0.0,0.0,0.0,0.0,0.0,0.0,0.0,0.0,-0.3654,-0.3074,-0.3281,-0.3263,-0.2926,-0.2889,-0.2911,0.0,0.0,0.0,0.0,0.0,0.0,0.0,0.0,0.0,0.0,0.0,0.0,0.0,0.0,0.0,0.0,0.0,0.0,0.0,0.0,0.0,0.0,0.0,0.0,0.0,0.0,0.0,0.0,0.0,0.0,0.0,0.0,0.0,0.0,0.0,0.0,0.0,0.0,0.0,0.0,0.0,0.0,0.0,0.0,0.0,0.0,0.0,0.0,0.0,0.0,0.0,0.0,0.0,0.0,0.0,0.0,0.0,0.0,0.0,0.0,0.0,0.0,0.0,0.0,0.0,0.0,0.0,0.0,0.0,0.0,0.0,0.0,0.0,0.0,0.0,0.0,0.0,0.0,0.0,0.0,0.0,0.0,0.0,0.0,0.0,0.0,0.0,0.0,0.0,0.0,0.0,0.0,0.0,0.0,0.0,0.0,0.0,0.0,0.0,0.0,0.0,0.0,0.0,0.0,0.0,0.0,0.0,0.0,0.0,-0.4388,-0.4093,-0.3879,-0.3705,-0.3021,-0.2877,0.0,0.0,0.0,0.0,0.0,0.0,0.0,0.0,0.0,0.0,0.0,0.0,0.0,0.0,0.0,0.0,0.0,0.0,0.0,0.0,0.0,0.0,0.0,0.0,0.0,0.0,0.0,0.0,0.0,0.0,0.0,0.0,0.0,0.0,0.0,0.0,0.0,0.0,0.0,0.0,0.0,0.0,0.0,0.0,0.0,0.0,0.0,0.0,0.0,0.0,0.0,0.0,0.0,0.0,0.0,0.0,0.0,0.0,0.0,0.0,0.0,0.0,0.0,0.0,0.0,0.0,0.0,0.0,0.0,0.0,0.0,0.0,0.0,0.0,0.0,0.0,0.0,0.0,0.0,0.0,0.0,0.0,0.0,0.0,0.0,0.0,0.0,0.0,0.0,0.0,0.0,0.0,0.0,0.0,0.0,0.0,0.0,0.0,0.0,0.0,0.0,0.0,0.0,0.0,0.0,0.0,0.0,0.0,0.0,-0.5888,-0.5131,-0.4407,-0.3772,-0.3243,-0.3088,-0.3368,0.0,0.0,0.0,0.0,0.0,0.0,0.0,0.0,0.0,0.0,0.0,0.0,0.0,0.0,0.0,0.0,0.0,0.0,0.0,0.0,0.0,0.0,0.0,0.0,0.0,0.0,0.0,0.0,0.0,0.0,0.0,0.0,0.0,0.0,0.0,0.0,0.0,0.0,0.0,0.0,0.0,0.0,0.0,0.0,0.0,0.0,0.0,0.0,0.0,0.0,0.0,0.0,0.0,0.0,0.0,0.0,0.0,0.0,0.0,0.0,0.0,0.0,0.0,0.0,0.0,0.0,0.0,0.0,0.0,0.0,0.0,0.0,0.0,0.0,0.0,0.0,0.0,0.0,0.0,0.0,0.0,0.0,0.0,0.0,0.0,0.0,0.0,0.0,0.0,0.0,0.0,0.0,0.0,0.0,0.0,0.0,0.0,0.0,0.0,0.0,0.0,0.0,0.0,0.0,0.0,0.0,0.0,0.0,-0.7409,-0.6289,-0.4898,-0.3355,-0.361,-0.3547,0.0,0.0,0.0,0.0,0.0,0.0,0.0,0.0,0.0,0.0,0.0,0.0,0.0,0.0,0.0,0.0,0.0,0.0,0.0,0.0,0.0,0.0,0.0,0.0,0.0,0.0,0.0,0.0,0.0,0.0,0.0,0.0,0.0,0.0,0.0,0.0,0.0,0.0,0.0,0.0,0.0,0.0,0.0,0.0,0.0,0.0,0.0,0.0,0.0,0.0,0.0,0.0,0.0,0.0,0.0,0.0,0.0,0.0,0.0,0.0,0.0,0.0,0.0,0.0,0.0,0.0,0.0,0.0,0.0,0.0,0.0,0.0,0.0,0.0,0.0,0.0,0.0,0.0,0.0,0.0,0.0,0.0,0.0,0.0,0.0,0.0,0.0,0.0,0.0,0.0,0.0,0.0,0.0,0.0,0.0,0.0,0.0,0.0,0.0,0.0,0.0,0.0,0.0,0.0,0.0,0.0,0.0,0.0,0.0,-0.7456,-0.6808,-0.5783,-0.4293,-0.3868,-0.3698,0.0,0.0,0.0,0.0,0.0,0.0,0.0,0.0,0.0,0.0,0.0,0.0,0.0,0.0,0.0,0.0,0.0,0.0,0.0,0.0,0.0,0.0,0.0,0.0,0.0,0.0,0.0,0.0,0.0,0.0,0.0,0.0,0.0,0.0,0.0,0.0,0.0,0.0,0.0,0.0,0.0,0.0,0.0,0.0,0.0,0.0,0.0,0.0,0.0,0.0,0.0,0.0,0.0,0.0,0.0,0.0,0.0,0.0,0.0,0.0,0.0,0.0,0.0,0.0,0.0,0.0,0.0,0.0,0.0,0.0,0.0,0.0,0.0,0.0,0.0,0.0,0.0,0.0,0.0,0.0,0.0,0.0,0.0,0.0,0.0,0.0,0.0,0.0,0.0,0.0,0.0,0.0,0.0,0.0,0.0,0.0,0.0,0.0,0.0,0.0,0.0,0.0,0.0,0.0,0.0,0.0,0.0,0.0,-0.748,-0.7509,-0.6714,-0.5805,-0.486,-0.4311,-0.4071,0.0,0.0,0.0,0.0,0.0,0.0,0.0,0.0,0.0,0.0,0.0,0.0,0.0,0.0,0.0,0.0,0.0,0.0,0.0,0.0,0.0,0.0,0.0,0.0,0.0,0.0,0.0,0.0,0.0,0.0,0.0,0.0,0.0,0.0,0.0,0.0,0.0,0.0,0.0,0.0,0.0,0.0,0.0,0.0,0.0,0.0,0.0,0.0,0.0,0.0,0.0,0.0,0.0,0.0,0.0,0.0,0.0,0.0,0.0,0.0,0.0,0.0,0.0,0.0,0.0,0.0,0.0,0.0,0.0,0.0,0.0,0.0,0.0,0.0,0.0,0.0,0.0,0.0,0.0,0.0,0.0,0.0,0.0,0.0,0.0,0.0,0.0,0.0,0.0,0.0,0.0,0.0,0.0,0.0,0.0,0.0,0.0,0.0,0.0,0.0,0.0,0.0,0.0,0.0,0.0,0.0,0.0,0.0,-0.7163,-0.7379,-0.6144,-0.5427,-0.5196,-0.4735,-0.4432,0.0,0.0,0.0,0.0,0.0,0.0,0.0,0.0,0.0,0.0,0.0,0.0,0.0,0.0,0.0,0.0,0.0,0.0,0.0,0.0,0.0,0.0,0.0,0.0,0.0,0.0,0.0,0.0,0.0,0.0,0.0,0.0,0.0,0.0,0.0,0.0,0.0,0.0,0.0,0.0,0.0,0.0,0.0,0.0,0.0,0.0,0.0,0.0,0.0,0.0,0.0,0.0,0.0,0.0,0.0,0.0,0.0,0.0,0.0,0.0,0.0,0.0,0.0,0.0,0.0,0.0,0.0,0.0,0.0,0.0,0.0,0.0,0.0,0.0,0.0,0.0,0.0,0.0,0.0,0.0,0.0,0.0,0.0,0.0,0.0,0.0,0.0,0.0,0.0,0.0,0.0,0.0,0.0,0.0,0.0,0.0,0.0,0.0,0.0,0.0,0.0,0.0,0.0,0.0,0.0,0.0,0.0,0.0,-0.7171,-0.6866,-0.597,-0.5464,-0.5372,-0.4598,-0.429,0.0,0.0,0.0,0.0,0.0,0.0,0.0,0.0,0.0,0.0,0.0,0.0,0.0,0.0,0.0,0.0,0.0,0.0,0.0,0.0,0.0,0.0,0.0,0.0,0.0,0.0,0.0,0.0,0.0,0.0,0.0,0.0,0.0,0.0,0.0,0.0,0.0,0.0,0.0,0.0,0.0,0.0,0.0,0.0,0.0,0.0,0.0,0.0,-0.1917,0.0,0.0,0.0,0.0,0.0,0.0,0.0,0.0,0.0,0.0,0.0,0.0,0.0,0.0,0.0,0.0,0.0,0.0,0.0,0.0,0.0,0.0,0.0,0.0,0.0,0.0,0.0,0.0,0.0,0.0,0.0,0.0,0.0,0.0,0.0,0.0,0.0,0.0,0.0,0.0,0.0,0.0,0.0,0.0,0.0,0.0,0.0,0.0,0.0,0.0,0.0,0.0,0.0,0.0,0.0,0.0,0.0,0.0,0.0,-0.7064,-0.6528,-0.5703,-0.5308,-0.5388,-0.4662,-0.448,0.0,0.0,0.0,0.0,0.0,0.0,0.0,0.0,0.0,0.0,0.0,0.0,0.0,0.0,0.0,0.0,0.0,0.0,0.0,0.0,0.0,0.0,0.0,0.0,0.0,0.0,0.0,0.0,0.0,0.0,0.0,0.0,0.0,0.0,0.0,0.0,0.0,0.0,0.0,0.0,0.0,0.0,0.0,0.0,0.0,0.0,0.0,0.0,0.0,0.0,0.0,0.0,0.0,0.0,0.0,0.0,0.0,0.0,0.0,0.0,0.0,0.0,0.0,0.0,0.0,0.0,0.0,0.0,0.0,0.0,0.0,0.0,0.0,0.0,0.0,0.0,0.0,0.0,0.0,0.0,0.0,0.0,0.0,0.0,0.0,0.0,0.0,0.0,0.0,0.0,0.0,0.0,0.0,0.0,0.0,0.0,0.0,0.0,0.0,0.0,0.0,0.0,0.0,0.0,0.0,0.0,0.0,-0.7515,-0.6956,-0.6257,-0.5454,-0.5146,-0.5408,-0.4869,-0.4817,-0.5278,0.0,0.0,0.0,0.0,0.0,0.0,0.0,0.0,0.0,0.0,0.0,0.0,0.0,0.0,0.0,0.0,0.0,0.0,0.0,0.0,0.0,0.0,0.0,0.0,0.0,0.0,0.0,0.0,0.0,0.0,0.0,0.0,0.0,0.0,0.0,0.0,0.0,0.0,-0.0027,0.0413,0.0,0.0,0.0,0.0,0.0,0.0,0.0,0.0,-0.1687,0.0,0.0,0.0,0.0,0.0,0.0,0.0,0.0,0.0,0.0,0.0,0.0,0.0,0.0,0.0,0.0,0.0,0.0,0.0,0.0,0.0,0.0,0.0,0.0,0.0,0.0,0.0,0.0,0.0,0.0,0.0,0.0,0.0,0.0,0.0,0.0,0.0,0.0,0.0,0.0,0.0,0.0,0.0,0.0,0.0,0.0,0.0,0.0,0.0,0.0,0.0,0.0,0.0,0.0,0.0,0.0,-0.7976,-0.7519,-0.6866,-0.5984,-0.5545,-0.5374,-0.5408,-0.5147,-0.5095,-0.5278,0.0,0.0,0.0,0.0,0.0,0.0,0.0,0.0,0.0,0.0,0.0,0.0,0.0,0.0,0.0,0.0,0.0,0.0,0.0,0.0,0.0,0.0,0.0,0.0,0.0,0.0,0.0,0.0,0.0,0.0,0.0,0.0,0.0,0.0,0.0,0.0,0.0,0.0,0.0,-0.0227,-0.034,0.0,0.0,0.0,0.0,0.0,0.0,0.0,0.0,-0.2695,0.0,0.0,0.0,0.0,0.0,0.0,0.0,0.0,0.0,0.0,0.0,0.0,0.0,0.0,0.0,0.0,0.0,0.0,0.0,0.0,0.0,0.0,0.0,0.0,0.0,0.0,0.0,0.0,0.0,0.0,0.0,0.0,0.0,0.0,0.0,0.0,0.0,0.0,0.0,0.0,0.0,0.0,0.0,0.0,0.0,0.0,0.0,0.0,0.0,0.0,0.0,0.0,0.0,0.0,0.0,-0.7991,-0.7716,-0.7014,-0.5958,-0.5659,-0.5502,-0.5408,-0.5335,-0.531,0.0,0.0,0.0,0.0,0.0,0.0,0.0,0.0,0.0,0.0,0.0,0.0,0.0,0.0,0.0,0.0,0.0,0.0,0.0,0.0,0.0,0.0,0.0,0.0,0.0,0.0,0.0,0.0,0.0,0.0,0.0,0.0,0.0,0.0,0.0,0.0,0.0,0.0,0.0,0.0,-0.1619,-0.1452,-0.1796,0.0,0.0,0.0,0.0,0.0,0.0,-0.2667,-0.2702,0.0,0.0,0.0,0.0,0.0,0.0,0.0,0.0,0.0,0.0,0.0,0.0,0.0,0.0,0.0,0.0,0.0,0.0,0.0,0.0,0.0,0.0,0.0,0.0,0.0,0.0,0.0,0.0,0.0,0.0,0.0,0.0,0.0,0.0,0.0,0.0,0.0,0.0,0.0,0.0,0.0,0.0,0.0,0.0,0.0,0.0,0.0,0.0,0.0,0.0,0.0,0.0,0.0,0.0,0.0,-0.8088,-0.7866,-0.7226,-0.6128,-0.589,-0.568,-0.5497,-0.5435,-0.5398,0.0,0.0,0.0,0.0,0.0,0.0,0.0,0.0,0.0,0.0,0.0,0.0,0.0,0.0,0.0,0.0,0.0,0.0,0.0,0.0,0.0,0.0,0.0,0.0,0.0,0.0,0.0,0.0,0.0,0.0,0.0,0.0,0.0,0.0,0.0,0.0,0.0,0.0,0.0,0.0,0.0,-0.2546,-0.2968,-0.23,0.0,0.0,0.0,0.0,-0.2609,-0.2749,0.0,0.0,0.0,0.0,0.0,0.0,0.0,0.0,0.0,0.0,0.0,0.0,0.0,0.0,0.0,0.0,0.0,0.0,0.0,0.0,0.0,0.0,0.0,0.0,0.0,0.0,0.0,0.0,0.0,0.0,0.0,0.0,0.0,0.0,0.0,0.0,0.0,0.0,0.0,0.0,0.0,0.0,0.0,0.0,0.0,0.0,0.0,0.0,0.0,0.0,0.0,0.0,0.0,0.0,0.0,0.0,-0.8409,-0.7905,-0.7334,-0.6744,-0.6251,-0.5952,-0.568,-0.5342,-0.5267,0.0,0.0,0.0,0.0,0.0,0.0,0.0,0.0,0.0,0.0,0.0,0.0,0.0,0.0,0.0,0.0,0.0,0.0,0.0,0.0,0.0,0.0,0.0,0.0,0.0,0.0,0.0,0.0,0.0,0.0,0.0,0.0,0.0,0.0,0.0,0.0,0.0,0.0,0.0,0.0,0.0,-0.3057,-0.3158,-0.2589,-0.2173,0.0,0.0,0.0,-0.344,-0.3856,0.0,0.0,0.0,0.0,0.0,0.0,0.0,0.0,0.0,0.0,0.0,0.0,0.0,0.0,0.0,0.0,0.0,0.0,0.0,0.0,0.0,0.0,0.0,0.0,0.0,0.0,0.0,0.0,0.0,0.0,0.0,0.0,0.0,0.0,0.0,0.0,0.0,0.0,0.0,0.0,0.0,0.0,0.0,0.0,0.0,0.0,0.0,0.0,0.0,0.0,0.0,0.0,0.0,0.0,0.0,-0.8239,-0.8564,-0.8043,-0.7504,-0.6959,-0.6656,-0.6308,-0.5952,-0.5691,-0.5555,0.0,0.0,0.0,0.0,0.0,0.0,0.0,0.0,0.0,0.0,0.0,0.0,0.0,0.0,0.0,0.0,0.0,0.0,0.0,0.0,0.0,0.0,0.0,0.0,0.0,0.0,0.0,0.0,0.0,0.0,0.0,0.0,0.0,0.0,0.0,0.0,0.0,0.0,0.0,0.0,0.0,0.0,-0.3791,-0.3403,0.0,0.0,0.0,-0.3326,-0.3091,0.0,0.0,0.0,0.0,0.0,0.0,0.0,0.0,0.0,0.0,0.0,0.0,0.0,0.0,0.0,0.0,0.0,0.0,0.0,0.0,0.0,0.0,0.0,0.0,0.0,0.0,0.0,0.0,0.0,0.0,0.0,0.0,0.0,0.0,0.0,0.0,0.0,0.0,0.0,0.0,0.0,0.0,0.0,0.0,0.0,0.0,0.0,0.0,0.0,0.0,0.0,0.0,0.0,0.0,0.0,0.0,0.0,-0.8704,-0.8237,-0.7716,-0.7224,-0.701,-0.6662,-0.6201,-0.5988,0.0,0.0,0.0,0.0,0.0,0.0,0.0,0.0,0.0,0.0,0.0,0.0,0.0,0.0,0.0,0.0,0.0,0.0,0.0,0.0,0.0,0.0,0.0,0.0,0.0,0.0,0.0,0.1356,0.0,0.0,0.0,0.0,0.0,0.0,0.0,0.0,0.0,0.0,0.0,0.0,0.0,0.0,-0.4713,-0.4197,-0.403,-0.3893,0.0,0.0,-0.3372,-0.314,-0.3777,-0.3826,0.0,0.0,0.0,0.0,0.0,0.0,0.0,0.0,0.0,0.0,0.0,0.0,0.0,0.0,0.0,0.0,0.0,0.0,0.0,0.0,0.0,0.0,0.0,0.0,0.0,0.0,0.0,0.0,0.0,0.0,0.0,0.0,0.0,0.0,0.0,0.0,0.0,0.0,0.0,0.0,0.0,0.0,0.0,0.0,0.0,0.0,0.0,0.0,0.0,0.0,0.0,0.0,0.0,0.0,0.0,-0.8841,-0.8401,-0.7981,-0.7489,-0.7224,-0.6871,-0.6378,-0.6013,-0.5905,0.0,0.0,0.0,0.0,0.0,0.0,0.0,0.0,0.0,0.0,0.0,0.0,0.0,0.0,0.0,0.0,0.0,0.0,0.0,0.0,0.0,0.0,0.0,0.0,0.0,0.0,0.0,0.0,0.0,0.0,0.0,0.0,0.0,0.0,0.0,0.0,0.0,0.0,0.0,0.0,0.0,-0.4743,-0.4013,-0.4112,-0.4364,0.0,0.0,-0.3786,-0.4351,-0.4903,-0.4838,-0.3503,0.0,0.0,0.0,0.0,0.0,0.0,0.0,0.0,0.0,0.0,0.0,0.0,0.0,0.0,0.0,0.0,0.0,0.0,0.0,0.0,0.0,0.0,0.0,0.0,0.0,0.0,0.0,0.0,0.0,0.0,0.0,0.0,0.0,0.0,0.0,0.0,0.0,0.0,0.0,0.0,0.0,0.0,0.0,0.0,0.0,0.0,0.0,0.0,0.0,0.0,0.0,0.0,0.0,-0.8669,-0.9124,-0.8664,-0.8274,-0.8095,-0.7829,-0.7506,-0.7132,-0.6636,-0.6311,0.0,0.0,0.0,0.0,0.0,0.0,0.0,0.0,0.0,0.0,0.0,0.0,0.0,0.0,0.0,0.0,0.0,0.0,0.0,0.0,0.0,0.0,0.0,0.0,0.0,0.0,0.0,0.0,-0.113,-0.1253,-0.1037,0.0,0.0,0.0,0.0,0.0,0.0,0.0,0.0,0.0,0.0,-0.4912,-0.499,-0.4997,0.0,0.0,-0.4509,-0.4193,-0.3696,-0.4175,-0.4155,-0.2725,-0.2369,0.0,0.0,0.0,0.0,0.0,0.0,0.0,0.0,0.0,0.0,0.0,0.0,0.0,0.0,0.0,0.0,0.0,0.0,0.0,0.0,0.0,0.0,0.0,0.0,0.0,0.0,0.0,0.0,0.0,0.0,0.0,0.0,0.0,0.0,0.0,0.0,0.0,0.0,0.0,0.0,0.0,0.0,0.0,0.0,0.0,0.0,0.0,0.0,0.0,0.0,0.0,0.0,-0.8774,-0.9169,-0.8802,-0.858,-0.8581,-0.8327,-0.8106,-0.7858,-0.7272,-0.6866,0.0,0.0,0.0,0.0,0.0,0.0,0.0,0.0,0.0,0.0,0.0,0.0,0.0,0.0,0.0,0.0,0.0,0.0,0.0,0.0,0.0,0.0,0.0,0.0,0.0,0.0,0.0,0.0,-0.2055,-0.218,-0.1819,0.0,0.0,0.0,0.0,0.0,0.0,0.0,0.0,0.0,0.0,-0.5102,-0.5151,-0.5141,-0.4938,-0.441,-0.4306,-0.3989,-0.3303,-0.3713,-0.3739,-0.2586,0.0,0.0,0.0,0.0,0.0,0.0,0.0,0.0,0.0,0.0,0.0,0.0,0.0,0.0,0.0,0.0,0.0,0.0,0.0,0.0,0.0,0.0,0.0,0.0,0.0,0.0,0.0,0.0,0.0,0.0,0.0,0.0,0.0,0.0,0.0,0.0,0.0,0.0,0.0,0.0,0.0,0.0,0.0,0.0,0.0,0.0,0.0,0.0,0.0,0.0,0.0,0.0,0.0,-0.8783,-0.8922,-0.8837,-0.8772,-0.8699,-0.8707,-0.8582,-0.8348,-0.7851,-0.765,-0.7731,0.0,0.0,0.0,0.0,0.0,0.0,0.0,0.0,0.0,0.0,0.0,0.0,0.0,0.0,0.0,0.0,0.0,0.0,0.0,0.0,0.0,0.0,0.0,0.0,0.0,0.0,-0.031,-0.1079,-0.182,0.0,0.0,0.0,0.0,0.0,0.0,0.0,0.0,0.0,0.0,-0.4859,-0.5312,-0.4137,-0.4231,-0.4329,-0.3938,-0.3266,-0.2991,-0.3584,-0.3787,-0.3805,0.0,0.0,0.0,0.0,0.0,0.0,0.0,0.0,0.0,0.0,0.0,0.0,0.0,0.0,0.0,0.0,0.0,0.0,0.0,0.0,0.0,0.0,0.0,0.0,0.0,0.0,0.0,0.0,-0.2702,0.0,0.0,0.0,0.0,0.0,0.0,0.0,0.0,0.0,0.0,0.0,-0.6761,-0.7223,0.0,0.0,0.0,0.0,0.0,0.0,0.0,0.0,0.0,0.0,0.0,0.0,-0.8824,-0.9135,-0.9069,-0.9041,-0.9163,-0.9099,-0.9009,-0.8911,-0.8516,-0.8156,-0.7988,0.0,0.0,0.0,0.0,0.0,0.0,0.0,0.0,0.0,0.0,0.0,0.0,0.0,0.0,0.0,0.0,0.0,0.0,0.0,0.0,0.0,0.0,0.0,0.0,0.0,-0.1916,0.0,0.0,0.0,0.0,0.0,0.0,0.0,0.0,0.0,0.0,0.0,-0.3971,-0.4445,-0.4343,-0.4293,-0.4466,-0.4545,-0.462,0.0,0.0,0.0,0.0,0.0,0.0,0.0,0.0,0.0,0.0,0.0,0.0,0.0,0.0,-0.269,-0.0874,-0.1481,-0.2275,-0.2339,0.0,0.0,0.0,0.0,0.0,0.0,0.0,0.0,0.0,0.0,0.0,0.0,0.0,0.0,0.0,0.0,-0.4205,0.0,0.0,0.0,0.0,0.0,0.0,0.0,0.0,-0.7062,-0.7563,-0.766,-0.803,-0.8134,0.0,-0.8273,-0.8336,0.0,0.0,0.0,0.0,0.0,0.0,0.0,0.0,-0.8971,-0.9333,-0.9249,-0.9322,-0.9445,-0.9371,-0.9335,-0.9327,-0.898,-0.864,-0.8299,-0.7708,-0.7233,0.0,0.0,0.0,0.0,0.0,0.0,0.0,0.0,0.0,0.0,0.0,0.0,0.0,0.0,0.0,0.0,0.0,0.0,0.0,0.0,0.0,0.0,0.0,-0.2365,0.0,0.0,0.0,0.0,0.0,0.0,0.0,0.0,0.0,-0.3434,-0.3961,-0.4555,-0.5055,-0.4637,-0.4268,-0.4329,0.0,0.0,0.0,0.0,0.0,0.0,0.0,-0.2788,-0.248,-0.2951,-0.3505,-0.3858,-0.4269,-0.443,-0.3985,0.0,0.0,-0.2154,-0.2659,-0.3439,-0.3579,-0.3979,-0.4421,-0.474,-0.4997,-0.5141,0.0,0.0,0.0,0.0,0.0,0.0,0.0,0.0,-0.5434,-0.5084,0.0,-0.5191,0.0,0.0,0.0,0.0,0.0,0.0,0.0,0.0,-0.8593,-0.9066,-0.8546,-0.8913,-0.9095,-0.9069,-0.9112,-0.9096,-0.9032,-0.8253,0.0,0.0,0.0,0.0,0.0,0.0,-0.9183,-0.9395,-0.9397,-0.9437,-0.9567,-0.9624,-0.9575,-0.9575,-0.9327,-0.9003,-0.8642,-0.8227,-0.7737,-0.7154,-0.6455,0.0,0.0,0.0,0.0,0.0,0.0,0.0,0.0,0.0,0.0,0.0,0.0,0.0,0.0,0.0,0.0,0.0,0.0,0.0,0.0,-0.26,0.0,0.0,0.0,0.0,0.0,0.0,0.0,0.0,0.0,0.0,-0.4205,-0.4637,-0.5072,-0.5308,0.0,0.0,0.0,0.0,-0.339,-0.1983,-0.1558,-0.1458,-0.1496,-0.2406,-0.3294,-0.3754,0.0,0.0,-0.5407,-0.4934,-0.4535,-0.4,-0.5194,-0.5676,-0.4259,-0.3944,-0.3752,-0.3451,-0.4027,-0.4254,-0.399,-0.4779,-0.5015,-0.1757,0.0,0.0,0.0,0.0,-0.4128,-0.502,-0.6194,-0.6194,-0.6208,-0.6266,-0.6549,0.0,0.0,0.0,0.0,0.0,0.0,-0.7745,-0.8074,-0.8705,-0.8988,-0.896,-0.9178,-0.925,-0.9125,-0.9234,-0.9229,-0.9095,-0.884,-0.8699,-0.8583,0.0,0.0,0.0,0.0,-0.9202,-0.9183,-0.9334,-0.9494,-0.9624,-0.9624,-0.9624,-0.9624,-0.9533,-0.9361,-0.9011,-0.8852,-0.8389,-0.7655,-0.7282,0.0,0.0,0.0,0.0,0.0,0.0,0.0,0.0,0.0,0.0,0.0,0.0,0.0,0.0,0.0,0.0,0.0,0.0,0.0,-0.3259,-0.3694,-0.3483,0.0,0.0,0.0,0.0,0.0,0.0,0.0,0.0,0.0,-0.5177,-0.4656,-0.4311,0.0,0.0,-0.332,-0.3169,-0.3499,-0.3771,-0.3891,0.0,0.0,0.0,-0.408,-0.4117,-0.4404,-0.5526,-0.6396,-0.6408,-0.6787,-0.7061,-0.7014,-0.7417,-0.7579,-0.7197,-0.6849,-0.6706,-0.6871,-0.7126,-0.7339,-0.7519,-0.773,-0.7803,-0.1991,-0.236,-0.284,-0.3509,-0.4252,-0.4684,-0.5644,-0.6954,-0.6954,-0.6976,-0.7053,-0.7349,-0.6857,-0.5828,-0.6205,0.0,0.0,0.0,-0.8237,-0.884,-0.903,-0.9189,-0.9307,-0.9413,-0.9413,-0.9315,-0.9413,-0.9405,-0.9307,-0.9255,-0.9221,-0.9202,0.0,0.0,-0.8505,-0.8733,-0.8931,-0.911,-0.9241,-0.9421,-0.9575,-0.9624,-0.9624,-0.9624,-0.9624,-0.9533,-0.9335,-0.9078,-0.8653,-0.8163,-0.7717,-0.7135,0.0,0.0,0.0,0.0,0.0,0.0,0.0,0.0,0.0,0.0,0.0,-0.4329,0.0,0.0,0.0,0.0,-0.4523,-0.4484,-0.4277,-0.4343,0.0,0.0,0.0,0.0,0.0,0.0,0.0,-0.3625,-0.472,-0.55,-0.5575,-0.5106,-0.4885,-0.5157,-0.4546,-0.4051,-0.4044,0.0,-0.4594,-0.4763,-0.4657,-0.4663,-0.495,-0.51,-0.5336,-0.5887,-0.6576,-0.7112,-0.7296,-0.7746,-0.8162,-0.8299,-0.8421,-0.8474,-0.8474,-0.835,-0.8311,-0.852,-0.8559,-0.8698,-0.9033,-0.9096,-0.9096,-0.2431,-0.2846,-0.2994,-0.3875,-0.5212,-0.5601,-0.6472,-0.751,-0.756,-0.7352,-0.7132,-0.7628,-0.7176,-0.6133,-0.6342,0.0,0.0,-0.8009,-0.8611,-0.9332,-0.9502,-0.9575,-0.9583,-0.9575,-0.9624,-0.9624,-0.9624,-0.9624,-0.9608,-0.949,-0.9478,-0.9604,-0.8832,-0.8438,-0.8351,-0.8343,-0.8597,-0.9083,-0.918,-0.9353,-0.9575,-0.9575,-0.9583,-0.9583,-0.9525,-0.9525,-0.9533,-0.9072,-0.8758,-0.856,-0.7851,-0.7392,-0.7125,0.0,0.0,0.0,0.0,0.0,0.0,0.0,0.0,0.0,0.0,0.0,0.0,0.0,0.0,0.0,-0.5574,0.0,-0.5735,-0.4825,0.0,0.0,0.0,-0.4333,-0.5312,-0.5503,-0.5503,-0.544,0.0,0.0,0.0,0.0,-0.6264,-0.7027,-0.6765,-0.6324,-0.5718,-0.5738,-0.5599,-0.5056,-0.4854,-0.482,-0.5092,-0.5799,-0.6719,-0.7563,-0.7944,-0.7929,-0.7959,-0.8099,-0.8232,-0.8331,-0.8476,-0.8633,-0.8617,-0.8718,-0.881,-0.8792,-0.8777,-0.8832,-0.9114,-0.9169,-0.9169,-0.239,-0.3096,-0.3882,-0.4594,-0.5223,-0.5701,-0.6327,-0.7047,-0.7054,-0.7052,-0.7128,-0.7241,-0.7243,-0.7161,-0.7498,-0.7812,-0.8131,-0.8387,-0.8638,-0.8962,-0.9213,-0.9286,-0.9335,-0.9525,-0.9624,-0.9624,-0.9624,-0.9624,-0.9624,-0.9592,-0.9291,-0.881,-0.844,-0.8416,-0.8756,-0.8845,-0.8907,-0.8865,-0.9173,-0.9452,-0.9567,-0.9385,-0.9286,-0.9286,-0.908,-0.8973,-0.8973,-0.8874,-0.8711,-0.8477,-0.8258,-0.7952,-0.7502,-0.6714,0.0,0.0,0.0,0.0,0.0,0.0,0.0,0.0,0.0,-0.5285,-0.4385,0.0,-0.539,0.0,-0.6525,-0.713,-0.6839,-0.6607,0.0,0.0,-0.5445,-0.5451,-0.5554,-0.6261,-0.6496,-0.5885,-0.6398,-0.6831,-0.6831,-0.6879,-0.7233,-0.806,-0.6831,-0.5814,-0.5828,-0.6157,-0.6422,-0.6402,-0.6721,-0.7097,-0.7083,-0.7454,-0.7839,-0.8097,-0.8296,-0.8476,-0.8559,-0.862,-0.8713,-0.8842,-0.892,-0.8966,-0.895,-0.9007,-0.9088,-0.9195,-0.9243,-0.9284,-0.947,-0.9494,-0.9494,-0.2746,-0.3429,-0.4403,-0.509,-0.5551,-0.5946,-0.6418,-0.6883,-0.6889,-0.6964,-0.7098,-0.7098,-0.7228,-0.7475,-0.7702,-0.7951,-0.8262,-0.8357,-0.8578,-0.8825,-0.9088,-0.9187,-0.9236,-0.9484,-0.9624,-0.9624,-0.9624,-0.9624,-0.9624,-0.9624,-0.9381,-0.8997,-0.8659,-0.8575,-0.8774,-0.8416,-0.8261,-0.8276,-0.8917,-0.9362,-0.9558,-0.9335,-0.9166,-0.9155,-0.8802,-0.859,-0.8534,-0.8251,-0.7968,-0.7779,-0.7685,-0.7476,-0.6988,-0.655,-0.6243,0.0,0.0,0.0,0.0,0.0,0.0,0.0,0.0,0.0,0.0,0.0,-0.6196,0.0,-0.7222,0.0,-0.7028,-0.6979,-0.6873,-0.6587,-0.6672,-0.6853,-0.7119,-0.7694,-0.7856,-0.7382,-0.7677,-0.79,-0.79,-0.7839,-0.8033,-0.8544,-0.762,-0.6976,-0.7073,-0.7259,-0.736,-0.7495,-0.7816,-0.8076,-0.8208,-0.8296,-0.8384,-0.8384,-0.848,-0.8645,-0.869,-0.8706,-0.8739,-0.8836,-0.8861,-0.8861,-0.8861,-0.8934,-0.9007,-0.9088,-0.9185,-0.9332,-0.9567,-0.9624,-0.9624,-0.3384,-0.3879,-0.4799,-0.549,-0.6012,-0.6334,-0.6662,-0.6916,-0.691,-0.6984,-0.7098,-0.7098,-0.7224,-0.7419,-0.7439,-0.7697,-0.8159,-0.8181,-0.8356,-0.8726,-0.8981,-0.9145,-0.9218,-0.9516,-0.9673,-0.9697,-0.9697,-0.9697,-0.9697,-0.9697,-0.9623,-0.9525,-0.9106,-0.8776,-0.8575,-0.7768,-0.7461,-0.7768,-0.8671,-0.9283,-0.9583,-0.928,-0.9074,-0.8972,-0.8551,-0.8215,-0.807,-0.7459,-0.7054,-0.6871,-0.6789,-0.6631,-0.6343,-0.6321,-0.6234,0.0,-0.5752,0.0,0.0,0.0,0.0,0.0,0.0,0.0,0.0,-0.7188,-0.7222,-0.7326,-0.7763,-0.7752,-0.7112,-0.7056,-0.7297,-0.7938,-0.802,-0.8321,-0.9074,-0.9145,-0.9129,-0.9129,-0.895,-0.8775,-0.875,-0.8674,-0.8612,-0.8612,-0.8544,-0.8408,-0.8552,-0.8309,-0.8177,-0.8245,-0.8252,-0.834,-0.8524,-0.8568,-0.8568,-0.8612,-0.8612,-0.8612,-0.862,-0.862,-0.862,-0.8629,-0.8637,-0.8629,-0.8612,-0.8698,-0.8796,-0.8836,-0.8966,-0.9161,-0.9445,-0.9527,-0.9559,-0.4089,-0.4887,-0.5501,-0.6037,-0.6497,-0.6797,-0.7031,-0.7058,-0.7058,-0.7071,-0.7098,-0.7098,-0.7179,-0.7426,-0.7502,-0.7699,-0.7869,-0.7992,-0.811,-0.8137,-0.8676,-0.8949,-0.9127,-0.9641,-0.9916,-1.0106,-1.0063,-1.0063,-1.0114,-1.0114,-0.9857,-0.9377,-0.9137,-0.8799,0.0,0.0,0.0,0.0,-0.9124,-0.9388,-0.9397,-0.9021,-0.8683,-0.8481,-0.8068,0.0,-0.7319,-0.7032,-0.6795,-0.6612,-0.6567,0.0,0.0,0.0,0.0,0.0,0.0,0.0,0.0,0.0,0.0,0.0,-0.7778,-0.7468,-0.7203,-0.7189,-0.7439,-0.8033,-0.8205,-0.8438,-0.8877,-0.887,-0.8997,-0.9196,-0.9227,-0.9308,-0.9518,-0.9397,-0.9355,-0.9347,-0.9023,-0.8775,-0.8828,-0.8674,-0.862,-0.8637,-0.862,-0.8612,-0.8629,-0.8532,-0.8524,-0.8524,-0.8524,-0.8524,-0.8612,-0.8612,-0.8612,-0.8612,-0.8612,-0.8612,-0.8612,-0.8612,-0.8612,-0.8612,-0.8612,-0.8612,-0.8612,-0.8637,-0.8666,-0.8796,-0.8844,-0.8942,-0.9145,-0.9202,-0.9202,-0.486,0.0,-0.6059,-0.6468,0.0,-0.6977,-0.7098,-0.7098,-0.7098,-0.7183,-0.7251,-0.7258,-0.738,-0.759,-0.7672,-0.7787,-0.7929,-0.7955,-0.7988,-0.8038,-0.8577,-0.8914,-0.9129,-0.963,-0.9981,-1.0212,-1.0212,-1.0212,-1.0212,-1.0212,-1.0019,-0.9732,-0.9551,-0.9317,-0.8999,-0.901,-0.8989,-0.8964,-0.9181,-0.9315,-0.9478,-0.901,-0.8688,-0.8481,0.0,0.0,0.0,0.0,0.0,0.0,0.0,0.0,0.0,0.0,0.0,-0.771,-0.7802,-0.8027,-0.8443,-0.8536,-0.8722,-0.9211,-0.9155,-0.8832,-0.8185,-0.8382,-0.8691,-0.9044,-0.8996,-0.9099,-0.9453,-0.9486,-0.9527,-0.9616,-0.9624,-0.9624,-0.9616,-0.9551,-0.9486,-0.947,-0.925,-0.9088,-0.9088,-0.8934,-0.8836,-0.8828,-0.8828,-0.882,-0.8857,-0.8718,-0.8612,-0.8612,-0.8612,-0.8612,-0.8612,-0.8612,-0.8612,-0.8612,-0.8612,-0.8612,-0.8612,-0.8612,-0.8612,-0.8612,-0.8612,-0.8612,-0.8612,-0.8612,-0.8593,-0.8674,-0.8698,-0.8723,-0.8828,-0.8974,-0.9096,-0.5545,-0.5927,-0.6561,-0.6892,-0.6962,-0.7135,-0.7173,-0.7173,0.0,0.0,0.0,-0.746,-0.7556,-0.7807,-0.7814,-0.7896,-0.7988,-0.7988,-0.7988,-0.8038,-0.8606,-0.8959,-0.9174,-0.9709,-1.0079,-1.0302,-1.031,-1.031,-1.0302,-1.031,-1.031,-1.0257,-1.0015,-0.9886,-0.9855,-0.9855,-0.9673,-0.9315,-0.9259,-0.938,-0.9607,-0.9187,-0.8845,-0.8761,-0.8117,-0.7709,-0.751,-0.7103,-0.6821,-0.6687,-0.6976,-0.706,-0.6833,-0.7503,-0.7896,-0.7876,-0.8287,-0.8751,-0.9276,-0.9427,-0.9748,-1.0233,-1.0257,-0.9995,-0.9347,-0.972,-0.9933,-0.9933,-0.9803,-0.9721,-0.9721,-0.9721,-0.9655,-0.9681,-0.9673,-0.9665,-0.9632,-0.9624,-0.9616,-0.9608,-0.9453,-0.9404,-0.938,-0.9185,-0.9096,-0.9096,-0.9064,-0.9096,-0.9064,-0.8852,-0.8718,-0.8641,-0.8633,-0.8617,-0.862,-0.8612,-0.8612,-0.8612,-0.8612,-0.8612,-0.8612,-0.8612,-0.8612,-0.8612,-0.8612,-0.8612,-0.8612,-0.8612,-0.8612,-0.8612,-0.8612,-0.8612,-0.8637,-0.8841,-0.8982,-0.6114,-0.682,-0.693,-0.7191,-0.7489,-0.7536,-0.7536,-0.7522,-0.7394,-0.7428,-0.757,-0.757,-0.7658,-0.7814,-0.7814,-0.7896,-0.7988,-0.7988,-0.7988,0.0,-0.8722,-0.9182,-0.9406,-1.0018,-1.0452,-1.0607,-1.0615,-1.0615,-1.0615,-1.0615,-1.0623,-1.0599,-1.0415,-1.0269,-1.0176,-1.016,-1.0111,-1.0065,-0.9851,-0.9795,-0.9843,-0.9606,-0.9255,-0.8807,-0.8583,-0.8158,-0.7535,-0.7369,-0.725,-0.7296,-0.7316,-0.7631,-0.8273,-0.8603,-0.9052,-0.9601,-0.9836,-1.0064,-1.0393,-1.035,-1.035,-1.059,-1.0615,-1.0452,-1.0095,-1.0095,-1.0171,-1.0171,-1.0139,-1.0139,-1.0139,-1.0122,-1.0006,-0.9868,-0.9851,-0.9795,-0.9657,-0.9624,-0.9624,-0.9624,-0.947,-0.9412,-0.9404,-0.9226,-0.9129,-0.9112,-0.9153,-0.9112,-0.912,-0.9064,-0.8958,-0.8828,-0.8779,-0.8723,-0.8581,-0.8612,-0.8576,-0.8612,-0.8568,-0.8612,-0.8612,-0.8612,-0.8612,-0.8612,-0.8612,-0.8612,-0.8612,-0.8612,-0.8612,-0.8612,-0.8612,-0.8612,-0.8612,-0.8686,-0.8666,-0.6737,-0.7118,-0.7263,-0.7443,-0.7597,-0.7597,-0.7645,-0.7706,-0.7645,-0.7645,-0.7712,-0.7712,-0.7794,-0.7929,-0.7936,-0.7921,-0.7988,-0.7988,-0.7988,-0.8052,-0.8599,-0.9065,-0.9444,-0.9922,-1.0363,-1.068,-1.0688,-1.0688,-1.0688,-1.0688,-1.0688,-1.0688,-1.0443,-1.0209,-0.9969,-0.9969,-0.9969,-0.9961,-1.002,-1.009,-1.003,-0.9804,-0.956,-0.9348,-0.9127,-0.8895,-0.8534,-0.8464,-0.8478,-0.8478,-0.8557,-0.8772,-0.9116,-0.9474,-0.9837,-1.0116,-1.0385,-1.0517,-1.068,-1.0615,-1.0607,-1.0688,-1.0688,-1.0623,-1.0461,-1.0363,-1.0306,-1.0306,-1.0225,-1.0212,-1.0212,-1.0212,-1.018,-1.0098,-0.9949,-0.9851,-0.9778,-0.9681,-0.9624,-0.9616,-0.9559,-0.9502,-0.9502,-0.9437,-0.9388,-0.9388,-0.9388,-0.938,-0.938,-0.9236,-0.9045,-0.8799,-0.859,-0.8482,-0.838,-0.8438,-0.8443,-0.8408,-0.8524,-0.8568,-0.8612,-0.8612,-0.8612,-0.8612,-0.8612,-0.8612,-0.8612,-0.8612,-0.8612,-0.8612,-0.8612,-0.8612,-0.8612,-0.8612,-0.8612,-0.7234,-0.7354,-0.755,-0.7665,-0.7699,-0.7699,-0.776,-0.7855,-0.7813,-0.7862,-0.7862,-0.7862,-0.788,-0.7982,-0.7988,-0.7988,-0.7988,-0.7988,-0.7988,-0.8058,-0.8533,-0.8998,-0.9399,-0.9846,-1.0287,-1.068,-1.0688,-1.0688,-1.0688,-1.0641,-1.0586,-1.0476,-1.0312,-1.0036,-0.9816,-0.9816,-0.9816,-0.9801,-0.9992,-1.0124,-1.0229,-1.0071,-0.9965,-0.9912,-0.9701,-0.955,-0.9497,-0.9497,-0.9497,-0.9602,-0.9716,-0.9784,-0.9838,-1.0179,-1.0366,-1.0421,-1.0586,-1.0688,-1.0688,-1.0688,-1.0688,-1.0688,-1.0688,-1.0688,-1.068,-1.0574,-1.0493,-1.0423,-1.0371,-1.029,-1.0351,-1.0343,-1.0318,-1.0225,-1.0095,-0.9981,-0.9892,-0.9762,-0.9665,-0.964,-0.9624,-0.9624,-0.9624,-0.9624,-0.9608,-0.9608,-0.9624,-0.9624,-0.9575,-0.9335,-0.9006,-0.8774,-0.8517,-0.8311,-0.8154,-0.8276,-0.8335,-0.8232,-0.8428,-0.8568,-0.8612,-0.8612,-0.8612,-0.8612,-0.8612,-0.8612,-0.8612,-0.8612,-0.8612,-0.8612,-0.8612,-0.8612,-0.8612,-0.8612,-0.8612,-0.7434,-0.7732,-0.7746,-0.7826,-0.7934,-0.7941,-0.7948,-0.7961,-0.7968,-0.7968,-0.7961,-0.7968,-0.7968,-0.7988,-0.7988,-0.7988,-0.7988,-0.7988,-0.7988,-0.8072,-0.8639,-0.9048,-0.9414,-1.0023,-1.0406,-1.0696,-1.0704,-1.0712,-1.0649,-1.0476,-1.0202,-0.9926,-0.9871,-0.9816,-0.9761,-0.9761,-0.9761,-0.9816,-0.9841,-0.9991,-1.0265,-1.0483,-1.0475,-1.0265,-1.0257,-1.0046,-0.9804,-0.9771,-0.9874,-1.021,-1.0218,-1.0335,-1.0554,-1.0625,-1.0688,-1.0641,-1.0688,-1.0688,-1.0688,-1.0688,-1.0688,-1.0688,-1.0688,-1.0688,-1.0688,-1.0672,-1.0664,-1.0647,-1.0647,-1.0615,-1.0639,-1.0623,-1.055,-1.042,-1.0318,-1.0257,-0.9973,-0.9868,-0.9803,-0.964,-0.9665,-0.9632,-0.9665,-0.9657,-0.9591,-0.9607,-0.9632,-0.9624,-0.9575,-0.9229,-0.8874,-0.8799,-0.8661,-0.8445,-0.816,-0.8284,-0.8305,-0.8255,-0.8428,-0.8568,-0.8612,-0.8612,-0.8612,-0.8612,-0.8612,-0.8612,-0.8612,-0.8612,-0.8612,-0.8612,-0.8612,-0.8612,-0.8612,-0.8612,-0.8612,-0.7791,-0.7894,-0.7901,-0.7928,-0.7988,-0.7988,-0.7988,-0.7988,-0.7988,-0.7988,-0.7988,-0.7988,-0.7988,-0.7988,-0.7988,-0.7988,-0.7988,-0.7988,-0.7988,-0.8065,-0.8446,-0.8905,-0.9414,-0.983,-1.0303,-1.085,-1.0858,-1.0795,-1.0556,-1.02,-0.9754,-0.9313,-0.9258,-0.9092,-0.8761,-0.8761,-0.8706,-0.8768,-0.8927,-0.9147,-0.9478,-1.0139,-1.0421,-1.0366,-1.0421,-1.0476,-1.0359,-1.0304,-1.0421,-1.0531,-1.0531,-1.0586,-1.0688,-1.0688,-1.0688,-1.0688,-1.0688,-1.0688,-1.0688,-1.0688,-1.0688,-1.0688,-1.0688,-1.0688,-1.0688,-1.0688,-1.0688,-1.0688,-1.0688,-1.0688,-1.0688,-1.0688,-1.0664,-1.059,-1.0501,-1.0371,-1.0241,-1.0111,-1.0014,-0.9949,-0.9941,-0.9941,-0.9925,-0.9843,-0.9786,-0.9762,-0.9705,-0.964,-0.9583,-0.9278,-0.9031,-0.8817,-0.8618,-0.8311,-0.7951,-0.8105,-0.8215,-0.8161,-0.834,-0.8568,-0.8612,-0.8612,-0.8612,-0.8612,-0.8612,-0.8612,-0.8612,-0.8612,-0.8612,-0.8612,-0.8612,-0.8612,-0.8612,-0.8612,-0.8612,-0.7988,-0.7988,-0.7988,-0.7988,-0.7988,-0.7988,-0.7988,-0.7988,-0.7988,-0.7988,-0.7988,-0.7988,-0.7988,-0.7988,-0.7988,-0.7988,-0.7988,-0.7988,-0.7988,-0.8022,-0.8343,-0.8853,-0.9369,-0.966,-1.0239,-1.0892,-1.0964,-1.0819,-1.039,-0.9909,-0.9377,-0.8925,-0.867,-0.8318,-0.7937,-0.7826,-0.782,-0.7931,-0.8152,-0.8374,-0.8761,-0.9478,-1.0036,-1.0257,-1.0476,-1.0633,-1.0688,-1.0688,-1.0688,-1.0688,-1.0688,-1.0688,-1.0688,-1.0688,-1.0688,-1.0688,-1.0688,-1.0688,-1.0688,-1.0688,-1.0688,-1.0688,-1.0688,-1.0688,-1.0688,-1.0688,-1.0688,-1.0688,-1.0688,-1.0688,-1.0688,-1.0688,-1.0688,-1.068,-1.0566,-1.0439,-1.0375,-1.0306,-1.0217,-1.0228,-1.018,-1.0212,-1.0196,-1.0038,-0.9957,-0.9949,-0.9811,-0.9697,-0.9639,-0.9416,-0.9137,-0.8931,-0.8676,-0.8322,-0.7903,-0.8074,-0.816,-0.8207,-0.8404,-0.8612,-0.8612,-0.8612,-0.8612,-0.8612,-0.8612,-0.8612,-0.8612,-0.8612,-0.8612,-0.8612,-0.8612,-0.8612,-0.8612,-0.8612,-0.8612,-0.7988,-0.7988,-0.7988,-0.7988,-0.7988,-0.7988,-0.7988,-0.7988,-0.7988,-0.7988,-0.7988,-0.7988,-0.7988,-0.7988,-0.7988,-0.7988,-0.7988,-0.7988,-0.7988,-0.8015,-0.8343,-0.88,-0.9407,-0.966,-1.0239,-1.0924,-1.0997,-1.0785,-1.0271,-0.956,-0.903,-0.8684,-0.8065,-0.7665,-0.756,-0.7326,-0.7382,-0.7554,-0.7604,-0.7771,-0.8097,-0.8644,-0.9368,-1.0147,-1.0312,-1.0421,-1.0641,-1.0688,-1.0688,-1.0688,-1.0688,-1.0688,-1.0688,-1.0688,-1.0688,-1.0688,-1.0688,-1.0688,-1.0688,-1.0688,-1.0688,-1.0688,-1.0688,-1.0688,-1.0688,-1.0688,-1.0688,-1.0688,-1.0688,-1.0688,-1.0688,-1.0688,-1.0688,-1.0688,-1.068,-1.0599,-1.0407,-1.0391,-1.0339,-1.0233,-1.0261,-1.0277,-1.0245,-1.0212,-1.0152,-1.0163,-0.9989,-0.986,-0.9777,-0.948,-0.9252,-0.9137,-0.8924,-0.8618,-0.8319,-0.8295,-0.8366,-0.8412,-0.848,-0.862,-0.8612,-0.8612,-0.862,-0.862,-0.8612,-0.8612,-0.8612,-0.8612,-0.8612,-0.8612,-0.8612,-0.8612,-0.8612,-0.8612,-0.8612,-0.7988,-0.7988,-0.7988,-0.7988,-0.7988,-0.7988,-0.7988,-0.7988,-0.7988,-0.7988,-0.7988,-0.7988,-0.7988,-0.7988,-0.7988,-0.7988,-0.7988,-0.7988,-0.7988,-0.8022,-0.8343,-0.8696,-0.9091,-0.9551,-1.0189,-1.0817,-1.102,-1.082,-1.0135,-0.9367,-0.8608,-0.8008,-0.7618,-0.7217,-0.6863,-0.6695,-0.6659,-0.6776,-0.6776,-0.6993,-0.7432,-0.7709,-0.8318,-0.9368,-0.9974,-1.0312,-1.0421,-1.0641,-1.0688,-1.0688,-1.0688,-1.0688,-1.0688,-1.0688,-1.0688,-1.0688,-1.0688,-1.0688,-1.0688,-1.0688,-1.0688,-1.0688,-1.0688,-1.0688,-1.0688,-1.0688,-1.0688,-1.0688,-1.0688,-1.0688,-1.0688,-1.0688,-1.0688,-1.0688,-1.0688,-1.0664,-1.0615,-1.0599,-1.0574,-1.0517,-1.0501,-1.0501,-1.0452,-1.0404,-1.0339,-1.0306,-1.0079,-0.9925,-0.986,-0.9638,-0.9393,-0.9236,-0.9137,-0.9015,-0.892,-0.8648,-0.8559,-0.8534,-0.8572,-0.8617,-0.8629,-0.8653,-0.8661,-0.8686,-0.8669,-0.8677,-0.8694,-0.8617,-0.8653,-0.8637,-0.8637,-0.8612,-0.8612,-0.8612,-0.8612,-0.7988,-0.7988,-0.7988,-0.7988,-0.7988,-0.7988,-0.7988,-0.7988,-0.7988,-0.7988,-0.7988,-0.7988,-0.7988,-0.7988,-0.7988,-0.8022,-0.8106,-0.8015,-0.7988,-0.8015,-0.8343,-0.8636,-0.8948,-0.9551,-1.0156,-1.0739,-1.1004,-1.0753,-1.0123,-0.9288,-0.8401,-0.7626,-0.728,-0.6819,-0.6345,-0.6175,-0.6077,-0.6163,-0.621,-0.642,-0.6887,-0.7099,-0.7543,-0.8367,-0.9313,-1.0029,-1.0312,-1.0476,-1.0641,-1.0688,-1.0688,-1.0688,-1.0688,-1.0688,-1.0688,-1.0688,-1.0688,-1.0688,-1.0688,-1.0688,-1.0688,-1.0688,-1.0688,-1.0688,-1.0688,-1.0688,-1.0688,-1.0688,-1.0688,-1.0688,-1.0688,-1.0688,-1.0688,-1.0688,-1.0688,-1.0688,-1.0688,-1.0688,-1.0688,-1.0672,-1.0664,-1.068,-1.068,-1.0582,-1.0534,-1.0463,-1.0249,-1.0063,-0.9965,-0.9827,-0.9631,-0.9393,-0.9335,-0.9327,-0.9231,-0.9076,-0.8981,-0.8916,-0.874,-0.8755,-0.8743,-0.8751,-0.8751,-0.8723,-0.8731,-0.8775,-0.8714,-0.8682,-0.8658,-0.8641,-0.8645,-0.8612,-0.8612,-0.8612,-0.8612,-0.7988,-0.7988,-0.7988,-0.7988,-0.7988,-0.7988,-0.7988,-0.7988,-0.7988,-0.7988,-0.7988,-0.7988,-0.7995,-0.8002,-0.8022,-0.8133,-0.8228,-0.8147,-0.8035,-0.8113,-0.837,-0.8657,-0.8888,-0.9519,-1.0242,-1.086,-1.0808,-1.0649,-1.0212,-0.9247,-0.8349,-0.7671,-0.699,-0.6525,-0.612,-0.5802,-0.576,-0.5934,-0.5974,-0.61,-0.6344,-0.6837,-0.7165,-0.7376,-0.8312,-0.9313,-1.0194,-1.0257,-1.0476,-1.0633,-1.0688,-1.0688,-1.0688,-1.0688,-1.0688,-1.0688,-1.0688,-1.0688,-1.0688,-1.0688,-1.0688,-1.0688,-1.0688,-1.0688,-1.0688,-1.0688,-1.0688,-1.0688,-1.0688,-1.0688,-1.0688,-1.0688,-1.0688,-1.0688,-1.0688,-1.0688,-1.0688,-1.0688,-1.0688,-1.0688,-1.0688,-1.0688,-1.0688,-1.0672,-1.0655,-1.0623,-1.0493,-1.0298,-1.0136,-1.0008,-0.9811,-0.9623,-0.9525,-0.9525,-0.9518,-0.9486,-0.9413,-0.9315,-0.9137,-0.8991,-0.8958,-0.895,-0.8934,-0.8942,-0.8934,-0.8934,-0.8917,-0.8877,-0.8804,-0.8771,-0.8682,-0.8637,-0.8612,-0.8612,-0.8612,-0.7988,-0.7988,-0.7988,-0.7988,-0.7988,-0.7988,-0.7988,-0.7988,-0.7988,-0.7988,-0.7988,-0.7988,-0.8049,-0.8187,-0.8201,-0.8282,-0.8404,-0.8364,-0.8343,-0.8377,-0.8547,-0.8688,-0.8904,-0.9603,-1.0436,-1.1102,-1.0928,-1.0482,-0.993,-0.923,-0.8303,-0.7311,-0.6861,-0.6455,-0.5915,-0.568,-0.5685,-0.5722,-0.5718,-0.585,-0.6048,-0.6266,-0.6623,-0.7165,-0.7543,-0.8202,-0.9258,-0.9919,-1.0312,-1.0421,-1.0586,-1.0688,-1.0688,-1.0688,-1.0688,-1.0688,-1.0688,-1.0688,-1.0688,-1.0696,-1.0704,-1.0696,-1.0696,-1.0688,-1.0688,-1.0696,-1.0696,-1.0688,-1.0688,-1.0688,-1.0688,-1.0688,-1.0696,-1.0688,-1.0688,-1.0688,-1.0688,-1.0688,-1.0688,-1.0688,-1.0688,-1.0688,-1.0688,-1.0688,-1.0688,-1.068,-1.055,-1.0379,-1.0193,-1.0038,-0.9819,-0.9665,-0.9648,-0.9673,-0.9665,-0.964,-0.9575,-0.9486,-0.9332,-0.921,-0.9185,-0.9177,-0.9161,-0.9153,-0.9145,-0.9137,-0.912,-0.9064,-0.8991,-0.8877,-0.8787,-0.8698,-0.8645,-0.8629,-0.8653,-0.7988,-0.7988,-0.7988,-0.7988,-0.7988,-0.7988,-0.7988,-0.7988,-0.7988,-0.8022,-0.8113,-0.8126,-0.8208,-0.8323,-0.835,-0.8431,-0.8554,-0.8567,-0.8601,-0.8642,-0.8669,-0.871,-0.8818,-0.9581,-1.0394,-1.0945,-1.0771,-1.0247,-0.964,-0.9092,-0.8244,-0.7128,-0.6892,-0.6496,-0.5887,-0.5714,-0.5673,-0.57,-0.5692,-0.5752,-0.5824,-0.5913,-0.6261,-0.6786,-0.7099,-0.7654,-0.8533,-0.9368,-0.9919,-1.0257,-1.0586,-1.0688,-1.0688,-1.0688,-1.0688,-1.0688,-1.0696,-1.072,-1.0777,-1.0802,-1.0834,-1.0867,-1.0834,-1.0849,-1.0785,-1.0753,-1.0696,-1.0688,-1.0688,-1.0688,-1.0696,-1.0769,-1.0761,-1.0696,-1.0688,-1.0688,-1.0688,-1.0688,-1.0688,-1.0688,-1.0688,-1.0688,-1.0688,-1.0688,-1.0688,-1.0672,-1.0599,-1.0469,-1.0298,-1.0176,-1.0006,-0.9884,-0.9876,-0.9876,-0.9843,-0.9795,-0.9738,-0.9632,-0.951,-0.9429,-0.9372,-0.938,-0.9372,-0.938,-0.938,-0.9388,-0.9372,-0.9259,-0.9169,-0.9039,-0.8917,-0.8787,-0.8698,-0.869,-0.8706,-0.7988,-0.7988,-0.7988,-0.7988,-0.7988,-0.7988,-0.8002,-0.8008,-0.8015,-0.8147,-0.8306,-0.8282,-0.8364,-0.8472,-0.8492,-0.8581,-0.8703,-0.8723,-0.873,-0.8838,-0.8811,-0.8764,-0.8982,-0.9589,-1.0208,-1.0525,-1.0386,-0.9964,-0.9374,-0.8946,-0.8194,-0.704,-0.6841,-0.653,-0.5961,-0.5908,-0.5859,-0.5854,-0.5846,-0.5763,-0.5722,-0.5926,-0.6171,-0.641,-0.6887,-0.7432,-0.8042,-0.8816,-0.9478,-1.0202,-1.0586,-1.0688,-1.0688,-1.0688,-1.0688,-1.0696,-1.0696,-1.0802,-1.0923,-1.0972,-1.1029,-1.1143,-1.1053,-1.1028,-1.0988,-1.085,-1.0777,-1.069,-1.0706,-1.0698,-1.0683,-1.0771,-1.0779,-1.069,-1.0657,-1.0696,-1.0688,-1.0688,-1.0688,-1.0688,-1.0688,-1.0688,-1.0688,-1.0688,-1.0688,-1.0688,-1.0672,-1.0574,-1.0452,-1.0339,-1.0314,-1.0217,-1.0122,-1.009,-0.9989,-0.9965,-0.9908,-0.9851,-0.9713,-0.9592,-0.9527,-0.9518,-0.9527,-0.9543,-0.9551,-0.9583,-0.9567,-0.9437,-0.9388,-0.929,-0.9088,-0.8909,-0.8791,-0.8836,-0.8844,-0.7988,-0.7988,-0.7988,-0.7988,-0.7988,-0.7988,-0.8106,-0.8201,-0.8208,-0.8289,-0.8456,-0.8484,-0.8513,-0.8642,-0.8648,-0.8737,-0.8838,-0.8872,-0.8831,-0.8871,-0.8851,-0.9182,-0.9511,-0.9774,-1.0164,-1.0538,-1.021,-0.9861,-0.9435,-0.8691,-0.794,-0.707,-0.6751,-0.6346,-0.5978,-0.5916,-0.6027,-0.6185,-0.6241,-0.6306,-0.6428,-0.6399,-0.6551,-0.6734,-0.6817,-0.7276,-0.7992,-0.9037,-0.9761,-1.0257,-1.0531,-1.0688,-1.0688,-1.0688,-1.0696,-1.072,-1.0818,-1.0915,-1.098,-1.1094,-1.1183,-1.1216,-1.12,-1.1102,-1.1037,-1.1045,-1.0892,-1.0675,-1.0658,-1.0615,-1.0459,-1.0475,-1.0372,-1.0298,-1.0445,-1.0633,-1.0688,-1.0688,-1.0688,-1.0688,-1.0688,-1.0688,-1.0688,-1.0688,-1.0688,-1.0688,-1.068,-1.0647,-1.0517,-1.0461,-1.042,-1.0257,-1.0188,-1.0196,-1.0188,-1.0163,-1.0139,-1.0106,-0.9916,-0.973,-0.9648,-0.9592,-0.96,-0.9608,-0.9592,-0.9608,-0.9616,-0.9559,-0.9486,-0.9453,-0.9331,-0.912,-0.9047,-0.9023,-0.9023,-0.7988,-0.7988,-0.7988,-0.8029,-0.8133,-0.814,-0.8221,-0.8343,-0.8415,-0.8438,-0.8554,-0.8581,-0.8662,-0.8798,-0.8811,-0.8852,-0.8933,-0.894,-0.8878,-0.8892,-0.9001,-0.927,-0.9571,-0.961,-0.9804,-1.0141,-0.9819,-0.9456,-0.9129,-0.8569,-0.798,-0.7421,-0.7055,-0.6699,-0.6407,-0.6346,-0.6407,-0.6591,-0.6587,-0.6663,-0.6806,-0.6743,-0.6861,-0.6971,-0.6981,-0.7382,-0.8331,-0.932,-0.9981,-1.0257,-1.0523,-1.0688,-1.0688,-1.0688,-1.0729,-1.0849,-1.0971,-1.1021,-1.1183,-1.1289,-1.137,-1.1419,-1.1395,-1.1297,-1.1216,-1.1109,-1.0815,-1.0654,-1.0601,-1.0429,-1.0204,-1.0144,-0.9979,-0.9927,-1.0136,-1.0366,-1.0523,-1.0641,-1.0688,-1.0688,-1.0688,-1.0688,-1.0688,-1.0688,-1.0688,-1.0688,-1.0688,-1.0639,-1.0574,-1.0542,-1.0509,-1.0387,-1.0392,-1.0433,-1.0355,-1.0322,-1.0257,-1.0225,-1.009,-0.986,-0.968,-0.9599,-0.9624,-0.9624,-0.9624,-0.9624,-0.9624,-0.9624,-0.9583,-0.9502,-0.9421,-0.9388,-0.9298,-0.9242,-0.9242,-0.7988,-0.7988,-0.8002,-0.814,-0.8306,-0.8289,-0.837,-0.8492,-0.8506,-0.8594,-0.871,-0.8737,-0.875,-0.8933,-0.8906,-0.8933,-0.894,-0.894,-0.8954,-0.9008,-0.911,-0.933,-0.9305,-0.9229,-0.9318,-0.9441,-0.9125,-0.8971,-0.88,-0.8637,-0.8262,-0.7686,-0.7519,-0.7319,-0.7002,-0.6912,-0.6959,-0.7143,-0.7204,-0.7225,-0.7266,-0.7274,-0.7338,-0.7456,-0.7522,-0.7909,-0.8732,-0.9485,-0.9926,-1.0257,-1.0531,-1.0712,-1.0712,-1.0729,-1.0818,-1.1028,-1.111,-1.12,-1.1427,-1.1492,-1.1589,-1.1679,-1.1598,-1.1457,-1.1334,-1.102,-1.0732,-1.0446,-1.0338,-1.0091,-0.9788,-0.9714,-0.9566,-0.9441,-0.9635,-0.9879,-1.0147,-1.0468,-1.0633,-1.0633,-1.0688,-1.0688,-1.0688,-1.0688,-1.0688,-1.0688,-1.0688,-1.0672,-1.0639,-1.0631,-1.0631,-1.0615,-1.0615,-1.0647,-1.0607,-1.055,-1.0461,-1.0326,-1.0128,-0.9925,-0.967,-0.9581,-0.9591,-0.9624,-0.9624,-0.9624,-0.9624,-0.9624,-0.9575,-0.9592,-0.951,-0.9445,-0.9437,-0.951,-0.9535,-0.7988,-0.8002,-0.8174,-0.8241,-0.834,-0.8391,-0.852,-0.8662,-0.8662,-0.8743,-0.8859,-0.8886,-0.8851,-0.894,-0.894,-0.894,-0.8885,-0.8898,-0.8994,-0.9123,-0.9266,-0.9292,-0.917,-0.9116,-0.9102,-0.9088,-0.885,-0.877,-0.8733,-0.8367,-0.8031,-0.786,-0.7585,-0.7353,-0.7453,-0.7434,-0.7572,-0.7933,-0.8055,-0.8166,-0.8242,-0.8222,-0.816,-0.8159,-0.8201,-0.8418,-0.8878,-0.9478,-0.9926,-1.0257,-1.0547,-1.0769,-1.0867,-1.0955,-1.0997,-1.1151,-1.1305,-1.1411,-1.1508,-1.163,-1.1727,-1.1812,-1.1727,-1.1603,-1.1161,-1.1113,-1.0658,-1.0146,-0.9831,-0.9618,-0.9104,-0.8794,-0.8734,-0.8871,-0.9071,-0.9258,-0.9596,-1.0091,-1.0366,-1.0421,-1.0586,-1.0688,-1.0688,-1.0688,-1.0688,-1.0688,-1.0688,-1.0688,-1.0688,-1.0688,-1.0688,-1.0688,-1.0688,-1.0688,-1.0672,-1.0623,-1.052,-1.0377,-1.0152,-0.9932,-0.967,-0.9511,-0.9488,-0.9532,-0.9624,-0.9575,-0.9426,-0.9607,-0.9565,-0.9575,-0.9616,-0.9624,-0.964,-0.9747,-0.9796,-0.7945,-0.8009,-0.8251,-0.8411,-0.8479,-0.856,-0.8676,-0.8798,-0.8818,-0.8859,-0.8871,-0.894,-0.894,-0.894,-0.894,-0.894,-0.896,-0.9015,-0.9117,-0.9266,-0.9415,-0.9229,-0.8944,-0.8973,-0.8946,-0.8872,-0.858,-0.8582,-0.8579,-0.842,-0.8328,-0.835,-0.8082,-0.8166,-0.8261,-0.8245,-0.8362,-0.8555,-0.8665,-0.8732,-0.8836,-0.8848,-0.8753,-0.8671,-0.8708,-0.8823,-0.9147,-0.943,-0.9861,-1.0302,-1.0548,-1.0747,-1.0964,-1.1045,-1.1175,-1.1338,-1.1427,-1.1557,-1.1638,-1.1711,-1.1828,-1.1776,-1.1776,-1.1539,-1.1175,-1.0989,-1.0507,-0.9868,-0.9452,-0.9071,-0.8449,-0.8311,-0.8239,-0.8202,-0.8536,-0.8761,-0.9037,-0.9761,-1.0312,-1.0366,-1.0531,-1.0641,-1.0688,-1.0688,-1.0688,-1.0688,-1.0688,-1.0688,-1.0688,-1.0688,-1.0688,-1.0688,-1.0688,-1.0688,-1.0688,-1.0672,-1.0538,-1.0395,-1.0152,-0.9875,-0.9564,-0.9448,-0.9388,-0.9419,-0.9398,-0.9229,-0.913,-0.9367,-0.9604,-0.9578,-0.9652,-0.9793,-0.9892,-0.9992,-1.0024,-0.7827,-0.7949,-0.8295,-0.8541,-0.8703,-0.8737,-0.8757,-0.8865,-0.894,-0.8927,-0.894,-0.894,-0.894,-0.894,-0.8974,-0.8981,-0.9049,-0.913,-0.933,-0.9422,-0.953,-0.9314,-0.8948,-0.8872,-0.8909,-0.8782,-0.8422,-0.8356,-0.8585,-0.8651,-0.8795,-0.8978,-0.9068,-0.9144,-0.9355,-0.9337,-0.9398,-0.9413,-0.9394,-0.9368,-0.9348,-0.9323,-0.9313,-0.915,-0.9037,-0.9196,-0.9363,-0.9523,-0.9768,-1.0424,-1.0519,-1.0705,-1.0972,-1.1175,-1.1288,-1.1457,-1.1438,-1.1443,-1.1471,-1.1579,-1.1587,-1.1647,-1.1647,-1.1405,-1.0967,-1.0475,-0.999,-0.9357,-0.8848,-0.8253,-0.7874,-0.7715,-0.7694,-0.7776,-0.8103,-0.8374,-0.8706,-0.9478,-1.0036,-1.0257,-1.0476,-1.0688,-1.0688,-1.0688,-1.0688,-1.0688,-1.0688,-1.0688,-1.0688,-1.0696,-1.0704,-1.0696,-1.0688,-1.0688,-1.0688,-1.0688,-1.0562,-1.0342,-1.0139,-0.98,-0.9511,-0.9287,-0.916,-0.9092,-0.9067,-0.8987,-0.906,-0.9353,-0.9524,-0.9599,-0.9776,-0.9954,-1.0131,-1.0228,-1.0245,-0.7555,-0.7987,-0.8241,-0.8474,-0.8676,-0.8845,-0.8851,-0.8878,-0.894,-0.894,-0.894,-0.894,-0.894,-0.8967,-0.9076,-0.9234,-0.9266,-0.934,-0.9422,-0.9551,-0.9566,-0.9367,-0.9163,-0.9012,-0.9001,-0.8995,-0.8625,-0.8426,-0.8668,-0.8845,-0.9232,-0.9528,-0.9776,-1.0058,-1.0442,-1.0551,-1.0461,-1.0376,-1.0417,-1.0367,-1.0207,-1.0158,-1.0035,-0.9707,-0.9488,-0.9468,-0.9574,-0.9639,-0.9809,-1.0306,-1.0682,-1.0918,-1.0985,-1.1259,-1.1355,-1.1347,-1.1327,-1.123,-1.1148,-1.1035,-1.0974,-1.0974,-1.0974,-1.0671,-1.0247,-0.9943,-0.9396,-0.8424,-0.7703,-0.7092,-0.7173,-0.7188,-0.7237,-0.7493,-0.7881,-0.8208,-0.854,-0.9099,-0.9651,-0.9816,-1.0249,-1.0688,-1.0688,-1.0688,-1.0688,-1.0688,-1.0688,-1.0688,-1.0688,-1.0704,-1.0729,-1.0712,-1.0688,-1.0688,-1.0688,-1.0688,-1.057,-1.0265,-1.0031,-0.9691,-0.9387,-0.9104,-0.8974,-0.8997,-0.8998,-0.9028,-0.922,-0.9405,-0.9532,-0.9607,-0.9891,-1.0176,-1.031,-1.0347,-1.0379,-0.7321,-0.7707,-0.8221,-0.8552,-0.879,-0.8844,-0.894,-0.894,-0.894,-0.894,-0.894,-0.894,-0.894,-0.8974,-0.9089,-0.9273,-0.9449,-0.9503,-0.9585,-0.9693,-0.9667,-0.9566,-0.9335,-0.9153,-0.9206,-0.9184,-0.8945,-0.8874,-0.9166,-0.9522,-0.9854,-1.0174,-1.0504,-1.0836,-1.1214,-1.1248,-1.108,-1.0988,-1.0853,-1.0656,-1.0375,-1.0244,-1.0025,-0.9801,-0.9466,-0.9269,-0.9283,-0.9096,-0.9283,-0.9821,-1.0148,-1.0465,-1.0823,-1.0973,-1.1183,-1.1193,-1.1088,-1.0967,-1.0846,-1.0793,-1.0853,-1.0793,-1.0671,-1.0308,-0.9822,-0.9457,-0.8726,-0.7818,-0.7249,-0.6876,-0.6988,-0.6961,-0.7126,-0.7376,-0.7765,-0.7986,-0.8214,-0.8878,-0.921,-0.9423,-0.9974,-1.0414,-1.0688,-1.0688,-1.0688,-1.0688,-1.0696,-1.0704,-1.0712,-1.0777,-1.0834,-1.0834,-1.0834,-1.0802,-1.0785,-1.0745,-1.0571,-1.0257,-0.9983,-0.9643,-0.9356,-0.9061,-0.8946,-0.8993,-0.9051,-0.9087,-0.9001,-0.9106,-0.9353,-0.9686,-1.0022,-1.0299,-1.0415,-1.0509,-1.0526,-0.7018,-0.7514,-0.8109,-0.8602,-0.8878,-0.894,-0.894,-0.894,-0.894,-0.894,-0.894,-0.8885,-0.8898,-0.9028,-0.9184,-0.9401,-0.9646,-0.9652,-0.9713,-0.9781,-0.9802,-0.964,-0.9457,-0.9361,-0.9341,-0.9532,-0.9436,-0.9522,-0.9678,-1.006,-1.0452,-1.0784,-1.1181,-1.1527,-1.1735,-1.172,-1.1318,-1.098,-1.0724,-1.0445,-1.0079,-0.9834,-0.9712,-0.9579,-0.9157,-0.8974,-0.8974,-0.8747,-0.8856,-0.9301,-0.9599,-0.988,-1.04,-1.049,-1.0611,-1.0785,-1.0732,-1.0543,-1.0368,-1.0368,-1.0247,-1.0186,-1.0126,-0.9822,-0.9396,-0.8726,-0.7994,-0.7347,-0.698,-0.6842,-0.6861,-0.7044,-0.7147,-0.7321,-0.7598,-0.7875,-0.7937,-0.8325,-0.8878,-0.9203,-0.9699,-1.0091,-1.0429,-1.0586,-1.0531,-1.0737,-1.0745,-1.081,-1.0834,-1.0956,-1.1013,-1.1021,-1.1005,-1.0956,-1.0907,-1.0834,-1.054,-1.0136,-0.9909,-0.9622,-0.9327,-0.9016,-0.9023,-0.9092,-0.9051,-0.9085,-0.8913,-0.9033,-0.9541,-0.9966,-1.0217,-1.0414,-1.0568,-1.0607,-1.0623,-0.6584,-0.7587,-0.7925,-0.838,-0.8885,-0.894,-0.894,-0.894,-0.894,-0.894,-0.894,-0.8947,-0.9008,-0.9164,-0.9401,-0.9618,-0.9747,-0.9781,-0.9788,-0.9822,-0.9822,-0.9761,-0.97,-0.9396,-0.9555,-0.9794,-0.9773,-0.9728,-0.9984,-1.0439,-1.0784,-1.1181,-1.171,-1.2157,-1.2119,-1.1972,-1.1911,-1.1406,-1.1187,-1.0911,-1.054,-1.0219,-0.9963,-0.9687,-0.9247,-0.8904,-0.8726,-0.8564,-0.863,-0.8914,-0.9182,-0.9377,-0.9457,-0.9457,-0.9457,-0.9579,-0.97,-0.97,-0.9342,-0.922,-0.922,-0.9214,-0.9092,-0.8854,-0.8427,-0.7816,-0.7082,-0.6644,-0.6478,-0.6506,-0.6661,-0.6829,-0.6997,-0.7225,-0.7544,-0.765,-0.775,-0.8102,-0.8594,-0.8807,-0.921,-0.9743,-1.017,-1.0327,-1.0429,-1.0643,-1.081,-1.0883,-1.0972,-1.111,-1.1191,-1.12,-1.1183,-1.1143,-1.1045,-1.0972,-1.061,-1.0137,-0.9924,-0.9698,-0.9363,-0.9144,-0.9255,-0.9255,-0.9221,-0.932,-0.937,-0.9602,-0.9971,-1.019,-1.037,-1.0548,-1.0704,-1.0704,-1.0737,-0.6265,-0.7382,-0.7826,-0.838,-0.8878,-0.894,-0.894,-0.894,-0.894,-0.894,-0.894,-0.894,-0.9062,-0.9273,-0.9435,-0.9605,-0.9774,-0.9822,-0.9822,-0.9822,-0.9822,-0.9822,-0.9761,-0.9646,-0.9781,-0.9915,-1.0076,-1.03,-1.0496,-1.0941,-1.1387,-1.1578,-1.1975,-1.2239,-1.2107,-1.1843,-1.141,-1.0848,-1.0326,-0.9915,-0.9754,-0.9579,-0.9457,-0.9281,-0.8721,-0.8436,-0.8326,-0.8083,-0.806,-0.8299,-0.8604,-0.8915,-0.8976,-0.8909,-0.872,-0.8482,-0.8421,-0.8482,-0.8604,-0.8421,-0.836,-0.8299,-0.8177,-0.7877,-0.751,-0.7021,-0.6591,-0.6464,-0.6496,-0.6543,-0.6665,-0.6988,-0.7206,-0.7429,-0.755,-0.7561,-0.7681,-0.8046,-0.84,-0.8558,-0.8775,-0.9391,-0.9991,-1.0231,-1.0477,-1.0835,-1.0956,-1.1021,-1.1143,-1.1281,-1.1346,-1.1378,-1.1362,-1.133,-1.1224,-1.1126,-1.0776,-1.0425,-1.0239,-0.9916,-0.9481,-0.9306,-0.9527,-0.9692,-0.9743,-0.9794,-0.9917,-1.0004,-1.0148,-1.0348,-1.0547,-1.0738,-1.0867,-1.0867,-1.0867,-0.626,-0.7326,-0.7826,-0.8325,-0.8878,-0.894,-0.894,-0.894,-0.894,-0.894,-0.8954,-0.8988,-0.9144,-0.9347,-0.9442,-0.9605,-0.9815,-0.9822,-0.9822,-0.9822,-0.9822,-0.9822,-0.9761,-0.9768,-0.9815,-0.9936,-1.0065,-1.0354,-1.0762,-1.1221,-1.152,-1.1843,-1.2107,-1.2041,-1.1776,-1.1372,-1.084,-1.0032,-0.943,-0.9,-0.8749,-0.8567,-0.8555,-0.8305,-0.7994,-0.7627,-0.7627,-0.7444,-0.7444,-0.7627,-0.7816,-0.8061,-0.8183,-0.8055,-0.7872,-0.7689,-0.7505,-0.7444,-0.7627,-0.7689,-0.7689,-0.7566,-0.7444,-0.7266,-0.6837,-0.653,-0.6346,-0.6285,-0.6476,-0.6603,-0.6791,-0.7133,-0.7306,-0.7508,-0.766,-0.7624,-0.7635,-0.7852,-0.8171,-0.845,-0.8749,-0.9262,-0.9745,-1.0122,-1.0539,-1.0964,-1.1094,-1.1183,-1.1321,-1.1484,-1.1524,-1.1565,-1.1549,-1.1524,-1.1459,-1.1245,-1.093,-1.0701,-1.052,-1.0295,-0.9895,-0.9799,-0.9952,-1.006,-1.017,-1.0258,-1.0376,-1.0303,-1.0296,-1.0565,-1.0825,-1.1017,-1.1126,-1.1102,-1.1021,-0.6765,-0.7604,-0.7875,-0.838,-0.894,-0.894,-0.894,-0.894,-0.894,-0.894,-0.8954,-0.9062,-0.9191,-0.9361,-0.949,-0.9632,-0.9808,-0.9822,-0.9822,-0.9822,-0.9822,-0.9822,-0.9822,-0.9822,-0.9768,-0.9815,-1.0025,-1.0175,-1.0431,-1.0991,-1.1381,-1.1762,-1.1909,-1.1512,-1.1115,-1.0644,-0.9911,-0.9199,-0.8729,-0.8419,-0.8108,-0.7841,-0.7603,-0.7531,-0.7214,-0.6964,-0.6964,-0.7025,-0.6959,-0.7082,-0.7143,-0.7204,-0.7388,-0.7266,-0.7143,-0.7021,-0.6714,-0.6657,-0.6789,-0.6908,-0.6959,-0.6959,-0.6898,-0.6775,-0.6469,-0.6407,-0.6285,-0.6101,-0.6315,-0.6528,-0.6714,-0.6961,-0.7228,-0.7385,-0.7434,-0.7493,-0.7487,-0.7525,-0.785,-0.827,-0.8717,-0.9296,-0.9881,-1.0341,-1.0719,-1.115,-1.1427,-1.1516,-1.1598,-1.1727,-1.1736,-1.1752,-1.1736,-1.1719,-1.1711,-1.1511,-1.128,-1.1032,-1.0832,-1.0679,-1.0465,-1.0487,-1.0332,-1.0569,-1.0681,-1.0733,-1.0816,-1.0778,-1.0821,-1.0968,-1.1173,-1.131,-1.1288,-1.1248,-1.1142,-0.6821,-0.7665,-0.8103,-0.8546,-0.894,-0.894,-0.894,-0.894,-0.894,-0.894,-0.8885,-0.9001,-0.9103,-0.9252,-0.9401,-0.9551,-0.9693,-0.9788,-0.9808,-0.9822,-0.9822,-0.9822,-0.9822,-0.9822,-0.9822,-0.9795,-0.9978,-1.0252,-1.0665,-1.0798,-1.0895,-1.1205,-1.1314,-1.1115,-1.0651,-0.9848,-0.8915,-0.8241,-0.7912,-0.7701,-0.761,-0.7438,-0.7403,-0.7529,-0.7132,-0.6998,-0.7046,-0.6927,-0.6785,-0.6719,-0.6785,-0.6846,-0.678,-0.6714,-0.6596,-0.6539,-0.6293,-0.6196,-0.6164,-0.6266,-0.6289,-0.6285,-0.6285,-0.6228,-0.6113,-0.6105,-0.6039,-0.6039,-0.6166,-0.6385,-0.6546,-0.6775,-0.7064,-0.709,-0.72,-0.7321,-0.7441,-0.7501,-0.7894,-0.8486,-0.89,-0.9392,-1.0046,-1.0692,-1.0977,-1.136,-1.1587,-1.1841,-1.1898,-1.1922,-1.1914,-1.1874,-1.1849,-1.1792,-1.1768,-1.1651,-1.1535,-1.1375,-1.1149,-1.1054,-1.089,-1.0696,-1.0658,-1.0899,-1.1095,-1.114,-1.1201,-1.1269,-1.129,-1.122,-1.1375,-1.1538,-1.1508,-1.1344,-1.1187,-0.7154,-0.7881,-0.8436,-0.8712,-0.8885,-0.894,-0.894,-0.894,-0.894,-0.894,-0.894,-0.8885,-0.9022,-0.9221,-0.932,-0.9469,-0.9625,-0.9747,-0.9802,-0.9822,-0.9822,-0.9822,-0.9822,-0.9822,-0.9822,-0.9788,-0.9924,-1.0184,-1.0594,-1.0635,-1.0599,-1.0524,-1.0319,-1.0187,-0.9921,-0.9111,-0.801,-0.7426,-0.7173,-0.7145,-0.7131,-0.7089,-0.7198,-0.7449,-0.7253,-0.7166,-0.7088,-0.6988,-0.6682,-0.6598,-0.658,-0.6562,-0.6482,-0.6407,-0.6298,-0.6192,-0.6089,-0.594,-0.6043,-0.6043,-0.5998,-0.6081,-0.6077,-0.6056,-0.5965,-0.5895,-0.5961,-0.5921,-0.6117,-0.6324,-0.639,-0.666,-0.694,-0.7051,-0.7113,-0.7237,-0.7485,-0.7671,-0.8251,-0.8769,-0.922,-0.9829,-1.0504,-1.1194,-1.1434,-1.1667,-1.1732,-1.1979,-1.2093,-1.2101,-1.2069,-1.2004,-1.1931,-1.1857,-1.1784,-1.1744,-1.1651,-1.1651,-1.1439,-1.1403,-1.1253,-1.1095,-1.1095,-1.1337,-1.1466,-1.1518,-1.1458,-1.1329,-1.1269,-1.1261,-1.1358,-1.1387,-1.1243,-1.109,-1.0999,-0.7881,-0.8484,-0.8768,-0.8885,-0.894,-0.894,-0.894,-0.894,-0.894,-0.894,-0.894,-0.8885,-0.9008,-0.9207,-0.9293,-0.9449,-0.9585,-0.9741,-0.9822,-0.9822,-0.9822,-0.9822,-0.9822,-0.9822,-0.9822,-0.9822,-0.9876,-1.0012,-1.034,-1.0106,-1.0071,-0.9918,-0.9655,-0.925,-0.905,-0.8456,-0.7717,-0.7102,-0.6955,-0.6994,-0.7028,-0.7034,-0.7269,-0.7448,-0.7478,-0.7463,-0.7449,-0.7037,-0.6792,-0.6625,-0.6298,-0.621,-0.6093,-0.6081,-0.6048,-0.6043,-0.6047,-0.6092,-0.6166,-0.617,-0.617,-0.6141,-0.6112,-0.6104,-0.6063,-0.598,-0.6027,-0.599,-0.6073,-0.6231,-0.6391,-0.6615,-0.6833,-0.6901,-0.6955,-0.7141,-0.7453,-0.7891,-0.8403,-0.9118,-0.984,-1.0489,-1.1184,-1.1728,-1.1955,-1.2085,-1.1974,-1.2109,-1.2255,-1.228,-1.2239,-1.2117,-1.2028,-1.189,-1.1817,-1.1784,-1.1768,-1.1776,-1.1708,-1.1587,-1.1587,-1.1526,-1.1587,-1.1708,-1.1647,-1.1518,-1.1398,-1.1269,-1.1088,-1.0846,-1.0914,-1.0952,-1.0891,-1.0816,-1.0823,-0.7937,-0.854,-0.8768,-0.894,-0.894,-0.894,-0.894,-0.894,-0.894,-0.894,-0.894,-0.894,-0.8954,-0.9069,-0.9266,-0.9422,-0.9496,-0.9734,-0.9822,-0.9822,-0.9822,-0.9822,-0.9822,-0.9822,-0.9822,-0.9822,-0.9842,-0.9992,-1.0276,-0.9901,-0.9741,-0.966,-0.9134,-0.8523,-0.8256,-0.7922,-0.7722,-0.7183,-0.7156,-0.7275,-0.7337,-0.7497,-0.7797,-0.812,-0.8058,-0.8026,-0.8021,-0.7458,-0.7015,-0.6719,-0.6396,-0.618,-0.608,-0.6076,-0.6096,-0.6133,-0.6141,-0.6178,-0.6264,-0.6304,-0.6357,-0.6243,-0.6194,-0.6186,-0.6141,-0.6137,-0.6117,-0.6096,-0.6108,-0.6201,-0.6277,-0.6349,-0.6426,-0.649,-0.6613,-0.6933,-0.7316,-0.7896,-0.8511,-0.9444,-1.0199,-1.106,-1.1782,-1.2035,-1.225,-1.2385,-1.2345,-1.2353,-1.2467,-1.2458,-1.2426,-1.2247,-1.2109,-1.1955,-1.1849,-1.1801,-1.1837,-1.1776,-1.1776,-1.1776,-1.1776,-1.1837,-1.1776,-1.1776,-1.1587,-1.1458,-1.1216,-1.0906,-1.0543,-1.0368,-1.049,-1.0611,-1.0664,-1.0657,-1.071,-0.8103,-0.865,-0.8823,-0.894,-0.894,-0.894,-0.894,-0.894,-0.894,-0.894,-0.894,-0.8885,-0.8981,-0.9076,-0.9252,-0.9435,-0.9476,-0.97,-0.9822,-0.9822,-0.9822,-0.9822,-0.9822,-0.9822,-0.9822,-0.9829,-0.9903,-1.0046,-1.0276,-0.9813,-0.9512,-0.9221,-0.8901,-0.8593,-0.8184,-0.8097,-0.7789,-0.7455,-0.7512,-0.7779,-0.7979,-0.824,-0.8645,-0.8823,-0.891,-0.8799,-0.8579,-0.8073,-0.7428,-0.702,-0.6683,-0.6344,-0.6263,-0.6186,-0.6198,-0.6215,-0.6304,-0.6357,-0.6464,-0.6509,-0.6476,-0.637,-0.6304,-0.6259,-0.6239,-0.6227,-0.6198,-0.619,-0.6215,-0.6227,-0.6235,-0.6235,-0.6333,-0.6402,-0.6658,-0.6987,-0.7572,-0.8231,-0.901,-0.989,-1.0784,-1.1562,-1.2211,-1.2395,-1.2572,-1.2613,-1.2645,-1.2653,-1.2645,-1.2621,-1.2548,-1.2361,-1.2199,-1.2044,-1.1898,-1.1792,-1.1837,-1.1837,-1.1861,-1.1825,-1.1837,-1.1837,-1.1837,-1.1776,-1.1526,-1.1277,-1.0914,-1.055,-1.0247,-1.0119,-1.0179,-1.0308,-1.0429,-1.0429,-1.0429,-0.8318,-0.883,-0.8885,-0.894,-0.894,-0.894,-0.894,-0.894,-0.894,-0.894,-0.894,-0.894,-0.8988,-0.9137,-0.9364,-0.9442,-0.9578,-0.9734,-0.9802,-0.9822,-0.9822,-0.9822,-0.9822,-0.9822,-0.9842,-0.9829,-0.9909,-1.0044,-1.0226,-0.9793,-0.9276,-0.8934,-0.8906,-0.881,-0.8736,-0.8574,-0.8262,-0.807,-0.82,-0.8526,-0.8711,-0.9085,-0.9413,-0.9588,-0.9697,-0.9552,-0.9215,-0.8734,-0.8091,-0.76,-0.7112,-0.6727,-0.6425,-0.6258,-0.6312,-0.6341,-0.656,-0.6659,-0.6656,-0.6676,-0.6656,-0.6545,-0.6496,-0.6423,-0.6353,-0.6321,-0.6296,-0.6288,-0.6308,-0.6325,-0.6337,-0.6456,-0.6502,-0.6698,-0.6885,-0.7417,-0.8015,-0.8745,-0.9606,-1.0452,-1.13,-1.2088,-1.2522,-1.2685,-1.2718,-1.2726,-1.2751,-1.2759,-1.2751,-1.2767,-1.2653,-1.2418,-1.2264,-1.2134,-1.1996,-1.1874,-1.1849,-1.1874,-1.1906,-1.1922,-1.1857,-1.1809,-1.1809,-1.1748,-1.1474,-1.1095,-1.055,-1.0186,-0.9943,-0.9883,-0.9943,-0.9997,-1.0126,-1.0065,-1.0004,-0.8011,-0.865,-0.8823,-0.894,-0.894,-0.894,-0.894,-0.894,-0.894,-0.894,-0.894,-0.894,-0.8981,-0.9022,-0.9266,-0.9388,-0.9537,-0.9673,-0.9788,-0.9822,-0.9822,-0.9822,-0.9829,-0.9842,-0.9822,-0.9903,-1.0066,-1.0202,-1.0283,-0.9855,-0.9461,-0.9188,-0.9166,-0.9365,-0.9549,-0.9617,-0.9331,-0.9177,-0.9377,-0.9455,-0.9679,-1.0065,-1.0357,-1.0451,-1.0498,-1.0365,-1.0092,-0.9207,-0.8634,-0.823,-0.7616,-0.7252,-0.7181,-0.7106,-0.7146,-0.6909,-0.6958,-0.7044,-0.6791,-0.6729,-0.6717,-0.67,-0.6656,-0.6558,-0.6472,-0.6419,-0.6406,-0.6419,-0.6439,-0.6472,-0.6484,-0.6521,-0.6685,-0.6881,-0.7193,-0.7756,-0.8416,-0.9201,-1.006,-1.0982,-1.1843,-1.2336,-1.279,-1.2856,-1.2824,-1.2766,-1.2774,-1.279,-1.2782,-1.2782,-1.2735,-1.2499,-1.2369,-1.2239,-1.2109,-1.1987,-1.1971,-1.1971,-1.202,-1.2044,-1.2004,-1.1955,-1.1898,-1.1683,-1.137,-1.0777,-1.0058,-0.9842,-0.9917,-0.9842,-0.9896,-0.9829,-0.9822,-0.9836,-0.9829,-0.7684,-0.8401,-0.8571,-0.8769,-0.8878,-0.894,-0.894,-0.894,-0.894,-0.894,-0.894,-0.894,-0.8946,-0.9144,-0.9313,-0.9456,-0.9598,-0.9727,-0.9822,-0.9822,-0.9829,-0.9876,-0.9883,-0.9924,-1.0012,-1.01,-1.0209,-1.0337,-1.0377,-1.0122,-0.9789,-0.9567,-0.9547,-1.0009,-1.0455,-1.0671,-1.085,-1.0728,-1.074,-1.0642,-1.0789,-1.1091,-1.13,-1.1312,-1.1291,-1.1216,-1.0873,-0.9838,-0.9349,-0.8839,-0.8168,-0.7882,-0.7762,-0.765,-0.7493,-0.7308,-0.7226,-0.7085,-0.6906,-0.6843,-0.6815,-0.6786,-0.6774,-0.6696,-0.6627,-0.6574,-0.657,-0.6574,-0.6611,-0.6639,-0.6643,-0.6712,-0.6919,-0.7121,-0.7601,-0.8132,-0.8845,-0.9619,-1.0532,-1.1519,-1.213,-1.2624,-1.2905,-1.2921,-1.297,-1.3043,-1.3035,-1.297,-1.2929,-1.2881,-1.2759,-1.2556,-1.2458,-1.2369,-1.2239,-1.2142,-1.2142,-1.2142,-1.2174,-1.2182,-1.215,-1.2047,-1.1937,-1.1642,-1.1233,-1.0642,-1.0067,-1.0067,-1.0053,-0.9985,-0.9964,-1.0012,-0.9978,-0.9883,-0.9869,-0.7281,-0.8164,-0.8278,-0.8539,-0.8871,-0.894,-0.894,-0.894,-0.894,-0.894,-0.894,-0.894,-0.9026,-0.9245,-0.9361,-0.9523,-0.9659,-0.9781,-0.9822,-0.9829,-0.9869,-0.9924,-0.9936,-1.0004,-1.0161,-1.029,-1.0399,-1.0388,-1.0404,-1.0201,-1.0069,-0.9999,-1.0048,-1.0525,-1.1255,-1.142,-1.1731,-1.2201,-1.1853,-1.1587,-1.1753,-1.2076,-1.2345,-1.2315,-1.2162,-1.2025,-1.1447,-1.0865,-1.0402,-0.9555,-0.8878,-0.8565,-0.8188,-0.804,-0.7828,-0.7592,-0.7558,-0.725,-0.7073,-0.6941,-0.6917,-0.6888,-0.686,-0.6819,-0.677,-0.6684,-0.6664,-0.6672,-0.6696,-0.6725,-0.6733,-0.6873,-0.7152,-0.7548,-0.7971,-0.8602,-0.9319,-1.0206,-1.1206,-1.1999,-1.2465,-1.2912,-1.3092,-1.3124,-1.3141,-1.3246,-1.3238,-1.3141,-1.3035,-1.2954,-1.2808,-1.2637,-1.254,-1.2467,-1.2402,-1.232,-1.232,-1.2337,-1.2361,-1.2353,-1.2328,-1.2162,-1.1988,-1.1611,-1.1238,-1.0746,-1.0371,-1.028,-1.0181,-1.0181,-1.0181,-1.0236,-1.0175,-1.0039,-0.9992,-0.6527,-0.7228,-0.7971,-0.8532,-0.8871,-0.894,-0.894,-0.894,-0.894,-0.894,-0.894,-0.8898,-0.9042,-0.9232,-0.9361,-0.9523,-0.9659,-0.9788,-0.9815,-0.9876,-0.9924,-0.9957,-1.0024,-1.0188,-1.0304,-1.0405,-1.0493,-1.0431,-1.0373,-1.0259,-1.0315,-1.0385,-1.0543,-1.0994,-1.1931,-1.2022,-1.2466,-1.3095,-1.2948,-1.2459,-1.2462,-1.2642,-1.2835,-1.2751,-1.2628,-1.2513,-1.2007,-1.1427,-1.0924,-1.0247,-0.9619,-0.9134,-0.8735,-0.876,-0.8459,-0.8002,-0.7854,-0.7535,-0.7191,-0.699,-0.697,-0.6966,-0.6945,-0.6941,-0.6892,-0.679,-0.6741,-0.6758,-0.6774,-0.6807,-0.6894,-0.711,-0.7389,-0.7842,-0.8423,-0.9151,-0.9865,-1.0866,-1.191,-1.2365,-1.2834,-1.3057,-1.3254,-1.3311,-1.3327,-1.3336,-1.3344,-1.3271,-1.3141,-1.3043,-1.2863,-1.2702,-1.2621,-1.2548,-1.2507,-1.2507,-1.2507,-1.2483,-1.2524,-1.2491,-1.2515,-1.2259,-1.1948,-1.1553,-1.1184,-1.077,-1.0524,-1.0313,-1.0276,-1.0331,-1.0351,-1.0378,-1.0351,-1.0236,-1.0209,-0.5789,-0.6683,-0.782,-0.8493,-0.8784,-0.8851,-0.894,-0.894,-0.894,-0.894,-0.8954,-0.9008,-0.9117,-0.9259,-0.9415,-0.9551,-0.9693,-0.9781,-0.9808,-0.9883,-0.995,-1.0078,-1.0229,-1.0331,-1.046,-1.0561,-1.0588,-1.0518,-1.0379,-1.0472,-1.0578,-1.0783,-1.0924,-1.149,-1.2293,-1.2573,-1.2904,-1.3539,-1.3539,-1.3342,-1.3043,-1.324,-1.3365,-1.3262,-1.3246,-1.3037,-1.2664,-1.2091,-1.1587,-1.0914,-1.0171,-0.9541,-0.9133,-0.9105,-0.8775,-0.8294,-0.7972,-0.7788,-0.728,-0.699,-0.7063,-0.7063,-0.699,-0.697,-0.6966,-0.688,-0.6872,-0.6884,-0.6888,-0.6913,-0.7056,-0.7204,-0.7563,-0.7969,-0.8878,-0.9788,-1.0763,-1.1844,-1.2475,-1.2882,-1.3178,-1.3235,-1.3417,-1.349,-1.3522,-1.3612,-1.3587,-1.3409,-1.3279,-1.299,-1.2818,-1.2682,-1.2596,-1.2613,-1.2686,-1.2621,-1.2621,-1.2604,-1.2505,-1.2342,-1.2149,-1.2087,-1.1895,-1.1384,-1.1041,-1.0955,-1.069,-1.0412,-1.046,-1.0534,-1.0521,-1.0507,-1.0466,-1.0439,-1.0439,-0.5145,-0.6437,-0.7712,-0.8373,-0.8629,-0.8817,-0.894,-0.894,-0.894,-0.8954,-0.9001,-0.9187,-0.9316,-0.9388,-0.9537,-0.9686,-0.9781,-0.9808,-0.9842,-0.9943,-1.0011,-1.0229,-1.0378,-1.0514,-1.0602,-1.0656,-1.069,-1.0697,-1.0651,-1.0671,-1.0732,-1.1016,-1.1433,-1.2004,-1.2514,-1.3011,-1.3396,-1.3682,-1.3825,-1.3833,-1.3825,-1.3904,-1.38,-1.3808,-1.3833,-1.3682,-1.3199,-1.2734,-1.2215,-1.1311,-1.0407,-0.9761,-0.9402,-0.9264,-0.8842,-0.8425,-0.828,-0.7933,-0.7425,-0.7208,-0.7135,-0.7131,-0.7063,-0.699,-0.6994,-0.6986,-0.6982,-0.6978,-0.6982,-0.7055,-0.72,-0.7417,-0.7779,-0.8425,-0.9473,-1.0441,-1.1552,-1.2589,-1.3003,-1.334,-1.3449,-1.3498,-1.351,-1.3582,-1.3647,-1.3752,-1.3695,-1.3518,-1.3202,-1.2838,-1.2629,-1.2429,-1.2339,-1.2463,-1.2618,-1.2553,-1.2405,-1.2134,-1.1952,-1.1901,-1.1762,-1.1556,-1.1374,-1.1025,-1.0823,-1.0706,-1.0595,-1.0457,-1.0518,-1.0611,-1.0649,-1.0609,-1.0616,-1.0609,-1.0656,-0.509,-0.6684,-0.7515,-0.8015,-0.8399,-0.8769,-0.894,-0.894,-0.894,-0.9001,-0.9117,-0.9259,-0.9367,-0.9395,-0.9544,-0.9686,-0.9808,-0.9836,-0.9862,-0.997,-1.0181,-1.0337,-1.048,-1.0602,-1.0683,-1.0711,-1.0717,-1.0717,-1.0717,-1.0731,-1.0792,-1.0934,-1.1433,-1.1996,-1.2507,-1.3003,-1.3468,-1.3753,-1.3904,-1.3904,-1.3904,-1.3904,-1.3904,-1.3904,-1.3904,-1.3468,-1.3024,-1.2794,-1.2087,-1.124,-1.0329,-0.9757,-0.9418,-0.9278,-0.8993,-0.8712,-0.8562,-0.827,-0.7911,-0.7542,-0.7473,-0.7396,-0.7323,-0.7019,-0.7015,-0.7007,-0.6998,-0.6986,-0.7059,-0.7204,-0.7349,-0.7711,-0.815,-0.9246,-1.0269,-1.12,-1.2262,-1.2795,-1.327,-1.3394,-1.3534,-1.3544,-1.3633,-1.3602,-1.3531,-1.3523,-1.3381,-1.3201,-1.2843,-1.2566,-1.2376,-1.2157,-1.1946,-1.1982,-1.1975,-1.2005,-1.1931,-1.1659,-1.1269,-1.0978,-1.0845,-1.0923,-1.0683,-1.0379,-1.0326,-1.0274,-1.0233,-1.0287,-1.0432,-1.0505,-1.0644,-1.0704,-1.0717,-1.0717,-1.0717]}]]